[[{"header":{"parameterUnit":"m.s-1","parameterCategory":1,"la1":31.0,"la2":29.5877,"lo1":-88.7671,"lo2":-86.6584,"dy":0.0162,"dx":0.0185,"nx":115,"ny":88,"refTime":"2023-05-20T12:00:00:Z","depth":0,"parameterNumber":2,"parameterNumberName":"U-component_of_WINDS"},"data":[0.0,0.0,0.0,0.0,0.0,0.0,0.0,0.0,0.0,0.0,0.0,0.0,0.0,0.0,0.0,0.0,0.0,0.0,0.0,0.0,0.0,0.0,0.0,0.0,0.0,0.0,0.0,0.0,0.0,0.0,0.0,0.0,0.0,0.0,0.0,0.0,0.0,0.0,0.0,0.0,0.0,0.0,0.0,0.0,0.0,0.0,0.0,0.0,0.0,0.0,0.0,0.0,0.0,0.0,0.0,0.0,0.0,0.0,0.0,0.0,0.0,0.0,0.0,0.0,0.0,0.0,0.0,0.0,0.0,0.0,0.0,0.0,0.0,0.0,0.0,0.0,0.0,0.0,0.0,0.0,0.0,0.0,0.0,0.0,0.0,0.0,0.0,0.0,0.0,0.0,0.0,0.0,0.0,0.0,0.0,0.0,0.0,0.0,0.0,0.0,0.0,0.0,0.0,0.0,0.0,0.0,0.0,0.0,0.0,0.0,0.0,0.0,0.0,0.0,0.0,0.0,0.0,0.0,0.0,0.0,0.0,0.0,0.0,0.0,0.0,0.0,0.0,0.0,0.0,0.0,0.0,0.0,0.0,0.0,0.0,0.0,0.0,0.0,0.0,0.0,0.0,0.0,0.0,0.0,0.0,0.0,0.0,0.0,0.0,0.0,0.0,0.0,0.0,0.0,0.0,0.0,0.0,0.0,0.0,0.0,0.0,0.0,0.0,0.0,0.0,0.0,0.0,0.0,0.0,0.0,0.0,0.0,0.0,0.0,0.0,0.0,0.0,0.0,0.0,0.0,0.0,0.0,0.0,0.0,0.0,0.0,0.0,0.0,0.0,0.0,0.0,0.0,0.0,0.0,0.0,0.0,0.0,0.0,0.0,0.0,0.0,0.0,0.0,0.0,0.0,0.0,0.0,0.0,0.0,0.0,0.0,0.0,0.0,0.0,0.0,0.0,0.0,0.0,0.0,0.0,0.0,0.0,0.0,0.0,0.0,0.0,0.0,0.0,0.0,0.0,0.0,0.0,0.0,0.0,0.0,0.0,0.0,0.0,0.0,0.0,0.0,0.0,0.0,0.0,0.0,0.0,0.0,0.0,0.0,0.0,0.0,0.0,0.0,0.0,0.0,0.0,0.0,0.0,0.0,0.0,0.0,0.0,0.0,0.0,0.0,0.0,0.0,0.0,0.0,0.0,0.0,0.0,0.0,0.0,0.0,0.0,0.0,0.0,0.0,0.0,0.0,0.0,0.0,0.0,0.0,0.0,0.0,0.0,0.0,0.0,0.0,0.0,0.0,0.0,0.0,0.0,0.0,0.0,0.0,0.0,0.0,0.0,0.0,0.0,0.0,0.0,0.0,0.0,0.0,0.0,0.0,0.0,0.0,0.0,0.0,0.0,0.0,0.0,0.0,0.0,0.0,0.0,0.0,0.0,0.0,0.0,0.0,0.0,0.0,0.0,0.0,0.0,0.0,0.0,0.0,0.0,0.0,0.0,0.0,0.0,0.0,0.0,0.0,0.0,0.0,0.0,0.0,0.0,0.0,0.0,0.0,0.0,0.0,0.0,0.0,0.0,0.0,0.0,0.0,0.0,0.0,0.0,0.0,0.0,0.0,0.0,0.0,0.0,0.0,0.0,0.0,0.0,0.0,0.0,0.0,0.0,0.0,0.0,0.0,0.0,0.0,0.0,0.0,0.0,0.0,0.0,0.0,0.0,0.0,0.0,0.0,0.0,0.0,0.0,0.0,0.0,0.0,0.0,0.0,0.0,0.0,0.0,0.0,0.0,0.0,0.0,0.0,0.0,0.0,0.0,0.0,0.0,0.0,0.0,0.0,0.0,0.0,0.0,0.0,0.0,0.0,0.0,0.0,0.0,0.0,0.0,0.0,0.0,0.0,0.0,0.0,0.0,0.0,0.0,0.0,0.0,0.0,0.0,0.0,0.0,0.0,0.0,0.0,0.0,0.0,0.0,0.0,0.0,0.0,0.0,0.0,0.0,0.0,0.0,0.0,0.0,0.0,0.0,0.0,0.0,0.0,0.0,0.0,0.0,0.0,0.0,0.0,0.0,0.0,0.0,0.0,0.0,0.0,0.0,0.0,0.0,0.0,0.0,0.0,0.0,0.0,0.0,0.0,0.0,0.0,0.0,0.0,0.0,0.0,0.0,0.0,0.0,0.0,0.0,0.0,0.0,0.0,0.0,0.0,0.0,0.0,0.0,0.0,0.0,0.0,0.0,0.0,0.0,0.0,0.0,0.0,0.0,0.0,0.0,0.0,0.0,0.0,0.0,0.0,0.0,0.0,0.0,0.0,0.0,0.0,0.0,0.0,0.0,0.0,0.0,0.0,0.0,0.0,0.0,0.0,0.0,0.0,0.0,0.0,0.0,0.0,0.0,0.0,0.0,0.0,0.0,0.0,0.0,0.0,0.0,0.0,0.0,0.0,0.0,0.0,0.0,0.0,0.0,0.0,0.0,0.0,0.0,0.0,0.0,0.0,0.0,0.0,0.0,0.0,0.0,0.0,0.0,0.0,0.0,0.0,0.0,0.0,0.0,0.0,0.0,0.0,0.0,0.0,0.0,0.0,0.0,0.0,0.0,0.0,0.0,0.0,0.0,0.0,0.0,0.0,0.0,0.0,0.0,0.0,0.0,0.0,0.0,0.0,0.0,0.0,0.0,0.0,0.0,0.0,0.0,0.0,0.0,0.0,0.0,0.0,0.0,0.0,0.0,0.0,0.0,0.0,0.0,0.0,0.0,0.0,0.0,0.0,0.0,0.0,0.0,0.0,0.0,0.0,0.0,0.0,0.0,0.0,0.0,0.0,0.0,0.0,0.0,0.0,0.0,0.0,0.0,0.0,0.0,0.0,0.0,0.0,0.0,0.0,0.0,0.0,0.0,0.0,0.0,0.0,0.0,0.0,0.0,0.0,0.0,0.0,0.0,0.0,0.0,0.0,0.0,0.0,0.0,0.0,0.0,0.0,0.0,0.0,0.0,0.0,0.0,0.0,0.0,0.0,0.0,0.0,0.0,0.0,0.0,0.0,0.0,0.0,0.0,0.0,0.0,0.0,0.0,0.0,0.0,0.0,0.0,0.0,0.0,0.0,0.0,0.0,0.0,0.0,0.0,0.0,0.0,0.0,0.0,0.0,0.0,0.0,0.0,0.0,0.0,0.0,0.0,0.0,0.0,0.0,0.0,0.0,0.0,0.0,0.0,0.0,0.0,0.0,0.0,0.0,0.0,0.0,0.0,0.0,0.0,0.0,0.0,0.0,0.0,0.0,0.0,0.0,0.0,0.0,0.0,0.0,0.0,0.0,0.0,0.0,0.0,0.0,0.0,0.0,0.0,0.0,0.0,0.0,0.0,0.0,0.0,0.0,0.0,0.0,0.0,0.0,0.0,0.0,0.0,0.0,0.0,0.0,0.0,0.0,0.0,0.0,0.0,0.0,0.0,0.0,0.0,0.0,0.0,0.0,0.0,0.0,0.0,0.0,0.0,0.0,0.0,0.0,0.0,0.0,0.0,0.0,0.0,0.0,0.0,0.0,0.0,0.0,0.0,0.0,0.0,0.0,0.0,0.0,0.0,0.0,0.0,0.0,0.0,0.0,0.0,0.0,0.0,0.0,0.0,0.0,0.0,0.0,0.0,0.0,0.0,0.0,0.0,0.0,0.0,0.0,0.0,0.0,0.0,0.0,0.0,0.0,0.0,0.0,0.0,0.0,0.0,0.0,0.0,0.0,0.0,0.0,0.0,0.0,0.0,0.0,0.0,0.0,0.0,0.0,0.0,0.0,0.0,0.0,0.0,0.0,0.0,0.0,0.0,0.0,0.0,0.0,0.0,0.0,0.0,0.0,0.0,0.0,0.0,0.0,0.0,0.0,0.0,0.0,0.0,0.0,0.0,0.0,0.0,0.0,0.0,0.0,0.0,0.0,0.0,0.0,0.0,0.0,0.0,0.0,0.0,0.0,0.0,0.0,0.0,0.0,0.0,0.0,0.0,0.0,0.0,0.0,0.0,0.0,0.0,0.0,0.0,0.0,0.0,0.0,0.0,0.0,0.0,0.0,0.0,0.0,0.0,0.0,0.0,0.0,0.0,0.0,0.0,0.0,0.0,0.0,0.0,0.0,0.0,0.0,0.0,0.0,0.0,0.0,0.0,0.0,0.0,0.0,0.0,0.0,0.0,0.0,0.0,0.0,0.0,0.0,0.0,0.0,0.0,0.0,0.0,0.0,0.0,0.0,0.0,0.0,0.0,0.0,0.0,-1.5069,0.0,0.0,0.0,0.0,0.0,0.0,0.0,0.0,0.0,0.0,0.0,0.0,0.0,0.0,0.0,0.0,0.0,0.0,0.0,0.0,0.0,0.0,0.0,0.0,0.0,0.0,0.0,0.0,0.0,0.0,0.0,0.0,0.0,0.0,0.0,0.0,0.0,0.0,0.0,0.0,0.0,0.0,0.0,0.0,0.0,0.0,0.0,0.0,0.0,0.0,0.0,0.0,0.0,0.0,0.0,0.0,0.0,0.0,0.0,0.0,0.0,0.0,0.0,0.0,0.0,0.0,0.0,0.0,0.0,0.0,0.0,0.0,0.0,0.0,0.0,0.0,0.0,0.0,0.0,0.0,0.0,0.0,0.0,0.0,0.0,0.0,0.0,0.0,0.0,0.0,0.0,0.0,0.0,0.0,0.0,0.0,0.0,0.0,0.0,0.0,0.0,0.0,0.0,0.0,0.0,0.0,0.0,0.0,0.0,0.0,-1.6792,-1.6115,-1.7652,-1.7584,-1.5641,0.0,0.0,0.0,0.0,0.0,0.0,0.0,0.0,0.0,0.0,0.0,0.0,0.0,0.0,0.0,0.0,0.0,0.0,0.0,0.0,0.0,0.0,0.0,0.0,0.0,0.0,0.0,0.0,0.0,0.0,0.0,0.0,0.0,0.0,0.0,0.0,0.0,0.0,0.0,0.0,0.0,0.0,0.0,0.0,0.0,0.0,0.0,0.0,0.0,0.0,0.0,0.0,0.0,0.0,0.0,0.0,0.0,0.0,0.0,0.0,0.0,0.0,0.0,0.0,0.0,0.0,0.0,0.0,0.0,0.0,0.0,0.0,0.0,0.0,0.0,0.0,0.0,0.0,0.0,0.0,0.0,0.0,0.0,0.0,0.0,0.0,0.0,0.0,0.0,0.0,0.0,0.0,0.0,0.0,0.0,0.0,0.0,0.0,0.0,0.0,0.0,0.0,0.0,0.0,0.0,0.0,0.0,0.0,0.0,0.0,0.0,0.0,-1.9142,-1.914,-1.71,0.0,0.0,0.0,0.0,0.0,0.0,0.0,0.0,0.0,0.0,0.0,0.0,0.0,0.0,0.0,0.0,0.0,0.0,0.0,0.0,0.0,0.0,0.0,0.0,0.0,0.0,0.0,0.0,0.0,0.0,0.0,0.0,0.0,0.0,0.0,0.0,0.0,0.0,0.0,0.0,0.0,0.0,0.0,0.0,0.0,0.0,0.0,0.0,0.0,0.0,0.0,0.0,0.0,0.0,0.0,0.0,0.0,0.0,0.0,0.0,0.0,0.0,0.0,0.0,0.0,0.0,0.0,0.0,0.0,0.0,0.0,0.0,0.0,0.0,0.0,0.0,0.0,0.0,0.0,0.0,0.0,0.0,0.0,0.0,0.0,0.0,0.0,0.0,0.0,0.0,0.0,0.0,0.0,0.0,0.0,0.0,0.0,0.0,0.0,0.0,0.0,0.0,0.0,0.0,0.0,0.0,0.0,0.0,0.0,0.0,-1.939,-2.0317,-2.1206,0.0,-1.967,0.0,0.0,0.0,0.0,0.0,0.0,0.0,0.0,0.0,0.0,0.0,0.0,0.0,0.0,0.0,0.0,0.0,0.0,0.0,0.0,0.0,0.0,0.0,0.0,0.0,0.0,0.0,0.0,0.0,0.0,0.0,0.0,0.0,0.0,0.0,0.0,0.0,0.0,0.0,0.0,0.0,0.0,0.0,0.0,0.0,0.0,0.0,0.0,0.0,0.0,0.0,0.0,0.0,0.0,0.0,0.0,0.0,0.0,0.0,0.0,0.0,0.0,0.0,0.0,0.0,0.0,0.0,0.0,0.0,0.0,0.0,0.0,0.0,0.0,0.0,0.0,0.0,0.0,0.0,0.0,0.0,0.0,0.0,0.0,0.0,0.0,0.0,0.0,0.0,0.0,0.0,0.0,0.0,0.0,0.0,0.0,0.0,0.0,0.0,0.0,0.0,0.0,0.0,0.0,0.0,0.0,0.0,0.0,0.0,0.0,-2.0162,-2.1278,-2.1523,-2.086,0.0,0.0,0.0,0.0,0.0,0.0,0.0,0.0,0.0,0.0,0.0,0.0,0.0,0.0,0.0,0.0,0.0,0.0,0.0,0.0,0.0,0.0,0.0,0.0,0.0,0.0,0.0,0.0,0.0,0.0,0.0,0.0,0.0,0.0,0.0,0.0,0.0,0.0,0.0,0.0,0.0,0.0,0.0,0.0,0.0,0.0,0.0,0.0,0.0,0.0,0.0,0.0,0.0,0.0,0.0,0.0,0.0,0.0,0.0,0.0,0.0,0.0,0.0,0.0,0.0,0.0,0.0,0.0,0.0,0.0,0.0,0.0,0.0,0.0,0.0,0.0,0.0,0.0,0.0,0.0,0.0,0.0,0.0,0.0,0.0,0.0,0.0,0.0,0.0,0.0,0.0,0.0,0.0,0.0,0.0,0.0,0.0,0.0,0.0,0.0,0.0,0.0,0.0,0.0,0.0,0.0,0.0,0.0,0.0,0.0,-2.0372,-2.182,-2.3,-2.2116,-2.0797,-1.9149,0.0,0.0,0.0,0.0,0.0,0.0,0.0,0.0,0.0,0.0,0.0,0.0,0.0,0.0,0.0,0.0,0.0,0.0,0.0,0.0,0.0,0.0,0.0,0.0,0.0,0.0,0.0,0.0,0.0,0.0,0.0,0.0,0.0,0.0,0.0,0.0,0.0,0.0,0.0,0.0,0.0,0.0,0.0,0.0,0.0,0.0,0.0,0.0,0.0,0.0,0.0,0.0,0.0,0.0,0.0,0.0,0.0,0.0,0.0,0.0,0.0,0.0,0.0,0.0,0.0,0.0,0.0,0.0,0.0,0.0,0.0,0.0,0.0,0.0,0.0,0.0,0.0,0.0,0.0,0.0,0.0,0.0,0.0,0.0,0.0,0.0,0.0,0.0,0.0,0.0,0.0,0.0,0.0,0.0,0.0,0.0,0.0,0.0,0.0,0.0,0.0,0.0,0.0,0.0,0.0,0.0,0.0,0.0,-2.3301,-2.385,-2.4926,-2.6455,-2.3446,-2.1361,0.0,0.0,0.0,0.0,0.0,0.0,0.0,0.0,0.0,0.0,0.0,0.0,0.0,0.0,0.0,0.0,0.0,0.0,0.0,0.0,0.0,0.0,0.0,0.0,0.0,0.0,0.0,0.0,0.0,0.0,0.0,0.0,0.0,0.0,0.0,0.0,0.0,0.0,0.0,0.0,0.0,0.0,0.0,0.0,0.0,0.0,0.0,0.0,0.0,0.0,0.0,0.0,0.0,0.0,0.0,0.0,0.0,0.0,0.0,0.0,0.0,0.0,0.0,0.0,0.0,0.0,0.0,0.0,0.0,0.0,0.0,0.0,0.0,0.0,0.0,0.0,0.0,0.0,0.0,0.0,0.0,0.0,0.0,0.0,0.0,0.0,0.0,0.0,0.0,0.0,0.0,0.0,0.0,0.0,0.0,0.0,0.0,0.0,0.0,0.0,0.0,0.0,0.0,0.0,0.0,0.0,0.0,0.0,0.0,-2.0904,-2.3728,-2.568,-2.6453,-2.4186,-2.2553,0.0,0.0,0.0,0.0,0.0,0.0,0.0,0.0,0.0,0.0,0.0,0.0,0.0,0.0,0.0,0.0,0.0,0.0,0.0,0.0,0.0,0.0,0.0,0.0,0.0,0.0,0.0,0.0,0.0,0.0,0.0,0.0,0.0,0.0,0.0,0.0,0.0,0.0,0.0,0.0,0.0,0.0,0.0,0.0,0.0,0.0,0.0,0.0,0.0,0.0,0.0,0.0,0.0,0.0,0.0,0.0,0.0,0.0,0.0,0.0,0.0,0.0,0.0,0.0,0.0,0.0,0.0,0.0,0.0,0.0,0.0,0.0,0.0,0.0,0.0,0.0,0.0,0.0,0.0,0.0,0.0,0.0,0.0,0.0,0.0,0.0,0.0,0.0,0.0,0.0,0.0,0.0,0.0,0.0,0.0,0.0,0.0,0.0,0.0,0.0,0.0,0.0,0.0,0.0,0.0,0.0,0.0,0.0,0.0,-2.1998,0.0,-2.7457,-2.7009,-2.5082,-2.3137,0.0,0.0,0.0,0.0,0.0,0.0,0.0,0.0,0.0,0.0,0.0,0.0,0.0,0.0,0.0,0.0,0.0,0.0,0.0,0.0,0.0,0.0,0.0,0.0,0.0,0.0,0.0,0.0,0.0,0.0,0.0,0.0,0.0,0.0,0.0,0.0,0.0,0.0,0.0,0.0,0.0,0.0,0.0,0.0,0.0,0.0,0.0,0.0,0.0,0.0,0.0,0.0,0.0,0.0,0.0,0.0,0.0,0.0,0.0,0.0,0.0,0.0,0.0,0.0,0.0,0.0,0.0,0.0,0.0,0.0,0.0,0.0,0.0,0.0,0.0,0.0,0.0,0.0,0.0,0.0,0.0,0.0,0.0,0.0,0.0,0.0,0.0,0.0,0.0,0.0,0.0,0.0,0.0,0.0,0.0,0.0,0.0,0.0,0.0,0.0,0.0,0.0,0.0,0.0,0.0,0.0,0.0,0.0,-2.257,-2.748,-2.9975,-3.0303,-2.8565,-2.6134,-2.2986,0.0,0.0,0.0,0.0,0.0,0.0,0.0,0.0,0.0,0.0,0.0,0.0,0.0,0.0,0.0,0.0,0.0,0.0,0.0,0.0,0.0,0.0,0.0,0.0,0.0,0.0,0.0,0.0,0.0,0.0,0.0,0.0,0.0,0.0,0.0,0.0,0.0,0.0,0.0,0.0,0.0,0.0,0.0,0.0,0.0,0.0,0.0,0.0,0.0,0.0,0.0,0.0,0.0,0.0,0.0,0.0,0.0,0.0,0.0,0.0,0.0,0.0,0.0,0.0,0.0,0.0,0.0,0.0,0.0,0.0,0.0,0.0,0.0,0.0,0.0,0.0,0.0,0.0,0.0,0.0,0.0,0.0,0.0,0.0,0.0,0.0,0.0,0.0,0.0,0.0,0.0,0.0,0.0,0.0,0.0,0.0,0.0,0.0,0.0,0.0,0.0,0.0,0.0,0.0,0.0,0.0,0.0,0.0,0.0,-2.6193,-2.9187,-3.0849,-3.0826,-2.6674,-2.4154,0.0,0.0,0.0,0.0,0.0,0.0,0.0,0.0,0.0,0.0,0.0,0.0,0.0,0.0,0.0,0.0,0.0,0.0,0.0,0.0,0.0,0.0,0.0,0.0,0.0,0.0,0.0,0.0,0.0,0.0,0.0,0.0,0.0,0.0,0.0,0.0,0.0,0.0,0.0,0.0,0.0,0.0,0.0,0.0,0.0,0.0,0.0,0.0,0.0,0.0,0.0,0.0,0.0,0.0,0.0,0.0,0.0,0.0,0.0,0.0,0.0,0.0,0.0,0.0,0.0,0.0,0.0,0.0,0.0,0.0,0.0,0.0,0.0,0.0,0.0,0.0,0.0,0.0,0.0,0.0,0.0,0.0,0.0,0.0,0.0,0.0,0.0,0.0,0.0,0.0,0.0,0.0,0.0,0.0,0.0,0.0,0.0,0.0,0.0,0.0,0.0,0.0,0.0,0.0,0.0,0.0,0.0,0.0,0.0,-2.8446,-3.1618,-3.328,-3.3128,-2.8765,-2.5819,-2.4552,0.0,0.0,0.0,0.0,0.0,0.0,0.0,0.0,0.0,0.0,0.0,0.0,0.0,0.0,0.0,0.0,0.0,0.0,0.0,0.0,0.0,0.0,0.0,0.0,0.0,0.0,0.0,0.0,0.0,0.0,0.0,0.0,0.0,0.0,0.0,0.0,0.0,0.0,0.0,0.0,0.0,0.0,0.0,0.0,0.0,0.0,0.0,0.0,0.0,0.0,0.0,0.0,0.0,0.0,0.0,0.0,0.0,0.0,0.0,0.0,0.0,0.0,0.0,0.0,0.0,0.0,0.0,0.0,0.0,0.0,0.0,0.0,0.0,0.0,0.0,0.0,0.0,0.0,0.0,0.0,0.0,0.0,0.0,0.0,0.0,0.0,0.0,0.0,0.0,0.0,0.0,0.0,0.0,0.0,0.0,0.0,0.0,0.0,0.0,0.0,0.0,0.0,0.0,0.0,0.0,0.0,0.0,0.0,-3.3232,-3.6584,-3.7259,-3.5117,-3.1939,-2.7885,0.0,0.0,0.0,0.0,0.0,0.0,0.0,0.0,0.0,0.0,0.0,0.0,0.0,0.0,0.0,0.0,0.0,0.0,0.0,0.0,0.0,0.0,0.0,0.0,0.0,0.0,0.0,0.0,0.0,0.0,0.0,0.0,0.0,0.0,0.0,0.0,0.0,0.0,0.0,0.0,0.0,0.0,0.0,0.0,0.0,0.0,0.0,0.0,0.0,0.0,0.0,0.0,0.0,0.0,0.0,0.0,0.0,0.0,0.0,0.0,0.0,0.0,0.0,0.0,0.0,0.0,0.0,0.0,0.0,0.0,0.0,0.0,0.0,0.0,0.0,0.0,0.0,0.0,0.0,0.0,0.0,0.0,0.0,0.0,0.0,0.0,0.0,0.0,0.0,0.0,0.0,0.0,0.0,0.0,0.0,0.0,0.0,0.0,0.0,0.0,0.0,0.0,0.0,0.0,0.0,0.0,0.0,0.0,0.0,-3.5027,-3.8354,-3.9239,-3.7389,-3.2797,-2.9167,0.0,0.0,0.0,0.0,0.0,0.0,0.0,0.0,0.0,0.0,0.0,0.0,0.0,0.0,0.0,0.0,0.0,0.0,0.0,0.0,0.0,0.0,0.0,0.0,0.0,0.0,0.0,0.0,0.0,0.0,0.0,0.0,0.0,0.0,0.0,0.0,0.0,0.0,0.0,0.0,0.0,0.0,0.0,0.0,0.0,0.0,0.0,0.0,0.0,0.0,0.0,0.0,0.0,0.0,0.0,0.0,0.0,0.0,0.0,0.0,0.0,0.0,0.0,0.0,0.0,0.0,0.0,0.0,0.0,0.0,0.0,0.0,0.0,0.0,0.0,0.0,0.0,0.0,0.0,0.0,0.0,0.0,0.0,0.0,0.0,0.0,0.0,0.0,0.0,0.0,0.0,0.0,0.0,0.0,0.0,0.0,0.0,0.0,0.0,0.0,0.0,0.0,0.0,0.0,0.0,0.0,0.0,0.0,-3.3432,-3.6156,-3.9229,-4.0364,-3.9396,-3.5067,-3.1199,0.0,0.0,0.0,0.0,0.0,0.0,0.0,0.0,0.0,0.0,0.0,0.0,0.0,0.0,0.0,0.0,0.0,0.0,0.0,0.0,0.0,0.0,0.0,0.0,0.0,0.0,0.0,0.0,0.0,0.0,0.0,0.0,0.0,0.0,0.0,0.0,0.0,0.0,0.0,0.0,0.0,0.0,0.0,0.0,0.0,0.0,0.0,0.0,0.0,0.0,0.0,0.0,0.0,0.0,0.0,0.0,0.0,0.0,0.0,0.0,0.0,0.0,0.0,0.0,0.0,0.0,0.0,0.0,0.0,0.0,0.0,0.0,0.0,0.0,0.0,0.0,0.0,0.0,0.0,0.0,0.0,0.0,0.0,0.0,0.0,0.0,0.0,0.0,0.0,0.0,0.0,0.0,0.0,0.0,0.0,0.0,0.0,0.0,0.0,0.0,0.0,0.0,0.0,0.0,0.0,0.0,0.0,0.0,-3.3625,-3.672,-3.9321,-4.0635,-4.0537,-3.7617,-3.3369,0.0,0.0,0.0,0.0,0.0,0.0,0.0,0.0,0.0,0.0,0.0,0.0,0.0,0.0,0.0,0.0,0.0,0.0,0.0,0.0,0.0,0.0,0.0,0.0,0.0,0.0,0.0,0.0,0.0,0.0,0.0,0.0,0.0,0.0,0.0,0.0,0.0,0.0,0.0,0.0,0.0,0.0,0.0,0.0,0.0,0.0,0.0,0.0,0.0,0.0,0.0,0.0,0.0,0.0,0.0,0.0,0.0,0.0,0.0,0.0,0.0,0.0,0.0,0.0,0.0,0.0,0.0,0.0,0.0,0.0,0.0,0.0,0.0,0.0,0.0,0.0,0.0,0.0,0.0,0.0,0.0,0.0,0.0,0.0,0.0,0.0,0.0,0.0,0.0,0.0,0.0,0.0,0.0,0.0,0.0,0.0,0.0,0.0,0.0,0.0,0.0,0.0,0.0,0.0,0.0,0.0,0.0,0.0,-3.3348,-3.5917,-3.8458,-3.9482,-3.8867,-3.6435,-3.3159,0.0,0.0,0.0,0.0,0.0,0.0,0.0,0.0,0.0,0.0,0.0,0.0,0.0,0.0,0.0,0.0,0.0,0.0,0.0,0.0,0.0,0.0,0.0,0.0,0.0,0.0,0.0,0.0,0.0,0.0,0.0,0.0,0.0,0.0,0.0,0.0,0.0,0.0,0.0,0.0,0.0,0.0,0.0,0.0,0.0,0.0,0.0,0.0,-2.2314,0.0,0.0,0.0,0.0,0.0,0.0,0.0,0.0,0.0,0.0,0.0,0.0,0.0,0.0,0.0,0.0,0.0,0.0,0.0,0.0,0.0,0.0,0.0,0.0,0.0,0.0,0.0,0.0,0.0,0.0,0.0,0.0,0.0,0.0,0.0,0.0,0.0,0.0,0.0,0.0,0.0,0.0,0.0,0.0,0.0,0.0,0.0,0.0,0.0,0.0,0.0,0.0,0.0,0.0,0.0,0.0,0.0,0.0,0.0,-3.3448,-3.6231,-3.7977,-3.8849,-3.8829,-3.6739,-3.3716,0.0,0.0,0.0,0.0,0.0,0.0,0.0,0.0,0.0,0.0,0.0,0.0,0.0,0.0,0.0,0.0,0.0,0.0,0.0,0.0,0.0,0.0,0.0,0.0,0.0,0.0,0.0,0.0,0.0,0.0,0.0,0.0,0.0,0.0,0.0,0.0,0.0,0.0,0.0,0.0,0.0,0.0,0.0,0.0,0.0,0.0,0.0,0.0,0.0,0.0,0.0,0.0,0.0,0.0,0.0,0.0,0.0,0.0,0.0,0.0,0.0,0.0,0.0,0.0,0.0,0.0,0.0,0.0,0.0,0.0,0.0,0.0,0.0,0.0,0.0,0.0,0.0,0.0,0.0,0.0,0.0,0.0,0.0,0.0,0.0,0.0,0.0,0.0,0.0,0.0,0.0,0.0,0.0,0.0,0.0,0.0,0.0,0.0,0.0,0.0,0.0,0.0,0.0,0.0,0.0,0.0,0.0,-3.1321,-3.357,-3.6666,-3.7514,-3.8281,-3.898,-3.7199,-3.432,-3.0343,0.0,0.0,0.0,0.0,0.0,0.0,0.0,0.0,0.0,0.0,0.0,0.0,0.0,0.0,0.0,0.0,0.0,0.0,0.0,0.0,0.0,0.0,0.0,0.0,0.0,0.0,0.0,0.0,0.0,0.0,0.0,0.0,0.0,0.0,0.0,0.0,0.0,0.0,-2.4904,-2.6266,0.0,0.0,0.0,0.0,0.0,0.0,0.0,0.0,-2.8135,0.0,0.0,0.0,0.0,0.0,0.0,0.0,0.0,0.0,0.0,0.0,0.0,0.0,0.0,0.0,0.0,0.0,0.0,0.0,0.0,0.0,0.0,0.0,0.0,0.0,0.0,0.0,0.0,0.0,0.0,0.0,0.0,0.0,0.0,0.0,0.0,0.0,0.0,0.0,0.0,0.0,0.0,0.0,0.0,0.0,0.0,0.0,0.0,0.0,0.0,0.0,0.0,0.0,0.0,0.0,0.0,-3.1621,-3.1897,-3.3259,-3.5849,-3.6635,-3.6857,-3.6526,-3.601,-3.3961,-3.0277,0.0,0.0,0.0,0.0,0.0,0.0,0.0,0.0,0.0,0.0,0.0,0.0,0.0,0.0,0.0,0.0,0.0,0.0,0.0,0.0,0.0,0.0,0.0,0.0,0.0,0.0,0.0,0.0,0.0,0.0,0.0,0.0,0.0,0.0,0.0,0.0,0.0,0.0,0.0,-2.9499,-3.0052,0.0,0.0,0.0,0.0,0.0,0.0,0.0,0.0,-2.9552,0.0,0.0,0.0,0.0,0.0,0.0,0.0,0.0,0.0,0.0,0.0,0.0,0.0,0.0,0.0,0.0,0.0,0.0,0.0,0.0,0.0,0.0,0.0,0.0,0.0,0.0,0.0,0.0,0.0,0.0,0.0,0.0,0.0,0.0,0.0,0.0,0.0,0.0,0.0,0.0,0.0,0.0,0.0,0.0,0.0,0.0,0.0,0.0,0.0,0.0,0.0,0.0,0.0,0.0,0.0,-3.1204,-3.26,-3.4237,-3.6241,-3.6466,-3.653,-3.6467,-3.5371,-3.3132,0.0,0.0,0.0,0.0,0.0,0.0,0.0,0.0,0.0,0.0,0.0,0.0,0.0,0.0,0.0,0.0,0.0,0.0,0.0,0.0,0.0,0.0,0.0,0.0,0.0,0.0,0.0,0.0,0.0,0.0,0.0,0.0,0.0,0.0,0.0,0.0,0.0,0.0,0.0,0.0,-3.097,-3.1836,-3.4179,0.0,0.0,0.0,0.0,0.0,0.0,-3.0809,-3.0658,0.0,0.0,0.0,0.0,0.0,0.0,0.0,0.0,0.0,0.0,0.0,0.0,0.0,0.0,0.0,0.0,0.0,0.0,0.0,0.0,0.0,0.0,0.0,0.0,0.0,0.0,0.0,0.0,0.0,0.0,0.0,0.0,0.0,0.0,0.0,0.0,0.0,0.0,0.0,0.0,0.0,0.0,0.0,0.0,0.0,0.0,0.0,0.0,0.0,0.0,0.0,0.0,0.0,0.0,0.0,-3.036,-3.3031,-3.5085,-3.6462,-3.6208,-3.6198,-3.65,-3.4487,-3.2109,0.0,0.0,0.0,0.0,0.0,0.0,0.0,0.0,0.0,0.0,0.0,0.0,0.0,0.0,0.0,0.0,0.0,0.0,0.0,0.0,0.0,0.0,0.0,0.0,0.0,0.0,0.0,0.0,0.0,0.0,0.0,0.0,0.0,0.0,0.0,0.0,0.0,0.0,0.0,0.0,0.0,-3.3686,-3.6394,-3.3611,0.0,0.0,0.0,0.0,-3.1156,-3.233,0.0,0.0,0.0,0.0,0.0,0.0,0.0,0.0,0.0,0.0,0.0,0.0,0.0,0.0,0.0,0.0,0.0,0.0,0.0,0.0,0.0,0.0,0.0,0.0,0.0,0.0,0.0,0.0,0.0,0.0,0.0,0.0,0.0,0.0,0.0,0.0,0.0,0.0,0.0,0.0,0.0,0.0,0.0,0.0,0.0,0.0,0.0,0.0,0.0,0.0,0.0,0.0,0.0,0.0,0.0,0.0,-2.9332,-3.2615,-3.4654,-3.5341,-3.5245,-3.4983,-3.46,-3.2558,-3.0948,0.0,0.0,0.0,0.0,0.0,0.0,0.0,0.0,0.0,0.0,0.0,0.0,0.0,0.0,0.0,0.0,0.0,0.0,0.0,0.0,0.0,0.0,0.0,0.0,0.0,0.0,0.0,0.0,0.0,0.0,0.0,0.0,0.0,0.0,0.0,0.0,0.0,0.0,0.0,0.0,0.0,-3.5931,-3.5958,-3.4254,-3.3043,0.0,0.0,-3.4248,-3.4565,-3.5698,0.0,0.0,0.0,0.0,0.0,0.0,0.0,0.0,0.0,0.0,0.0,0.0,0.0,0.0,0.0,0.0,0.0,0.0,0.0,0.0,0.0,0.0,0.0,0.0,0.0,0.0,0.0,0.0,0.0,0.0,0.0,0.0,0.0,0.0,0.0,0.0,0.0,0.0,0.0,0.0,0.0,0.0,0.0,0.0,0.0,0.0,0.0,0.0,0.0,0.0,0.0,0.0,0.0,0.0,0.0,-2.7931,-2.9193,-3.2863,-3.4666,-3.4412,-3.451,-3.4449,-3.4246,-3.2137,-3.0522,0.0,0.0,0.0,0.0,0.0,0.0,0.0,0.0,0.0,0.0,0.0,0.0,0.0,0.0,0.0,0.0,0.0,0.0,0.0,0.0,0.0,0.0,0.0,0.0,0.0,0.0,0.0,0.0,0.0,0.0,0.0,0.0,0.0,0.0,0.0,0.0,0.0,0.0,0.0,0.0,0.0,0.0,-3.7073,-3.5814,0.0,0.0,0.0,-3.5182,-3.4805,0.0,0.0,0.0,0.0,0.0,0.0,0.0,0.0,0.0,0.0,0.0,0.0,0.0,0.0,0.0,0.0,0.0,0.0,0.0,0.0,0.0,0.0,0.0,0.0,0.0,0.0,0.0,0.0,0.0,0.0,0.0,0.0,0.0,0.0,0.0,0.0,0.0,0.0,0.0,0.0,0.0,0.0,0.0,0.0,0.0,0.0,0.0,0.0,0.0,0.0,0.0,0.0,0.0,0.0,0.0,0.0,0.0,-2.9761,-3.3044,-3.4318,-3.3466,-3.3733,-3.3873,-3.3783,-3.2028,0.0,0.0,0.0,0.0,0.0,0.0,0.0,0.0,0.0,0.0,0.0,0.0,0.0,0.0,0.0,0.0,0.0,0.0,0.0,0.0,0.0,0.0,0.0,0.0,0.0,0.0,0.0,-2.2642,0.0,0.0,0.0,0.0,0.0,0.0,0.0,0.0,0.0,0.0,0.0,0.0,0.0,0.0,-3.6157,-3.7741,-3.6923,-3.6557,0.0,0.0,-3.6085,-3.565,-3.6589,-3.644,0.0,0.0,0.0,0.0,0.0,0.0,0.0,0.0,0.0,0.0,0.0,0.0,0.0,0.0,0.0,0.0,0.0,0.0,0.0,0.0,0.0,0.0,0.0,0.0,0.0,0.0,0.0,0.0,0.0,0.0,0.0,0.0,0.0,0.0,0.0,0.0,0.0,0.0,0.0,0.0,0.0,0.0,0.0,0.0,0.0,0.0,0.0,0.0,0.0,0.0,0.0,0.0,0.0,0.0,-2.8621,-3.1377,-3.2805,-3.3126,-3.2362,-3.2803,-3.2961,-3.2684,-3.1975,-3.0772,0.0,0.0,0.0,0.0,0.0,0.0,0.0,0.0,0.0,0.0,0.0,0.0,0.0,0.0,0.0,0.0,0.0,0.0,0.0,0.0,0.0,0.0,0.0,0.0,0.0,0.0,0.0,0.0,0.0,0.0,0.0,0.0,0.0,0.0,0.0,0.0,0.0,0.0,0.0,0.0,0.0,-3.6473,-3.693,-3.6968,-3.7549,0.0,-3.8153,-3.748,-3.859,-3.9052,-3.8732,-3.7003,0.0,0.0,0.0,0.0,0.0,0.0,0.0,0.0,0.0,0.0,0.0,0.0,0.0,0.0,0.0,0.0,0.0,0.0,0.0,0.0,0.0,0.0,0.0,0.0,0.0,0.0,0.0,0.0,0.0,0.0,0.0,0.0,0.0,0.0,0.0,0.0,0.0,0.0,0.0,0.0,0.0,0.0,0.0,0.0,0.0,0.0,0.0,0.0,0.0,0.0,0.0,0.0,0.0,-2.7508,-2.8703,-3.1108,-3.1958,-3.1247,-3.2133,-3.2488,-3.2237,-3.1332,-3.0254,0.0,0.0,0.0,0.0,0.0,0.0,0.0,0.0,0.0,0.0,0.0,0.0,0.0,0.0,0.0,0.0,0.0,0.0,0.0,0.0,0.0,0.0,0.0,0.0,0.0,0.0,0.0,0.0,-2.6903,-2.7204,-2.6763,0.0,0.0,0.0,0.0,0.0,0.0,0.0,0.0,0.0,0.0,-3.6953,-3.8259,-3.8922,0.0,0.0,-3.9524,-3.9087,-3.8027,-3.8784,-3.8573,-3.5817,-3.4568,0.0,0.0,0.0,0.0,0.0,0.0,0.0,0.0,0.0,0.0,0.0,0.0,0.0,0.0,0.0,0.0,0.0,0.0,0.0,0.0,0.0,0.0,0.0,0.0,0.0,0.0,0.0,0.0,0.0,0.0,0.0,0.0,0.0,0.0,0.0,0.0,0.0,0.0,0.0,0.0,0.0,0.0,0.0,0.0,0.0,0.0,0.0,0.0,0.0,0.0,0.0,0.0,-2.7082,-2.7114,-2.9848,-3.087,-3.0094,-3.1147,-3.1542,-3.1105,-3.0759,-2.9894,0.0,0.0,0.0,0.0,0.0,0.0,0.0,0.0,0.0,0.0,0.0,0.0,0.0,0.0,0.0,0.0,0.0,0.0,0.0,0.0,0.0,0.0,0.0,0.0,0.0,0.0,0.0,0.0,-2.8668,-2.8661,-2.7902,0.0,0.0,0.0,0.0,0.0,0.0,0.0,0.0,0.0,0.0,-3.7379,-3.8777,-3.9503,-3.9801,-3.9509,-3.9593,-3.9351,-3.8361,-3.8736,-3.8244,-3.5618,0.0,0.0,0.0,0.0,0.0,0.0,0.0,0.0,0.0,0.0,0.0,0.0,0.0,0.0,0.0,0.0,0.0,0.0,0.0,0.0,0.0,0.0,0.0,0.0,0.0,0.0,0.0,-2.2125,0.0,0.0,-2.0797,0.0,0.0,0.0,0.0,0.0,0.0,0.0,0.0,0.0,0.0,0.0,0.0,0.0,0.0,0.0,0.0,0.0,0.0,0.0,0.0,0.0,0.0,-2.7599,-2.7601,-2.9296,-2.9821,-2.9101,-2.9827,-2.988,-2.9165,-3.0299,-2.9904,-2.7677,0.0,0.0,0.0,0.0,0.0,0.0,0.0,0.0,0.0,0.0,0.0,0.0,0.0,0.0,0.0,0.0,0.0,0.0,0.0,0.0,0.0,0.0,0.0,0.0,0.0,0.0,-2.8264,-2.8229,-2.7925,0.0,0.0,0.0,0.0,0.0,0.0,0.0,0.0,0.0,-3.3949,-3.6151,-3.7753,-3.7993,-3.8075,-3.8504,-3.9298,-3.8112,-3.7879,-4.0225,-3.9331,-3.8098,0.0,0.0,0.0,0.0,0.0,0.0,0.0,0.0,0.0,0.0,0.0,0.0,0.0,0.0,0.0,0.0,0.0,0.0,0.0,0.0,0.0,0.0,0.0,0.0,0.0,0.0,0.0,-2.3378,-2.2912,0.0,0.0,0.0,0.0,0.0,0.0,0.0,0.0,0.0,0.0,0.0,-2.4156,-2.5179,0.0,0.0,0.0,0.0,0.0,0.0,0.0,0.0,0.0,0.0,0.0,0.0,-2.6243,-2.6772,-2.7877,-2.8388,-2.8235,-2.8946,-2.9136,-2.869,-2.9112,-2.8247,-2.5888,0.0,0.0,0.0,0.0,0.0,0.0,0.0,0.0,0.0,0.0,0.0,0.0,0.0,0.0,0.0,0.0,0.0,0.0,0.0,0.0,0.0,0.0,0.0,0.0,0.0,-3.0505,0.0,0.0,0.0,0.0,0.0,0.0,0.0,0.0,0.0,0.0,-3.2424,-3.3162,-3.5151,-3.6317,-3.7127,-3.7594,-3.8786,-3.9707,0.0,0.0,0.0,0.0,0.0,0.0,0.0,0.0,0.0,0.0,0.0,0.0,0.0,0.0,-3.7886,-3.602,-3.5203,-3.4837,-3.4852,0.0,0.0,0.0,0.0,0.0,0.0,0.0,0.0,0.0,0.0,0.0,0.0,0.0,0.0,-2.4728,-2.4301,-2.4181,0.0,0.0,0.0,0.0,0.0,0.0,0.0,0.0,-2.3876,-2.4977,-2.5603,-2.6318,-2.6383,-2.5798,-2.6047,-2.5149,0.0,0.0,0.0,0.0,0.0,0.0,0.0,0.0,-2.5799,-2.5956,-2.7023,-2.7532,-2.7386,-2.8066,-2.8246,-2.7841,-2.7922,-2.6943,-2.491,-2.3882,-2.2869,0.0,0.0,0.0,0.0,0.0,0.0,0.0,0.0,0.0,0.0,0.0,0.0,0.0,0.0,0.0,0.0,0.0,0.0,0.0,0.0,0.0,0.0,0.0,-3.1549,0.0,0.0,0.0,0.0,0.0,0.0,0.0,0.0,0.0,-3.3393,-3.3165,-3.3676,-3.5875,-3.6592,-3.6948,-3.7033,0.0,0.0,0.0,0.0,0.0,0.0,0.0,-3.7401,-3.5762,-3.7165,-3.84,-3.8059,-3.9129,-4.0062,-4.0242,0.0,0.0,-3.7992,-3.7007,-3.6532,-3.6794,-3.7017,-3.6996,-3.6532,-3.6801,-3.6859,0.0,0.0,0.0,0.0,-2.4808,0.0,0.0,0.0,-2.5845,-2.5954,0.0,-2.5026,0.0,0.0,0.0,0.0,-2.0698,-2.2906,0.0,0.0,-2.5585,-2.659,-2.6304,-2.641,-2.6573,-2.6856,-2.6899,-2.6365,-2.5354,-2.4984,0.0,0.0,0.0,0.0,0.0,0.0,-2.6262,-2.5363,-2.6785,-2.7205,-2.657,-2.719,-2.7259,-2.6657,-2.6792,-2.6177,-2.4838,-2.4842,-2.4305,-2.3079,-2.2395,0.0,0.0,0.0,0.0,0.0,0.0,0.0,0.0,0.0,0.0,0.0,0.0,0.0,0.0,0.0,0.0,0.0,0.0,0.0,0.0,-3.16,0.0,0.0,0.0,0.0,0.0,0.0,0.0,0.0,0.0,-3.2543,-3.3525,-3.3507,-3.415,-3.6026,0.0,0.0,0.0,0.0,-3.728,-3.6733,-3.5921,-3.578,-3.6638,-3.7389,-3.7868,-3.783,0.0,0.0,-4.046,-3.9565,-3.8784,-3.7965,-3.8499,-3.9395,-4.1184,-3.9557,-3.8331,-3.8962,-3.8469,-3.7945,-3.7983,-3.7863,-3.7416,-2.6501,0.0,0.0,0.0,0.0,-2.5731,-2.6435,-2.781,-2.7565,-2.7279,-2.687,-2.6134,0.0,0.0,0.0,0.0,0.0,0.0,-2.341,-2.4132,-2.5064,-2.5801,-2.6552,-2.6649,-2.639,-2.5785,-2.6257,-2.607,-2.5236,-2.5101,-2.4545,-2.354,0.0,0.0,0.0,0.0,-2.5449,-2.6119,-2.6678,-2.6825,-2.6502,-2.6721,-2.6738,-2.6589,-2.625,-2.5839,-2.5414,-2.5073,-2.468,-2.4215,-2.3782,0.0,0.0,0.0,0.0,0.0,0.0,0.0,0.0,0.0,0.0,0.0,0.0,0.0,0.0,0.0,0.0,0.0,0.0,0.0,-3.1711,-3.1949,-3.1638,0.0,0.0,0.0,0.0,0.0,0.0,0.0,0.0,0.0,-3.3966,-3.3053,-3.3122,0.0,0.0,-3.443,-3.4582,-3.5974,-3.7212,-3.7826,-3.7675,0.0,-3.8994,-3.8326,-3.7678,-3.7695,-3.8765,-3.9929,-4.0921,-4.0367,-4.006,-4.0836,-3.9848,-3.9144,-4.0099,-3.9967,-3.9563,-3.9774,-3.9623,-3.9242,-3.8704,-3.8516,-3.8226,-2.7524,-2.6842,-2.5659,-2.5788,-2.6711,-2.656,-2.7304,-2.8546,-2.8152,-2.7886,-2.7735,-2.6924,-2.5873,-2.4598,-2.3057,0.0,0.0,0.0,-2.3558,-2.4619,-2.4818,-2.5322,-2.6109,-2.5985,-2.564,-2.5039,-2.5214,-2.5102,-2.4694,-2.4671,-2.4381,-2.3959,0.0,-2.3911,-2.4104,-2.4548,-2.5049,-2.5625,-2.5999,-2.6237,-2.6362,-2.6399,-2.6434,-2.6469,-2.5932,-2.5609,-2.5641,-2.5084,-2.4842,-2.5071,-2.4642,-2.4188,0.0,0.0,0.0,0.0,0.0,0.0,0.0,0.0,0.0,0.0,0.0,-2.714,-2.6592,0.0,0.0,0.0,-3.0456,-3.1558,-3.1541,-3.1841,0.0,0.0,0.0,0.0,0.0,0.0,0.0,-3.2897,-3.2751,-3.2972,-3.3783,-3.2525,-3.2495,-3.4964,-3.4216,-3.356,-3.3899,0.0,-3.6323,-3.672,-3.6861,-3.7192,-3.7889,-3.7509,-3.7204,-3.7547,-3.7966,-3.8575,-3.9584,-3.9373,-3.939,-4.0032,-3.9254,-3.8379,-3.8812,-3.8988,-3.9048,-3.9029,-3.9029,-3.8839,-3.8326,-3.7984,-3.7566,-2.8333,-2.8242,-2.6621,-2.6459,-2.7357,-2.738,-2.7867,-2.8468,-2.7836,-2.7863,-2.8255,-2.7229,-2.633,-2.554,-2.3737,0.0,-2.2947,-2.3301,-2.3825,-2.4541,-2.4682,-2.4938,-2.5153,-2.4657,-2.44,-2.44,-2.3891,-2.3772,-2.3884,-2.3882,-2.391,-2.3979,-2.5121,-2.4888,-2.3393,-2.4353,-2.4694,-2.4292,-2.5008,-2.5626,-2.6184,-2.6277,-2.6312,-2.6295,-2.5832,-2.5596,-2.5563,-2.5082,-2.5062,-2.5658,-2.5186,-2.4978,-2.5063,0.0,0.0,0.0,0.0,0.0,0.0,0.0,0.0,0.0,0.0,0.0,0.0,0.0,0.0,-2.9508,-3.0282,0.0,-3.0984,-3.1592,0.0,0.0,0.0,-3.248,-3.3686,-3.4112,-3.4108,-3.365,0.0,0.0,-3.3163,-3.1979,-3.2096,-3.471,-3.4315,-3.3776,-3.3868,-3.4621,-3.4925,-3.4525,-3.4642,-3.4881,-3.54,-3.5989,-3.6768,-3.7452,-3.7528,-3.7584,-3.7603,-3.745,-3.7334,-3.7599,-3.7315,-3.7182,-3.7182,-3.7144,-3.7068,-3.6936,-3.7259,-3.743,-3.7183,-3.6613,-3.5894,-2.7477,-2.8239,-2.6283,-2.668,-2.8479,-2.7776,-2.7723,-2.7999,-2.6961,-2.6426,-2.6114,-2.5402,-2.4265,-2.2811,-2.2104,-2.167,-2.1441,-2.2472,-2.297,-2.3123,-2.3304,-2.349,-2.3491,-2.2996,-2.2759,-2.2759,-2.2621,-2.2809,-2.3158,-2.3479,-2.336,-2.2944,-2.3802,-2.395,-2.3439,-2.2892,-2.3146,-2.4284,-2.4721,-2.5339,-2.6168,-2.6277,-2.6312,-2.6295,-2.6335,-2.6337,-2.6337,-2.6335,-2.6434,-2.6652,-2.6716,-2.6528,-2.6083,-2.5057,0.0,0.0,0.0,0.0,0.0,0.0,0.0,0.0,0.0,-2.8623,-2.6302,0.0,-3.0602,0.0,-3.0444,-3.22,-3.3468,-3.318,0.0,0.0,-3.3354,-3.3569,-3.325,-3.4299,-3.445,-3.2961,-3.2689,-3.2656,-3.2683,-3.1436,-3.1336,-3.3497,-3.3149,-3.2829,-3.3429,-3.4211,-3.4767,-3.4755,-3.5258,-3.5963,-3.6209,-3.6785,-3.7128,-3.7471,-3.7451,-3.745,-3.7489,-3.6919,-3.667,-3.7144,-3.631,-3.5609,-3.5495,-3.5022,-3.4377,-3.3941,-3.559,-3.6992,-3.5799,-3.5286,-3.4679,-2.6325,-2.6898,-2.5517,-2.579,-2.7092,-2.6918,-2.6953,-2.7092,-2.6334,-2.5804,-2.5434,-2.473,-2.3535,-2.2055,-2.1811,-2.1407,-2.0939,-2.1375,-2.1578,-2.1607,-2.1549,-2.1607,-2.1834,-2.1608,-2.162,-2.1849,-2.1837,-2.1958,-2.2249,-2.2689,-2.2585,-2.1966,-2.263,-2.2862,-2.258,-2.2083,-2.2302,-2.3259,-2.4241,-2.5206,-2.6168,-2.6222,-2.6127,-2.5829,-2.5614,-2.558,-2.5663,-2.5612,-2.5764,-2.6134,-2.6446,-2.6437,-2.6036,-2.5227,-2.4645,0.0,0.0,0.0,0.0,0.0,0.0,0.0,0.0,0.0,0.0,0.0,-3.1511,-3.0183,-3.0898,-3.1969,-3.3344,-3.259,-3.2126,-3.2441,-3.2871,-3.3222,-3.3462,-3.426,-3.4496,-3.3818,-3.3521,-3.3259,-3.287,-3.194,-3.1524,-3.2311,-3.1992,-3.2117,-3.3085,-3.323,-3.3154,-3.3616,-3.4202,-3.4752,-3.5237,-3.5131,-3.5095,-3.5192,-3.5192,-3.5211,-3.5211,-3.4832,-3.4661,-3.5003,-3.4415,-3.379,-3.3771,-3.3449,-3.2919,-3.2769,-3.381,-3.4642,-3.3942,-3.3393,-3.2712,-2.5193,-2.5168,-2.456,-2.4446,-2.467,-2.5362,-2.5672,-2.5714,-2.536,-2.5124,-2.4971,-2.4109,-2.3049,-2.1936,-2.1856,-2.1385,-2.0643,-2.0216,-2.0161,-2.0285,-1.9886,-1.9983,-2.0622,-2.061,-2.0863,-2.1296,-2.138,-2.1404,-2.1404,-2.1888,-2.1798,-2.1244,-2.1747,-2.1745,-2.1342,-2.1464,-2.1745,-2.2118,-2.3713,-2.504,-2.6019,-2.5971,-2.5658,-2.5063,-2.4544,-2.432,-2.4461,-2.419,-2.4348,-2.5066,-2.5447,-2.5648,-2.5735,-2.5129,-2.489,0.0,-2.4681,0.0,0.0,0.0,0.0,0.0,0.0,0.0,0.0,-3.2109,-3.1975,-3.2467,-3.1591,-3.1418,-3.2387,-3.1583,-3.1232,-3.1804,-3.1961,-3.259,-3.3909,-3.4197,-3.452,-3.5174,-3.4756,-3.4139,-3.3449,-3.281,-3.2036,-3.1692,-3.1374,-3.171,-3.2788,-3.2045,-3.1411,-3.1974,-3.2245,-3.2767,-3.3022,-3.2629,-3.2354,-3.241,-3.2635,-3.2406,-3.2596,-3.2558,-3.2482,-3.252,-3.2596,-3.2444,-3.2293,-3.2274,-3.2181,-3.1938,-3.2015,-3.2109,-3.2109,-3.1657,-3.0865,-2.446,-2.4582,-2.3313,-2.3039,-2.3534,-2.3109,-2.3124,-2.3401,-2.2882,-2.2397,-2.1999,-2.1123,-2.059,-2.0322,-2.0079,-1.9624,-1.9186,-1.968,-1.9845,-1.9757,-1.9901,-2.0239,-2.0565,-2.061,-2.067,-2.0791,-2.1211,-2.1404,-2.1404,-2.1888,-2.1555,-2.0531,-2.1092,-2.0955,-2.0227,0.0,0.0,0.0,-2.3729,-2.4632,-2.5258,-2.4796,-2.4447,-2.433,-2.4389,0.0,-2.4495,-2.4526,-2.4741,-2.5174,-2.55,0.0,0.0,0.0,0.0,0.0,0.0,0.0,0.0,0.0,0.0,0.0,-2.992,-2.9244,-2.9104,-2.957,-3.0794,-3.2875,-3.2875,-3.3067,-3.3887,-3.3799,-3.3418,-3.2856,-3.332,-3.3853,-3.418,-3.4735,-3.5117,-3.4888,-3.4168,-3.3658,-3.3542,-3.2463,-3.196,-3.2692,-3.2017,-3.1609,-3.2402,-3.161,-3.1048,-3.1165,-3.1334,-3.1555,-3.1721,-3.1896,-3.1879,-3.2165,-3.2297,-3.2313,-3.2274,-3.2293,-3.2368,-3.233,-3.2406,-3.2141,-3.1572,-3.1421,-3.1214,-3.0516,-3.0317,-3.0377,-3.1017,-3.0996,-3.0617,-2.3496,-2.3397,-2.2406,-2.2018,0.0,-2.1442,-2.1251,-2.1396,-2.1515,-2.1095,-2.0388,-2.0183,-1.9845,-1.9408,-1.9595,-1.9119,-1.8311,-1.8973,-1.9097,-1.8669,-1.884,-1.9191,-1.9583,-1.9594,-1.9837,-2.0201,-2.0213,-2.0346,-2.0586,-2.0604,-2.0245,-1.9665,-2.0373,-2.0395,-1.9766,-2.0232,-2.1087,-2.2295,-2.3151,-2.4055,-2.5043,-2.5179,-2.503,-2.4696,-2.4923,0.0,0.0,0.0,0.0,0.0,0.0,0.0,0.0,-2.6822,0.0,-2.7471,-2.7586,-2.7792,-2.8297,-2.9428,-3.0314,-3.0751,-3.0278,-2.979,-2.9402,-3.0173,-3.1315,-3.2718,-3.2349,-3.2363,-3.3292,-3.3267,-3.3131,-3.3059,-3.34,-3.3615,-3.3647,-3.3962,-3.4103,-3.3834,-3.3582,-3.3195,-3.2367,-3.1869,-3.1329,-3.1316,-3.0643,-3.0246,-3.0534,-3.0547,-3.0422,-3.035,-3.0086,-3.0039,-3.0202,-3.0383,-3.0312,-2.9927,-3.0094,-3.0428,-3.0551,-3.057,-3.0682,-3.1061,-3.1157,-3.1004,-3.0701,-3.0568,-3.04,-2.999,-2.9774,-2.9832,-3.0264,-3.0225,-2.9992,-2.2608,-2.2149,-2.1669,-2.1188,-2.0708,-2.0314,-1.9955,-1.9771,-2.0588,0.0,0.0,-1.9807,-1.9467,-1.8763,-1.9254,-1.8873,-1.7806,-1.8348,-1.8331,-1.7723,-1.7755,-1.8041,-1.8506,-1.856,-1.8946,-1.9557,-1.9203,-1.9215,-1.9612,-1.9203,-1.8939,-1.8972,-1.9787,-2.0062,-1.9816,-2.0539,-2.1218,-2.1748,-2.239,-2.3433,-2.4957,-2.5477,-2.5564,-2.5113,-2.5309,-2.5212,-2.4735,-2.5312,-2.5674,-2.58,-2.625,-2.6631,-2.6905,-2.6944,-2.7078,-2.7381,-2.7494,-2.7866,-2.8595,-2.9616,-3.0228,-3.0267,-3.0472,-3.062,-3.0684,-3.1352,-3.1953,-3.2365,-3.1519,-3.1348,-3.2234,-3.2105,-3.2104,-3.2629,-3.2733,-3.2775,-3.2779,-3.2921,-3.2981,-3.2745,-3.3029,-3.2731,-3.125,-3.1302,-3.1017,-2.9782,-2.9679,-2.9229,-2.9101,-2.9464,-2.965,-2.9544,-2.917,-2.873,-2.8662,-2.8507,-2.8088,-2.753,-2.7899,-2.8322,-2.8607,-2.8676,-2.9017,-2.9907,-2.9907,-2.9945,-2.9926,-2.9964,-2.9888,-2.9857,-2.979,-2.9774,-2.9825,-2.9682,-2.953,-2.2127,-2.1658,-2.1166,-2.0686,-2.0238,-2.0107,-1.9706,-1.9105,-1.964,-1.95,-1.8988,-1.8637,-1.8262,-1.7959,-1.8024,-1.7839,-1.7409,-1.8134,-1.817,-1.7711,-1.792,-1.8084,-1.8193,-1.8464,-1.8649,-1.8762,-1.8917,-1.9023,-1.9083,-1.9011,-1.8823,-1.8639,-1.9611,-2.0319,-2.0612,-2.0912,-2.1256,-2.1558,-2.1761,-2.2761,-2.4506,-2.3967,-2.389,-2.4327,-2.4664,-2.4734,-2.4701,-2.5164,-2.55,-2.58,-2.6092,-2.6699,-2.765,-2.7791,-2.8167,-2.8897,-2.9195,-2.9398,-2.9509,-3.0009,-3.0371,-3.053,-3.0569,-3.0629,-3.0695,-3.0813,-3.1202,-3.1952,-3.1875,-3.1941,-3.2049,-3.202,-3.1759,-3.1233,-3.1613,-3.195,-3.1969,-3.2536,-3.2781,-3.2395,-3.2446,-3.2297,-3.1529,-3.1431,-3.1335,-3.1084,-3.054,-3.0619,-2.9783,-2.9271,-2.8887,-2.8775,-2.8703,-2.8323,-2.7743,-2.6838,-2.6532,-2.6804,-2.7257,-2.7856,-2.8487,-2.8657,-2.8995,-2.9756,-2.9888,-2.9907,-2.9907,-2.9907,-2.9937,-3.0019,-2.9972,-2.9991,-3.0034,-2.9915,-2.9815,-2.2029,-2.1549,-2.1057,-2.0587,-2.0085,-2.0009,-1.9533,-1.8924,-1.9083,-1.8775,-1.8218,-1.7988,-1.7775,-1.7531,-1.7648,-1.7427,-1.7155,-1.7599,-1.77,-1.7501,-1.7601,-1.7767,-1.792,-1.8193,-1.8398,-1.859,-1.8453,-1.8466,-1.8466,-1.7718,-1.7497,-1.7933,-1.847,-1.905,-1.9607,-1.9763,-2.0159,-2.0903,-2.2217,-2.341,-2.4466,-2.4896,-2.5274,-2.5658,-2.6025,-2.6298,-2.644,-2.6835,-2.712,-2.7299,-2.7585,-2.7995,-2.8519,-2.8672,-2.8944,-2.9377,-2.9681,-2.9855,-2.9853,-3.0142,-3.0394,-3.0588,-3.0617,-3.0606,-3.0645,-3.0672,-3.0894,-3.1307,-3.1379,-3.1588,-3.1995,-3.2021,-3.1975,-3.2016,-3.2355,-3.2329,-3.1899,-3.2069,-3.2007,-3.1257,-3.1423,-3.1318,-3.0497,-3.0697,-3.0659,-3.0323,-3.0123,-2.9838,-2.943,-2.8973,-2.8687,-2.8612,-2.8569,-2.8026,-2.7001,-2.6113,-2.5625,-2.5542,-2.6429,-2.7255,-2.7948,-2.8351,-2.8998,-2.9718,-2.9907,-2.9907,-2.9907,-2.9972,-3.0034,-3.0079,-3.009,-3.0104,-3.0188,-3.0196,-3.0122,-2.2095,-2.1712,-2.1112,-2.0587,-2.0085,-1.9944,-1.948,-1.8827,-1.8628,-1.8134,-1.7532,-1.7594,-1.7496,-1.7265,-1.7467,-1.737,-1.7143,-1.7331,-1.7387,-1.7278,-1.7278,-1.7434,-1.7656,-1.792,-1.8247,-1.8447,-1.8116,-1.7969,-1.7996,-1.6773,-1.6793,-1.7898,-1.7718,-1.7976,-1.8848,-1.8888,-1.9415,-2.0415,-2.2349,-2.3765,-2.46,-2.5662,-2.6418,-2.6888,-2.7321,-2.7672,-2.7897,-2.8273,-2.85,-2.8601,-2.8839,-2.9062,-2.9156,-2.9316,-2.9438,-2.957,-2.9853,-3.0045,-3.0104,-3.0267,-3.0428,-3.0588,-3.0617,-3.0617,-3.0606,-3.0652,-3.0719,-3.0772,-3.0837,-3.1109,-3.1624,-3.1733,-3.1985,-3.2571,-3.2617,-3.224,-3.1651,-3.1523,-3.1129,-3.0186,-3.0492,-3.0469,-2.969,-2.9758,-2.9839,-2.9265,-2.8952,-2.8834,-2.8785,-2.8737,-2.8662,-2.8612,-2.8587,-2.808,-2.6705,-2.5917,-2.535,-2.4709,-2.5671,-2.6652,-2.7358,-2.8099,-2.8925,-2.968,-2.9924,-2.9924,-2.994,-3.0,-3.0094,-3.0118,-3.0174,-3.0235,-3.0371,-3.0394,-3.0328,-2.228,-2.2106,-2.1232,-2.0577,-2.0096,-1.9933,-1.9372,-1.8545,-1.8235,-1.7596,-1.6948,-1.7217,-1.7249,-1.7127,-1.755,-1.7532,-1.7322,-1.7737,-1.7682,-1.7311,-1.7278,-1.7334,-1.7379,-1.7877,-1.815,-1.8124,-1.7996,-1.8056,-1.8181,-1.7446,-1.7823,-1.9092,-1.827,-1.8259,-1.9201,-1.9474,-1.9842,-2.0288,-2.1355,-2.2862,-2.4728,-2.4745,-2.5399,-2.6871,-2.7289,-2.763,-2.789,-2.8183,-2.8394,-2.8601,-2.8858,-2.9089,-2.927,-2.9358,-2.9476,-2.9678,-2.9943,-3.0196,-3.0425,-3.051,-3.0579,-3.0598,-3.0617,-3.0616,-3.0604,-3.0664,-3.0708,-3.0718,-3.0761,-3.0855,-3.0918,-3.0942,-3.1013,-3.1131,-3.1093,-3.0874,-3.0808,-3.0665,-3.0436,-2.9996,-3.0108,-2.9959,-2.9444,-2.9388,-2.9241,-2.9012,-2.8815,-2.8718,-2.8669,-2.8662,-2.8587,-2.8587,-2.8587,-2.825,-2.7327,-2.6409,-2.5768,-2.5346,-2.5522,-2.632,-2.7244,-2.8043,-2.8739,-2.9696,-2.9921,-2.9924,-2.9972,-3.003,-3.0118,-3.0048,-3.0157,-3.0348,-3.046,-3.0449,-3.0383,-2.2149,-2.1832,-2.1155,-2.0587,-1.9965,-1.9813,-1.9148,-1.8193,-1.815,-1.762,-1.6892,-1.7009,-1.7081,-1.7032,-1.7226,-1.7329,-1.73,-1.7486,-1.7475,-1.7289,-1.7278,-1.7278,-1.7334,-1.7877,-1.8084,-1.8127,-1.8419,-1.843,-1.8169,-1.776,-1.8129,-1.9058,-1.8554,-1.8477,-1.9029,-1.9475,-1.9777,-1.9796,-2.0645,-2.1934,-2.3475,-2.4116,-2.4788,-2.5811,-2.6725,-2.7379,-2.7749,-2.8261,-2.8676,-2.8839,-2.9071,-2.9209,-2.9353,-2.9607,-2.978,-2.9874,-3.0117,-3.0321,-3.0479,-3.054,-3.0559,-3.0598,-3.0607,-3.0604,-3.061,-3.0658,-3.0713,-3.0753,-3.0799,-3.0796,-3.0788,-3.0794,-3.0789,-3.072,-3.0704,-3.0668,-3.0604,-3.055,-3.034,-2.9973,-3.0013,-2.9902,-2.9427,-2.9193,-2.9062,-2.8905,-2.8767,-2.8626,-2.8456,-2.8518,-2.8518,-2.8396,-2.8448,-2.8243,-2.7562,-2.6952,-2.6413,-2.62,-2.6507,-2.7207,-2.7735,-2.8575,-2.9342,-2.9851,-2.9905,-2.9924,-2.994,-2.9977,-3.0042,-2.9839,-2.9712,-2.9873,-3.0375,-3.0481,-3.0469,-2.2226,-2.1734,-2.1123,-2.0367,-1.9609,-1.9479,-1.8881,-1.8023,-1.7999,-1.76,-1.6973,-1.6965,-1.7011,-1.7078,-1.7078,-1.7134,-1.7278,-1.7278,-1.7278,-1.7278,-1.7278,-1.7278,-1.7334,-1.7877,-1.8084,-1.8193,-1.8721,-1.8835,-1.8488,-1.8191,-1.8449,-1.9058,-1.8923,-1.8798,-1.8965,-1.9603,-1.9844,-1.9712,-2.0282,-2.1198,-2.2378,-2.3047,-2.389,-2.5066,-2.6127,-2.695,-2.7583,-2.8148,-2.8657,-2.8994,-2.9185,-2.9355,-2.9493,-2.9817,-3.0037,-3.0122,-3.0297,-3.0439,-3.0479,-3.051,-3.054,-3.0598,-3.0606,-3.0618,-3.0626,-3.0665,-3.0728,-3.0781,-3.0792,-3.0791,-3.0788,-3.079,-3.0769,-3.0711,-3.0704,-3.0676,-3.0602,-3.0521,-3.034,-2.9973,-2.9975,-2.9828,-2.9291,-2.9048,-2.8905,-2.8839,-2.8651,-2.8456,-2.8237,-2.8326,-2.8344,-2.8156,-2.8352,-2.8327,-2.7809,-2.7622,-2.7276,-2.7,-2.7255,-2.7625,-2.8219,-2.8932,-2.9589,-2.9732,-2.9839,-2.9921,-2.9931,-2.995,-2.9516,-2.9051,-2.9002,-2.9419,-2.9951,-3.025,-3.0472,-2.2706,-2.2149,-2.1047,-1.9974,-1.8945,-1.8945,-1.8537,-1.7771,-1.7611,-1.7427,-1.7188,-1.7078,-1.7067,-1.7278,-1.7211,-1.7278,-1.7278,-1.7278,-1.7278,-1.7278,-1.7278,-1.7278,-1.7334,-1.7865,-1.8084,-1.8193,-1.8732,-1.9081,-1.9258,-1.8855,-1.8995,-1.9685,-1.937,-1.9264,-1.9381,-1.9972,-2.0279,-2.0077,-2.0151,-2.0669,-2.1569,-2.1439,-2.2554,-2.4733,-2.557,-2.635,-2.7378,-2.7606,-2.8059,-2.892,-2.9095,-2.936,-2.9625,-2.9864,-3.0128,-3.0355,-3.0436,-3.0479,-3.049,-3.055,-3.0598,-3.0607,-3.0606,-3.0626,-3.0684,-3.0696,-3.0733,-3.08,-3.0796,-3.079,-3.07,-3.0759,-3.0784,-3.0779,-3.073,-3.0683,-3.0622,-3.0559,-3.0309,-3.0003,-2.9902,-2.9625,-2.8935,-2.8814,-2.8791,-2.8676,-2.8386,-2.8129,-2.8102,-2.8065,-2.8065,-2.8129,-2.8299,-2.8518,-2.8515,-2.8286,-2.8009,-2.7749,-2.7567,-2.7633,-2.804,-2.8556,-2.9174,-2.9588,-2.9653,-2.975,-2.9863,-2.9494,-2.8747,-2.8441,-2.873,-2.912,-2.9284,-3.0028,-3.0308,-2.2138,-2.1417,-2.0226,-1.9346,-1.8659,-1.8712,-1.8247,-1.7541,-1.7509,-1.7301,-1.6984,-1.6931,-1.692,-1.6987,-1.7088,-1.7145,-1.7278,-1.7278,-1.7278,-1.7278,-1.7278,-1.7379,-1.7601,-1.792,-1.8247,-1.8464,-1.8827,-1.9117,-1.9287,-1.908,-1.9224,-1.9606,-1.9635,-1.9345,-1.9105,-2.017,-2.0334,-1.9265,-1.9996,-2.0795,-2.1135,-2.1119,-2.1947,-2.3545,-2.4486,-2.5267,-2.6034,-2.668,-2.7211,-2.7592,-2.7886,-2.8395,-2.9052,-2.9827,-3.0299,-3.0383,-3.0458,-3.049,-3.0491,-3.0578,-3.0606,-3.0606,-3.064,-3.0685,-3.07,-3.0738,-3.076,-3.0788,-3.0781,-3.0611,-3.0197,-3.0462,-3.0779,-3.0794,-3.073,-3.0644,-3.0607,-3.054,-3.0394,-3.0109,-2.9832,-2.9381,-2.9071,-2.885,-2.8785,-2.8737,-2.8386,-2.8075,-2.7926,-2.7954,-2.802,-2.7954,-2.8192,-2.8518,-2.8587,-2.8551,-2.8406,-2.8279,-2.8196,-2.8324,-2.8617,-2.8753,-2.9245,-2.927,-2.9357,-2.902,-2.8943,-2.824,-2.7618,-2.7785,-2.8123,-2.8338,-2.847,-2.938,-2.9825,-2.1145,-2.036,-1.9628,-1.8713,-1.7974,-1.8217,-1.7759,-1.685,-1.7111,-1.7001,-1.6612,-1.6694,-1.6761,-1.6818,-1.6909,-1.7032,-1.7155,-1.7211,-1.7278,-1.7278,-1.7278,-1.7445,-1.7711,-1.7986,-1.829,-1.8614,-1.8881,-1.9129,-1.9259,-1.9235,-1.9328,-1.9512,-1.9656,-1.956,-1.9407,-2.0399,-2.0411,-1.9935,-2.0564,-2.0978,-2.1072,-2.1151,-2.1711,-2.2721,-2.3516,-2.4379,-2.5226,-2.5939,-2.6541,-2.686,-2.7229,-2.7842,-2.8802,-2.9826,-3.0402,-3.0398,-3.0469,-3.049,-3.0501,-3.0568,-3.0613,-3.0599,-3.0644,-3.0711,-3.0747,-3.0778,-3.0799,-3.0752,-3.0392,-2.9975,-2.9732,-2.9937,-3.0263,-3.0355,-3.0328,-3.0377,-3.0552,-3.0501,-3.034,-3.0085,-2.9697,-2.9318,-2.9038,-2.8892,-2.8834,-2.8785,-2.8404,-2.8065,-2.7926,-2.7954,-2.802,-2.7897,-2.8219,-2.8492,-2.8562,-2.8525,-2.8515,-2.8406,-2.8406,-2.8639,-2.8693,-2.8854,-2.8883,-2.8914,-2.8686,-2.8256,-2.7665,-2.6993,-2.6854,-2.6983,-2.7262,-2.7547,-2.8077,-2.8857,-2.9177,-1.9806,-1.9111,-1.9173,-1.8151,-1.6752,-1.7358,-1.698,-1.5916,-1.6384,-1.6327,-1.5931,-1.64,-1.6524,-1.6694,-1.657,-1.6694,-1.6694,-1.6931,-1.7155,-1.7278,-1.7278,-1.7434,-1.7767,-1.792,-1.8247,-1.8614,-1.8881,-1.9129,-1.9259,-1.9194,-1.9275,-1.942,-1.9565,-1.9826,-2.0442,-2.0543,-2.115,-2.144,-2.1207,-2.1275,-2.1594,-2.1456,-2.1816,-2.2695,-2.2968,-2.3789,-2.5354,-2.5466,-2.5913,-2.6798,-2.7138,-2.7889,-2.8874,-2.9879,-3.0394,-3.0439,-3.0479,-3.05,-3.0521,-3.0557,-3.063,-3.0594,-3.0628,-3.0567,-3.0604,-3.0643,-3.0648,-3.0517,-2.9951,-2.9333,-2.9469,-2.9341,-2.9341,-2.9471,-2.9661,-2.9951,-3.0336,-3.0413,-3.0241,-2.9842,-2.9401,-2.9198,-2.8938,-2.8617,-2.8474,-2.8349,-2.8214,-2.7924,-2.7735,-2.7842,-2.8037,-2.795,-2.8103,-2.8394,-2.8482,-2.8507,-2.8471,-2.846,-2.8496,-2.8583,-2.8355,-2.8343,-2.8144,-2.8108,-2.7708,-2.7274,-2.6683,-2.6072,-2.5951,-2.6079,-2.6414,-2.6814,-2.7286,-2.7881,-2.8461,-1.8931,-1.7876,-1.7995,-1.6761,-1.4925,-1.5733,-1.5708,-1.504,-1.5264,-1.5264,-1.5099,-1.5167,-1.5235,-1.5225,-1.5332,-1.5381,-1.5381,-1.5806,-1.64,-1.6909,-1.6864,-1.7256,-1.781,-1.7744,-1.8061,-1.8774,-1.8934,-1.8987,-1.9064,-1.9052,-1.9105,-1.9263,-1.9552,-1.9522,-1.9422,-2.0338,-2.0737,-1.9904,-2.0708,-2.1213,-2.132,-2.1454,-2.1931,-2.2703,-2.2989,-2.3674,-2.4725,-2.4813,-2.5045,-2.5559,-2.5747,-2.6591,-2.8115,-2.9648,-3.0453,-3.053,-3.0599,-3.0639,-3.0639,-3.0617,-3.0599,-3.0548,-3.018,-2.9912,-2.9902,-2.9916,-2.9938,-3.0018,-3.0063,-3.0107,-2.9599,-2.9368,-2.9279,-2.9428,-2.9904,-3.0131,-3.0269,-2.9908,-2.9359,-2.8938,-2.8325,-2.7774,-2.7453,-2.7376,-2.7364,-2.7292,-2.7301,-2.7253,-2.6783,-2.7406,-2.7313,-2.6513,-2.7264,-2.7893,-2.7515,-2.7439,-2.7597,-2.7676,-2.7857,-2.7972,-2.781,-2.7505,-2.735,-2.7082,-2.6699,-2.6295,-2.5703,-2.5443,-2.538,-2.5562,-2.606,-2.6294,-2.6339,-2.682,-2.7497,-1.7737,-1.6609,-1.692,-1.5799,-1.4072,-1.4939,-1.493,-1.4359,-1.4551,-1.4551,-1.4332,-1.4469,-1.4469,-1.4529,-1.4569,-1.4628,-1.4678,-1.4991,-1.5565,-1.6265,-1.6389,-1.6899,-1.7799,-1.8007,-1.8278,-1.8881,-1.8987,-1.8922,-1.8804,-1.8815,-1.8839,-1.8827,-1.9147,-1.9384,-1.9279,-1.9962,-1.9936,-1.9696,-2.0521,-2.1114,-2.1376,-2.1697,-2.2164,-2.2746,-2.3129,-2.3681,-2.4405,-2.4522,-2.4678,-2.5004,-2.544,-2.6299,-2.7421,-2.8743,-2.9599,-2.9656,-2.9694,-2.9702,-2.9736,-2.9667,-2.977,-2.9669,-2.929,-2.9043,-2.9093,-2.9235,-2.9499,-2.9611,-2.9902,-3.0041,-2.9499,-2.9052,-2.8922,-2.89,-2.9229,-2.9661,-2.9715,-2.9339,-2.9032,-2.8734,-2.8164,-2.7493,-2.7142,-2.6683,-2.6527,-2.6498,-2.6626,-2.6693,-2.6247,-2.6698,-2.6215,-2.5976,-2.6576,-2.6684,-2.6186,-2.6296,-2.661,-2.682,-2.7007,-2.7067,-2.7006,-2.655,-2.6252,-2.5912,-2.5558,-2.5608,-2.513,-2.5118,-2.5101,-2.5451,-2.5772,-2.5996,-2.6178,-2.6234,-2.6725,-1.6495,-1.5314,-1.59,-1.5236,-1.4033,-1.4727,-1.4468,-1.3718,-1.4145,-1.4085,-1.3692,-1.3992,-1.4291,-1.435,-1.4222,-1.4231,-1.4401,-1.4451,-1.4688,-1.5167,-1.5526,-1.6255,-1.7435,-1.8387,-1.8881,-1.8987,-1.8987,-1.875,-1.8501,-1.8536,-1.8387,-1.8163,-1.8582,-1.9171,-1.9852,-1.9524,-1.9916,-2.0605,-2.0701,-2.102,-2.1774,-2.2132,-2.2483,-2.2855,-2.3305,-2.3844,-2.4405,-2.4648,-2.4883,-2.5241,-2.599,-2.6554,-2.685,-2.7533,-2.821,-2.8333,-2.8182,-2.8296,-2.8217,-2.848,-2.8437,-2.8475,-2.832,-2.8154,-2.8268,-2.8821,-2.926,-2.9302,-2.9551,-2.9615,-2.9365,-2.8791,-2.8313,-2.8028,-2.8357,-2.8615,-2.8848,-2.8841,-2.8828,-2.8933,-2.8535,-2.7822,-2.7298,-2.6704,-2.6313,-2.6197,-2.6166,-2.6154,-2.595,-2.5948,-2.6015,-2.6003,-2.5924,-2.5739,-2.529,-2.5572,-2.5811,-2.5528,-2.5786,-2.5935,-2.6041,-2.5677,-2.5312,-2.4968,-2.4837,-2.4832,-2.4827,-2.4879,-2.4974,-2.5201,-2.5516,-2.5831,-2.5948,-2.5976,-2.5995,-1.6253,-1.4504,-1.4679,-1.4093,-1.3029,-1.3244,-1.3194,-1.2858,-1.3094,-1.3155,-1.292,-1.2981,-1.3155,-1.3094,-1.3103,-1.3103,-1.3216,-1.339,-1.3631,-1.3983,-1.4291,-1.5613,-1.7257,-1.8494,-1.8987,-1.8934,-1.8774,-1.859,-1.8382,-1.8267,-1.8009,-1.7652,-1.8721,-1.9294,-1.935,-1.9757,-1.9914,-1.9982,-2.0439,-2.1183,-2.2148,-2.2434,-2.2797,-2.3315,-2.366,-2.4118,-2.4659,-2.493,-2.5103,-2.5248,-2.6047,-2.6582,-2.6702,-2.7481,-2.7938,-2.8009,-2.8134,-2.8193,-2.8201,-2.8183,-2.8222,-2.8198,-2.7604,-2.7318,-2.7348,-2.8067,-2.8465,-2.8752,-2.9506,-3.0261,-3.0078,-2.9386,-2.8675,-2.8135,-2.8385,-2.8917,-2.9312,-2.9079,-2.866,-2.8353,-2.7232,-2.6595,-2.616,-2.5603,-2.5014,-2.4992,-2.5189,-2.5363,-2.515,-2.5425,-2.5628,-2.495,-2.4706,-2.4652,-2.4641,-2.4938,-2.4882,-2.4347,-2.4424,-2.4694,-2.4842,-2.4866,-2.4588,-2.4358,-2.4605,-2.4676,-2.4704,-2.4746,-2.4893,-2.5044,-2.5252,-2.5542,-2.5563,-2.5581,-2.5572,-1.5369,-1.3777,-1.3769,-1.3309,-1.2645,-1.2621,-1.2621,-1.2621,-1.2621,-1.2621,-1.2621,-1.2621,-1.2621,-1.2621,-1.2621,-1.2621,-1.2621,-1.2744,-1.3103,-1.3623,-1.4392,-1.5603,-1.7024,-1.8038,-1.8536,-1.8697,-1.8494,-1.8201,-1.795,-1.7941,-1.7583,-1.7345,-1.828,-1.8767,-1.8806,-1.9306,-1.9933,-2.0107,-2.0553,-2.1359,-2.2521,-2.2654,-2.3032,-2.3534,-2.3926,-2.4351,-2.4831,-2.4767,-2.4807,-2.5203,-2.5735,-2.61,-2.6207,-2.6714,-2.7089,-2.7139,-2.7182,-2.7187,-2.7205,-2.72,-2.7216,-2.7132,-2.6671,-2.6509,-2.6578,-2.7171,-2.7643,-2.7743,-2.8903,-2.9629,-2.9861,-2.9245,-2.8714,-2.8519,-2.8585,-2.8867,-2.9281,-2.8799,-2.8556,-2.8144,-2.737,-2.6313,-2.5952,-2.5181,-2.4592,-2.4333,-2.4533,-2.4436,-2.4244,-2.4817,-2.505,-2.4418,-2.4011,-2.407,-2.4064,-2.4265,-2.4418,-2.3845,-2.3777,-2.3921,-2.4071,-2.4242,-2.4218,-2.4173,-2.4391,-2.4524,-2.4524,-2.4604,-2.4804,-2.4961,-2.5111,-2.5241,-2.5303,-2.5361,-2.5332,-1.4193,-1.3036,-1.3036,-1.2853,-1.2645,-1.2621,-1.2621,-1.2621,-1.2621,-1.2621,-1.2621,-1.2621,-1.2621,-1.2621,-1.2621,-1.2621,-1.2621,-1.2621,-1.2981,-1.3743,-1.4737,-1.5901,-1.6631,-1.7424,-1.7984,-1.8244,-1.8116,-1.7765,-1.7434,-1.7457,-1.7103,-1.689,-1.7357,-1.7915,-1.8397,-1.8783,-1.9692,-2.0722,-2.0801,-2.1513,-2.2564,-2.2833,-2.3135,-2.3769,-2.4209,-2.4467,-2.4639,-2.4419,-2.4279,-2.502,-2.5204,-2.536,-2.5479,-2.5604,-2.5707,-2.5849,-2.5976,-2.5937,-2.578,-2.5949,-2.5828,-2.59,-2.5852,-2.5687,-2.5954,-2.6563,-2.7029,-2.698,-2.76,-2.8427,-2.8695,-2.8261,-2.8298,-2.8525,-2.8283,-2.8249,-2.842,-2.8427,-2.8533,-2.886,-2.8264,-2.7471,-2.6643,-2.5837,-2.5051,-2.4147,-2.4238,-2.4144,-2.401,-2.4257,-2.4335,-2.401,-2.3755,-2.3656,-2.3611,-2.3588,-2.3682,-2.3557,-2.3575,-2.3674,-2.3764,-2.3876,-2.3948,-2.4019,-2.4192,-2.4247,-2.4265,-2.4405,-2.4685,-2.4861,-2.4987,-2.5126,-2.5262,-2.5312,-2.5312,-1.3718,-1.2741,-1.2679,-1.2693,-1.2629,-1.2621,-1.2621,-1.256,-1.2621,-1.2621,-1.2621,-1.2621,-1.2621,-1.2621,-1.2621,-1.2621,-1.2621,-1.2683,-1.292,-1.3623,-1.4706,-1.5584,-1.6265,-1.6989,-1.76,-1.7765,-1.7191,-1.709,-1.7158,-1.6579,-1.6063,-1.6423,-1.7095,-1.7818,-1.817,-1.8907,-2.0029,-2.1131,-2.0996,-2.1603,-2.2726,-2.2987,-2.3298,-2.4045,-2.4584,-2.4582,-2.4232,-2.4049,-2.408,-2.4226,-2.4394,-2.4793,-2.536,-2.5574,-2.564,-2.5681,-2.5703,-2.5702,-2.5697,-2.5689,-2.5703,-2.5701,-2.5687,-2.5697,-2.5753,-2.6388,-2.6796,-2.6955,-2.7561,-2.7749,-2.7537,-2.774,-2.7969,-2.8165,-2.8447,-2.8741,-2.9164,-2.9323,-2.9211,-2.8898,-2.8301,-2.7471,-2.6622,-2.5795,-2.5027,-2.4255,-2.4016,-2.3996,-2.3958,-2.3917,-2.3873,-2.3828,-2.3718,-2.3629,-2.3539,-2.3499,-2.3517,-2.3494,-2.3453,-2.3453,-2.3544,-2.3549,-2.3602,-2.3756,-2.3961,-2.3983,-2.4022,-2.4355,-2.4673,-2.4756,-2.4864,-2.5,-2.5115,-2.519,-2.5252,-1.3506,-1.2382,-1.2375,-1.2375,-1.2375,-1.2436,-1.2436,-1.2498,-1.256,-1.2621,-1.2621,-1.2621,-1.2621,-1.2621,-1.2621,-1.2621,-1.2683,-1.292,-1.3216,-1.3631,-1.43,-1.501,-1.5536,-1.6026,-1.6528,-1.7279,-1.7,-1.6955,-1.6881,-1.6373,-1.6052,-1.6171,-1.6847,-1.7252,-1.7784,-1.871,-1.979,-2.0855,-2.1247,-2.1911,-2.2963,-2.3217,-2.3289,-2.3812,-2.427,-2.42,-2.3417,-2.339,-2.3668,-2.397,-2.4172,-2.4581,-2.5323,-2.5584,-2.5657,-2.5683,-2.5702,-2.5699,-2.5693,-2.5679,-2.5668,-2.5698,-2.5655,-2.5668,-2.5726,-2.6139,-2.6267,-2.6326,-2.6586,-2.6784,-2.6736,-2.7412,-2.7794,-2.8003,-2.8497,-2.8998,-2.9188,-2.9398,-2.9435,-2.8946,-2.826,-2.7409,-2.6582,-2.5756,-2.4889,-2.4081,-2.4114,-2.4077,-2.4077,-2.4037,-2.3998,-2.3915,-2.3786,-2.3656,-2.3562,-2.3517,-2.3517,-2.3453,-2.3407,-2.3383,-2.3389,-2.3348,-2.3265,-2.3473,-2.3692,-2.3819,-2.3921,-2.4284,-2.4545,-2.462,-2.4689,-2.4836,-2.4949,-2.5031,-2.5087,-1.3199,-1.2065,-1.2065,-1.2065,-1.2127,-1.2243,-1.2243,-1.2305,-1.2498,-1.256,-1.256,-1.256,-1.256,-1.256,-1.2621,-1.2621,-1.272,-1.2995,-1.3202,-1.345,-1.3758,-1.4396,-1.4944,-1.5013,-1.5407,-1.669,-1.6539,-1.6616,-1.6648,-1.6363,-1.5996,-1.6204,-1.6314,-1.6809,-1.7391,-1.8324,-1.9543,-2.0534,-2.1381,-2.2203,-2.3028,-2.3234,-2.323,-2.3244,-2.3486,-2.3311,-2.27,-2.2622,-2.2981,-2.3909,-2.4077,-2.4628,-2.5305,-2.5627,-2.5703,-2.5703,-2.5699,-2.5694,-2.5689,-2.5671,-2.5658,-2.569,-2.5644,-2.5624,-2.5671,-2.573,-2.5766,-2.571,-2.5829,-2.5955,-2.6457,-2.7104,-2.7516,-2.7772,-2.8365,-2.8779,-2.8821,-2.9043,-2.9037,-2.9027,-2.8305,-2.7431,-2.6538,-2.5692,-2.4826,-2.4114,-2.4149,-2.4099,-2.4062,-2.3932,-2.3783,-2.3593,-2.3376,-2.353,-2.3491,-2.3448,-2.3448,-2.3471,-2.3383,-2.3336,-2.3289,-2.3175,-2.3133,-2.3253,-2.3422,-2.3562,-2.3756,-2.4058,-2.4265,-2.4388,-2.4519,-2.4659,-2.4766,-2.4869,-2.4902,-1.2305,-1.2065,-1.2065,-1.2065,-1.212,-1.2127,-1.2127,-1.2189,-1.2305,-1.2367,-1.2367,-1.249,-1.2466,-1.2421,-1.2552,-1.2613,-1.2522,-1.266,-1.283,-1.3032,-1.3379,-1.3861,-1.4258,-1.4066,-1.4421,-1.5037,-1.5489,-1.5867,-1.6088,-1.5666,-1.5704,-1.6196,-1.6173,-1.6485,-1.7394,-1.8373,-1.9409,-2.0413,-2.1351,-2.2275,-2.2667,-2.2812,-2.263,-2.2561,-2.2745,-2.2441,-2.1922,-2.1765,-2.2146,-2.2997,-2.3178,-2.4138,-2.5195,-2.5662,-2.5703,-2.5701,-2.5697,-2.5691,-2.5683,-2.5693,-2.5652,-2.5636,-2.5639,-2.5605,-2.5576,-2.5581,-2.5609,-2.5576,-2.5498,-2.5526,-2.56,-2.6458,-2.6764,-2.699,-2.7647,-2.8326,-2.8612,-2.8755,-2.8839,-2.8936,-2.827,-2.7431,-2.6502,-2.5619,-2.4684,-2.4135,-2.4091,-2.3768,-2.3474,-2.3309,-2.3142,-2.2972,-2.2819,-2.3124,-2.3379,-2.3353,-2.336,-2.3448,-2.3401,-2.3289,-2.3217,-2.3045,-2.3028,-2.3052,-2.3188,-2.3387,-2.361,-2.3878,-2.4096,-2.4266,-2.4371,-2.4505,-2.4538,-2.4601,-2.4697,-1.2236,-1.1872,-1.1872,-1.1817,-1.1879,-1.1926,-1.1934,-1.1996,-1.212,-1.2189,-1.2189,-1.2195,-1.2263,-1.2226,-1.2063,-1.2011,-1.2081,-1.2208,-1.2324,-1.2522,-1.2651,-1.2976,-1.3416,-1.312,-1.3244,-1.371,-1.4305,-1.5024,-1.5522,-1.5205,-1.5365,-1.5747,-1.5718,-1.6194,-1.73,-1.8369,-1.9215,-2.0193,-2.1142,-2.1764,-2.1954,-2.2057,-2.212,-2.18,-2.185,-2.1636,-2.1218,-2.1934,-2.2411,-2.3047,-2.3862,-2.4752,-2.537,-2.5683,-2.5699,-2.5697,-2.5693,-2.5683,-2.5645,-2.5625,-2.5586,-2.5549,-2.5531,-2.5479,-2.5473,-2.5486,-2.5525,-2.5525,-2.5468,-2.5395,-2.5455,-2.6111,-2.6476,-2.6729,-2.7551,-2.8364,-2.8746,-2.886,-2.8838,-2.8687,-2.7664,-2.6863,-2.6385,-2.5488,-2.4559,-2.4178,-2.4052,-2.3601,-2.3051,-2.2795,-2.2666,-2.2676,-2.2625,-2.3026,-2.3323,-2.3307,-2.3289,-2.3378,-2.3313,-2.3217,-2.3052,-2.285,-2.2738,-2.2685,-2.2892,-2.3189,-2.3522,-2.3795,-2.3978,-2.4134,-2.421,-2.4284,-2.4284,-2.4337,-2.4459,-1.2166,-1.1622,-1.1622,-1.1622,-1.1622,-1.174,-1.1747,-1.1809,-1.1934,-1.2058,-1.2012,-1.1865,-1.1895,-1.1918,-1.1686,-1.1462,-1.1479,-1.1743,-1.1799,-1.1929,-1.1839,-1.2044,-1.2231,-1.2091,-1.2121,-1.2815,-1.3312,-1.4113,-1.4829,-1.4999,-1.5246,-1.5488,-1.5441,-1.592,-1.7122,-1.8082,-1.8857,-1.9751,-2.0639,-2.1074,-2.1041,-2.1362,-2.1507,-2.0841,-2.1081,-2.1009,-2.0935,-2.1785,-2.2761,-2.3472,-2.442,-2.5389,-2.5641,-2.5693,-2.5689,-2.5689,-2.5703,-2.5645,-2.5601,-2.5526,-2.546,-2.5418,-2.5382,-2.5357,-2.5357,-2.5398,-2.5437,-2.5449,-2.5437,-2.5378,-2.5437,-2.5948,-2.6311,-2.671,-2.7577,-2.8517,-2.8578,-2.8559,-2.8293,-2.781,-2.6884,-2.6255,-2.5758,-2.5096,-2.4172,-2.4083,-2.3919,-2.356,-2.3015,-2.2502,-2.2335,-2.2468,-2.2622,-2.3046,-2.323,-2.323,-2.3241,-2.3265,-2.3151,-2.301,-2.2807,-2.2598,-2.248,-2.236,-2.2747,-2.3069,-2.341,-2.3628,-2.3774,-2.3896,-2.3996,-2.4095,-2.4135,-2.4154,-2.4211,-1.1685,-1.1622,-1.1615,-1.1622,-1.1608,-1.1615,-1.1615,-1.1608,-1.1779,-1.1809,-1.1759,-1.1624,-1.1457,-1.1314,-1.1261,-1.1205,-1.1208,-1.1193,-1.1279,-1.1407,-1.1271,-1.145,-1.1812,-1.1388,-1.1606,-1.207,-1.2499,-1.3243,-1.4031,-1.4885,-1.5363,-1.5373,-1.5498,-1.6008,-1.7014,-1.7716,-1.8431,-1.9421,-2.0237,-2.0631,-2.0737,-2.0867,-2.0671,-2.0459,-2.0495,-2.0816,-2.1301,-2.2025,-2.2723,-2.3997,-2.4355,-2.4957,-2.5505,-2.5693,-2.5693,-2.5687,-2.5655,-2.5613,-2.5571,-2.5498,-2.5356,-2.5309,-2.5321,-2.5312,-2.5274,-2.5293,-2.533,-2.5303,-2.5341,-2.536,-2.5332,-2.5427,-2.5819,-2.6266,-2.6876,-2.7484,-2.7752,-2.7963,-2.7733,-2.7084,-2.6219,-2.5646,-2.5129,-2.4436,-2.3816,-2.3858,-2.3769,-2.3409,-2.2953,-2.2404,-2.2016,-2.2096,-2.2531,-2.2999,-2.3077,-2.3077,-2.3077,-2.3126,-2.2935,-2.2764,-2.2554,-2.2337,-2.2056,-2.2084,-2.2485,-2.2669,-2.2729,-2.2979,-2.3387,-2.3628,-2.3753,-2.3896,-2.4016,-2.4016,-2.3958,-1.1343,-1.1289,-1.135,-1.1282,-1.1372,-1.148,-1.1512,-1.1365,-1.1404,-1.13,-1.1027,-1.0603,-1.0313,-1.0261,-1.0597,-1.0818,-1.077,-1.0727,-1.0764,-1.0907,-1.0804,-1.0894,-1.0995,-1.0886,-1.1006,-1.1387,-1.1959,-1.2476,-1.3332,-1.4192,-1.4879,-1.4951,-1.52,-1.5832,-1.6811,-1.7459,-1.8197,-1.889,-1.9355,-1.963,-1.9887,-2.0052,-2.0125,-2.0098,-2.0621,-2.1155,-2.1725,-2.2785,-2.341,-2.4431,-2.4765,-2.524,-2.5554,-2.5665,-2.5662,-2.5576,-2.5521,-2.5504,-2.5523,-2.5486,-2.5354,-2.5234,-2.5212,-2.5168,-2.5091,-2.5065,-2.5201,-2.5397,-2.5292,-2.5244,-2.5254,-2.5283,-2.5759,-2.6186,-2.6458,-2.6848,-2.7208,-2.7113,-2.6989,-2.6284,-2.5608,-2.5014,-2.4508,-2.4071,-2.3692,-2.3813,-2.3663,-2.3277,-2.2818,-2.226,-2.1914,-2.1696,-2.2288,-2.2968,-2.2927,-2.2876,-2.2859,-2.2833,-2.259,-2.2402,-2.2292,-2.2068,-2.1764,-2.1645,-2.189,-2.1989,-2.2017,-2.2574,-2.3248,-2.341,-2.35,-2.3606,-2.371,-2.3602,-2.3589,-1.0836,-1.0836,-1.0916,-1.0953,-1.0975,-1.1088,-1.1052,-1.0967,-1.0775,-1.0697,-1.0436,-0.9869,-0.935,-0.9302,-0.9931,-1.0204,-1.02,-1.0368,-1.0419,-1.0419,-1.0419,-1.0443,-1.0438,-1.0391,-1.0443,-1.0522,-1.146,-1.2067,-1.2647,-1.342,-1.4172,-1.4326,-1.4787,-1.5536,-1.6389,-1.6982,-1.7578,-1.8437,-1.893,-1.9381,-1.9711,-1.9711,-1.9979,-2.0421,-2.105,-2.1685,-2.2211,-2.335,-2.4237,-2.4883,-2.5242,-2.557,-2.5609,-2.5636,-2.56,-2.5504,-2.5441,-2.5406,-2.5403,-2.5374,-2.5341,-2.5217,-2.5076,-2.5,-2.4961,-2.4855,-2.4858,-2.5191,-2.5209,-2.5154,-2.5186,-2.5243,-2.568,-2.6094,-2.6421,-2.6759,-2.693,-2.6601,-2.6061,-2.5278,-2.4689,-2.4302,-2.3876,-2.3643,-2.3562,-2.3747,-2.3541,-2.3177,-2.27,-2.2187,-2.1914,-2.167,-2.2013,-2.2599,-2.2554,-2.2527,-2.2554,-2.2473,-2.222,-2.2039,-2.1895,-2.1628,-2.1308,-2.1308,-2.1446,-2.1582,-2.1744,-2.2459,-2.3105,-2.3129,-2.3194,-2.3312,-2.3359,-2.3236,-2.3207,-1.0163,-1.0192,-1.0492,-1.0616,-1.0631,-1.0054,-1.0184,-1.0559,-1.0098,-1.0121,-1.0165,-0.9667,-0.9018,-0.8904,-0.9022,-0.9456,-0.9829,-1.0154,-1.0131,-1.0131,-1.0205,-1.0182,-1.0131,-1.0131,-1.0182,-1.0514,-1.1082,-1.1724,-1.2316,-1.2909,-1.3637,-1.4176,-1.4523,-1.5116,-1.5911,-1.6642,-1.7258,-1.8195,-1.907,-1.9975,-2.0233,-2.0283,-2.0361,-2.1138,-2.1555,-2.1995,-2.289,-2.3893,-2.4723,-2.5403,-2.5554,-2.5617,-2.5595,-2.559,-2.5525,-2.5432,-2.5364,-2.5318,-2.5245,-2.5243,-2.5184,-2.5095,-2.4959,-2.4823,-2.4808,-2.4799,-2.4812,-2.4841,-2.4936,-2.5069,-2.5141,-2.5286,-2.5608,-2.5774,-2.5926,-2.5911,-2.5982,-2.5772,-2.519,-2.431,-2.3819,-2.3606,-2.346,-2.3301,-2.3289,-2.344,-2.3312,-2.2959,-2.2663,-2.2213,-2.2012,-2.1867,-2.1956,-2.2124,-2.2079,-2.2022,-2.1948,-2.189,-2.1685,-2.1568,-2.1462,-2.1198,-2.1007,-2.1119,-2.1291,-2.1385,-2.1568,-2.2203,-2.2652,-2.279,-2.2867,-2.2975,-2.2915,-2.2764,-2.2804,-0.9987,-0.9811,-0.9943,-1.0111,-1.0246,-0.9859,-0.9952,-1.0246,-1.0057,-0.9494,-0.8954,-0.8553,-0.8189,-0.8002,-0.8277,-0.8657,-0.9017,-0.9459,-0.9643,-0.9748,-0.9803,-0.9918,-0.9898,-0.9847,-0.9946,-1.021,-1.0694,-1.104,-1.1443,-1.2316,-1.2909,-1.3447,-1.4097,-1.4929,-1.5636,-1.6835,-1.7721,-1.8276,-1.9603,-2.0771,-2.0749,-2.1217,-2.135,-2.1486,-2.2893,-2.2984,-2.3316,-2.4452,-2.5156,-2.5553,-2.56,-2.5576,-2.5517,-2.5473,-2.5387,-2.5311,-2.5255,-2.5135,-2.5065,-2.5091,-2.513,-2.4953,-2.4798,-2.4676,-2.4657,-2.461,-2.4564,-2.4618,-2.478,-2.4943,-2.493,-2.5087,-2.5321,-2.5386,-2.5343,-2.5208,-2.5067,-2.4894,-2.4611,-2.3862,-2.3468,-2.3206,-2.3084,-2.301,-2.306,-2.3126,-2.2968,-2.2746,-2.247,-2.2194,-2.1956,-2.1686,-2.1723,-2.1602,-2.1519,-2.1444,-2.1352,-2.1259,-2.1165,-2.1023,-2.091,-2.1071,-2.0942,-2.1055,-2.1134,-2.1323,-2.1568,-2.1969,-2.2254,-2.2347,-2.2483,-2.259,-2.2493,-2.2279,-2.2208,-0.9826,-0.9569,-0.9249,-0.9422,-0.9872,-0.9417,-0.939,-0.9601,-0.9302,-0.8702,-0.7664,-0.7605,-0.7391,-0.7278,-0.7553,-0.8081,-0.8447,-0.8876,-0.9118,-0.9222,-0.9286,-0.937,-0.9416,-0.9431,-0.9424,-0.9703,-1.0123,-1.0466,-1.064,-1.1751,-1.2213,-1.2732,-1.3548,-1.4401,-1.5659,-1.753,-1.8628,-1.8796,-2.0274,-2.1626,-2.1626,-2.1645,-2.2352,-2.2293,-2.3333,-2.3392,-2.3606,-2.4523,-2.5234,-2.5347,-2.5356,-2.5471,-2.5413,-2.5309,-2.5216,-2.5141,-2.5068,-2.4962,-2.491,-2.491,-2.4981,-2.4823,-2.4692,-2.458,-2.4513,-2.4446,-2.4405,-2.4375,-2.4591,-2.4756,-2.4705,-2.4831,-2.4874,-2.4904,-2.4687,-2.4555,-2.434,-2.4162,-2.3919,-2.3491,-2.3194,-2.2875,-2.2721,-2.2634,-2.2643,-2.273,-2.2721,-2.2554,-2.2296,-2.2035,-2.1778,-2.1556,-2.1348,-2.118,-2.0959,-2.0701,-2.0487,-2.0585,-2.0501,-2.0333,-2.0296,-2.0431,-2.0648,-2.0698,-2.0846,-2.1213,-2.143,-2.1625,-2.179,-2.1953,-2.2051,-2.2091,-2.184,-2.1622,-2.1327,-0.9636,-0.9458,-0.8455,-0.8626,-0.9449,-0.8421,-0.8281,-0.8725,-0.7812,-0.7317,-0.7133,-0.7015,-0.694,-0.6897,-0.7004,-0.7318,-0.7845,-0.8297,-0.854,-0.8514,-0.8373,-0.8412,-0.8467,-0.8568,-0.8693,-0.8797,-0.9287,-0.9773,-0.9953,-1.1034,-1.1465,-1.1988,-1.2909,-1.3944,-1.5031,-1.7714,-1.889,-1.908,-2.116,-2.2246,-2.2592,-2.2204,-2.2843,-2.3379,-2.3757,-2.3731,-2.3794,-2.4823,-2.5344,-2.4959,-2.5263,-2.534,-2.5197,-2.5113,-2.5018,-2.4872,-2.4836,-2.4771,-2.4704,-2.4704,-2.4689,-2.4657,-2.4547,-2.4461,-2.4391,-2.4356,-2.4284,-2.4243,-2.4487,-2.45,-2.4479,-2.4476,-2.4484,-2.4369,-2.4155,-2.3967,-2.3801,-2.3649,-2.3445,-2.3236,-2.2892,-2.2571,-2.2392,-2.2281,-2.2237,-2.2281,-2.2388,-2.2304,-2.2056,-2.1777,-2.1507,-2.1102,-2.0813,-2.0335,-2.0062,-1.9768,-1.9641,-1.9798,-1.9763,-1.9549,-1.9477,-1.9528,-1.9763,-2.0147,-2.0385,-2.0553,-2.0863,-2.1195,-2.1069,-2.0958,-2.1411,-2.1502,-2.1225,-2.0862,-2.0516,-0.9614,-0.9562,-0.8771,-0.8725,-0.8876,-0.7824,-0.7717,-0.7978,-0.7391,-0.6961,-0.6858,-0.6431,-0.6284,-0.633,-0.6277,-0.6457,-0.6872,-0.685,-0.705,-0.7373,-0.7301,-0.7485,-0.7567,-0.7627,-0.7789,-0.8384,-0.8823,-0.9155,-0.9577,-1.0392,-1.1011,-1.1595,-1.2738,-1.3911,-1.51,-1.7015,-1.8329,-1.9175,-2.1093,-2.2703,-2.3176,-2.3434,-2.378,-2.4241,-2.4479,-2.4358,-2.3982,-2.5155,-2.5305,-2.4909,-2.5272,-2.5225,-2.505,-2.4975,-2.4823,-2.4752,-2.4727,-2.4559,-2.4497,-2.4428,-2.4429,-2.4429,-2.4393,-2.4284,-2.4266,-2.4209,-2.4173,-2.4155,-2.4338,-2.4301,-2.4247,-2.4263,-2.4228,-2.4003,-2.3783,-2.361,-2.3422,-2.3324,-2.3133,-2.2935,-2.2651,-2.2181,-2.1878,-2.1807,-2.1761,-2.1702,-2.1794,-2.1853,-2.1718,-2.1399,-2.1055,-2.0565,-2.0124,-1.9564,-1.9111,-1.874,-1.8565,-1.8579,-1.8693,-1.8655,-1.8593,-1.8608,-1.897,-1.9381,-1.9632,-1.9878,-1.9917,-1.9955,-1.9836,-1.989,-1.9886,-2.0107,-1.9993,-1.9733,-1.9568,-0.951,-0.9242,-0.8718,-0.8349,-0.8084,-0.7343,-0.7128,-0.7128,-0.6701,-0.6539,-0.6436,-0.6114,-0.5954,-0.5892,-0.5904,-0.5686,-0.6046,-0.601,-0.613,-0.6422,-0.6372,-0.656,-0.6679,-0.6767,-0.7125,-0.7723,-0.8119,-0.8384,-0.8662,-0.9498,-1.0349,-1.1435,-1.2796,-1.3672,-1.4884,-1.6473,-1.8182,-1.9258,-2.098,-2.2552,-2.3145,-2.3717,-2.4261,-2.4642,-2.4868,-2.4897,-2.4785,-2.5047,-2.546,-2.522,-2.5095,-2.5097,-2.4911,-2.4737,-2.4601,-2.4572,-2.451,-2.4375,-2.4284,-2.4247,-2.419,-2.4039,-2.4058,-2.4095,-2.4074,-2.3976,-2.3976,-2.3998,-2.4114,-2.4075,-2.3979,-2.4003,-2.3905,-2.3671,-2.3445,-2.3253,-2.3157,-2.3052,-2.2859,-2.2624,-2.2535,-2.1982,-2.1428,-2.1337,-2.1306,-2.1229,-2.1166,-2.126,-2.1306,-2.1023,-2.0583,-2.0039,-1.9639,-1.9161,-1.843,-1.7664,-1.7505,-1.7423,-1.7504,-1.7558,-1.7733,-1.7746,-1.8179,-1.8498,-1.8584,-1.8645,-1.8607,-1.8555,-1.811,-1.7719,-1.7503,-1.788,-1.8456,-1.8405,-1.8179,-0.9228,-0.8718,-0.8131,-0.7475,-0.694,-0.6817,-0.6406,-0.5845,-0.585,-0.585,-0.5845,-0.615,-0.5898,-0.5564,-0.5977,-0.5881,-0.5479,-0.5621,-0.5695,-0.5749,-0.5636,-0.5806,-0.5987,-0.6154,-0.6408,-0.6689,-0.709,-0.7622,-0.7614,-0.889,-1.0037,-1.1079,-1.2457,-1.3517,-1.4828,-1.6383,-1.7981,-1.9224,-2.0822,-2.2319,-2.3215,-2.3322,-2.4206,-2.4713,-2.4942,-2.4746,-2.4801,-2.5256,-2.5031,-2.4818,-2.4735,-2.474,-2.4648,-2.4459,-2.4355,-2.4284,-2.4247,-2.4115,-2.4037,-2.3996,-2.3795,-2.361,-2.361,-2.3795,-2.3834,-2.3667,-2.3667,-2.3732,-2.3855,-2.3747,-2.3678,-2.362,-2.3562,-2.333,-2.3084,-2.2952,-2.2902,-2.2747,-2.2544,-2.2426,-2.2487,-2.2073,-2.1425,-2.1148,-2.0975,-2.078,-2.0714,-2.0714,-2.0731,-2.0632,-2.0143,-1.9456,-1.9087,-1.8869,-1.8054,-1.7111,-1.6738,-1.6744,-1.6403,-1.6434,-1.6617,-1.665,-1.6741,-1.695,-1.7248,-1.722,-1.6552,-1.6244,-1.6025,-1.5666,-1.5185,-1.574,-1.6335,-1.6541,-1.6345,-0.8044,-0.8053,-0.7257,-0.6821,-0.6618,-0.6001,-0.5766,-0.5782,-0.5732,-0.5677,-0.5673,-0.553,-0.5488,-0.5467,-0.5175,-0.5121,-0.5018,-0.4872,-0.4815,-0.4794,-0.4629,-0.4888,-0.502,-0.5162,-0.554,-0.6128,-0.6597,-0.6954,-0.7791,-0.8837,-0.9632,-1.0483,-1.2281,-1.3617,-1.5082,-1.6608,-1.7896,-1.9203,-2.0898,-2.2024,-2.3076,-2.3375,-2.4276,-2.4783,-2.4839,-2.4706,-2.5107,-2.534,-2.5149,-2.5127,-2.5004,-2.493,-2.467,-2.4545,-2.4409,-2.4153,-2.3958,-2.3735,-2.3631,-2.3437,-2.3259,-2.3093,-2.3003,-2.3021,-2.3135,-2.3271,-2.3289,-2.3405,-2.3558,-2.3504,-2.343,-2.3365,-2.3277,-2.3109,-2.2893,-2.2764,-2.2685,-2.2463,-2.2271,-2.2406,-2.244,-2.2086,-2.1415,-2.0943,-2.0763,-2.0462,-2.0292,-2.0224,-2.0139,-2.0035,-1.9814,-1.9126,-1.8419,-1.8175,-1.757,-1.6689,-1.6361,-1.6051,-1.5688,-1.5309,-1.5173,-1.5171,-1.5192,-1.5128,-1.5119,-1.4577,-1.389,-1.3771,-1.3895,-1.3237,-1.2779,-1.3535,-1.4143,-1.4503,-1.4741,-0.7276,-0.7251,-0.6732,-0.6359,-0.6115,-0.5475,-0.5403,-0.555,-0.5517,-0.5458,-0.5492,-0.5483,-0.5336,-0.5189,-0.5004,-0.4865,-0.4683,-0.4276,-0.414,-0.4028,-0.3631,-0.39,-0.4038,-0.4182,-0.4676,-0.5337,-0.5792,-0.6019,-0.7232,-0.8502,-0.9403,-1.0188,-1.2184,-1.4014,-1.5649,-1.7181,-1.8575,-1.959,-2.0642,-2.1592,-2.2475,-2.3287,-2.3983,-2.4567,-2.4512,-2.4985,-2.509,-2.5187,-2.5313,-2.5177,-2.4991,-2.4795,-2.4508,-2.4301,-2.4022,-2.3735,-2.35,-2.3305,-2.3189,-2.3069,-2.2855,-2.2678,-2.2512,-2.2502,-2.2556,-2.266,-2.2815,-2.2989,-2.317,-2.3277,-2.3199,-2.3119,-2.302,-2.2944,-2.2764,-2.2596,-2.2415,-2.2186,-2.2231,-2.2382,-2.2254,-2.1953,-2.1501,-2.099,-2.0447,-2.0104,-1.9788,-1.9645,-1.9536,-1.9391,-1.9259,-1.8844,-1.8051,-1.7381,-1.6854,-1.6484,-1.617,-1.5664,-1.4982,-1.455,-1.4068,-1.3668,-1.358,-1.3155,-1.2684,-1.2263,-1.1925,-1.1805,-1.1772,-1.1161,-1.1001,-1.1704,-1.2401,-1.2896,-1.3068,-0.6689,-0.6381,-0.6314,-0.593,-0.5528,-0.5197,-0.5121,-0.5245,-0.5275,-0.5257,-0.5329,-0.5549,-0.5288,-0.4876,-0.4739,-0.4542,-0.4184,-0.3773,-0.3533,-0.3509,-0.3167,-0.3252,-0.3448,-0.3486,-0.398,-0.4313,-0.4696,-0.5309,-0.6289,-0.7739,-0.9215,-0.999,-1.2037,-1.4021,-1.5878,-1.7395,-1.8546,-1.9207,-1.9631,-2.0185,-2.157,-2.24,-2.2956,-2.3602,-2.4266,-2.4929,-2.4606,-2.4705,-2.5067,-2.4867,-2.4685,-2.4505,-2.4008,-2.3808,-2.3508,-2.3165,-2.2933,-2.288,-2.2754,-2.2669,-2.2512,-2.2395,-2.2258,-2.2153,-2.2124,-2.2292,-2.2476,-2.2634,-2.2781,-2.2917,-2.2876,-2.2919,-2.2868,-2.2668,-2.2436,-2.2287,-2.2101,-2.1869,-2.1787,-2.1856,-2.1735,-2.1485,-2.1469,-2.0974,-2.0532,-1.9934,-1.9449,-1.9244,-1.8983,-1.8831,-1.8674,-1.8565,-1.8076,-1.7354,-1.6799,-1.6429,-1.6058,-1.5463,-1.4733,-1.3721,-1.3182,-1.2584,-1.1974,-1.1325,-1.0609,-1.0509,-1.0313,-1.0022,-0.9766,-0.9788,-0.9758,-1.0065,-1.059,-1.088,-1.129,-0.5372,-0.5548,-0.5298,-0.5109,-0.4952,-0.4747,-0.473,-0.4879,-0.4883,-0.4968,-0.504,-0.4743,-0.4579,-0.4475,-0.3883,-0.3595,-0.365,-0.3118,-0.3025,-0.279,-0.2473,-0.2507,-0.2968,-0.2788,-0.3392,-0.41,-0.4525,-0.4908,-0.5982,-0.7576,-0.9073,-1.0002,-1.201,-1.4007,-1.5845,-1.7288,-1.806,-1.8601,-1.8886,-2.0141,-2.2362,-2.2236,-2.2354,-2.3475,-2.4505,-2.4334,-2.4264,-2.4747,-2.486,-2.4742,-2.4595,-2.3984,-2.3049,-2.3101,-2.277,-2.2293,-2.2203,-2.2261,-2.2283,-2.218,-2.2068,-2.1969,-2.1869,-2.1768,-2.1797,-2.1998,-2.2181,-2.2292,-2.2375,-2.2473,-2.2571,-2.2642,-2.2642,-2.2364,-2.2084,-2.1895,-2.1718,-2.1509,-2.1294,-2.1167,-2.1071,-2.1135,-2.1135,-2.091,-2.0583,-2.0024,-1.9405,-1.8977,-1.8612,-1.8341,-1.8277,-1.8196,-1.8246,-1.7679,-1.7008,-1.6441,-1.6027,-1.572,-1.5174,-1.3907,-1.2406,-1.0751,-0.947,-0.9075,-0.8633,-0.8265,-0.7958,-0.7658,-0.758,-0.7939,-0.8033,-0.8186,-0.781,-0.7918,-0.868,-0.4752,-0.4948,-0.4534,-0.4307,-0.4161,-0.3948,-0.3972,-0.4045,-0.4111,-0.4065,-0.4125,-0.3944,-0.386,-0.3765,-0.2996,-0.281,-0.2976,-0.2292,-0.2007,-0.181,-0.1717,-0.1609,-0.1749,-0.2049,-0.28,-0.3564,-0.4498,-0.5186,-0.5858,-0.7643,-0.9158,-1.0328,-1.2221,-1.3984,-1.5788,-1.6828,-1.7308,-1.7733,-1.8141,-2.0166,-2.2671,-2.2049,-2.1904,-2.3101,-2.3945,-2.3879,-2.3872,-2.4318,-2.4531,-2.4463,-2.4352,-2.3527,-2.2707,-2.2376,-2.1857,-2.1335,-2.1194,-2.1485,-2.1573,-2.1611,-2.1601,-2.1617,-2.1634,-2.162,-2.1603,-2.1781,-2.1811,-2.1882,-2.1866,-2.1924,-2.2056,-2.2113,-2.1994,-2.1774,-2.1428,-2.1165,-2.1086,-2.1007,-2.0532,-2.0032,-2.0165,-2.0501,-2.0418,-1.9993,-1.9677,-1.9513,-1.8962,-1.843,-1.8092,-1.776,-1.7747,-1.7626,-1.7558,-1.7531,-1.7005,-1.6466,-1.602,-1.5744,-1.5433,-1.3369,-1.1309,-0.8619,-0.6819,-0.6766,-0.6374,-0.5557,-0.5257,-0.5488,-0.5872,-0.6379,-0.6318,-0.6209,-0.5687,-0.5147,-0.538,-0.4361,-0.4399,-0.3851,-0.3541,-0.3286,-0.3103,-0.3063,-0.3099,-0.3115,-0.2962,-0.2795,-0.3204,-0.3108,-0.2851,-0.2452,-0.2434,-0.2142,-0.1463,-0.1092,-0.1016,-0.0685,-0.0965,-0.1086,-0.1213,-0.2057,-0.3065,-0.4116,-0.4781,-0.5336,-0.745,-0.9368,-1.0849,-1.2435,-1.4129,-1.5768,-1.6661,-1.6803,-1.725,-1.8095,-1.9901,-2.0766,-2.1183,-2.1848,-2.2771,-2.3581,-2.3997,-2.3644,-2.3694,-2.41,-2.4042,-2.387,-2.3027,-2.2277,-2.1754,-2.1079,-2.0571,-2.0508,-2.0654,-2.0736,-2.1064,-2.1274,-2.1433,-2.1497,-2.1466,-2.1419,-2.1371,-2.1402,-2.1386,-2.1339,-2.1432,-2.1554,-2.1582,-2.1428,-2.1164,-2.083,-2.0434,-2.0398,-2.0361,-1.9748,-1.9097,-1.933,-1.9753,-1.9525,-1.9104,-1.8806,-1.8646,-1.8313,-1.7827,-1.7353,-1.7024,-1.6857,-1.6659,-1.6489,-1.6484,-1.665,-1.6269,-1.5732,-1.5421,-1.4778,-1.2578,-1.0231,-0.7651,-0.5716,-0.4898,-0.4352,-0.3623,-0.3572,-0.3854,-0.4325,-0.4632,-0.4443,-0.4106,-0.3704,-0.3105,-0.218,-0.349,-0.306,-0.2932,-0.2813,-0.2645,-0.2625,-0.2625,-0.2642,-0.2561,-0.2359,-0.191,-0.191,-0.2113,-0.2467,-0.1713,-0.1538,-0.159,-0.0762,-0.0777,-0.09,-0.0163,-0.0441,-0.061,-0.0499,-0.1285,-0.2289,-0.3327,-0.4291,-0.5149,-0.7265,-0.9103,-1.0292,-1.1819,-1.3056,-1.3886,-1.468,-1.5284,-1.5883,-1.688,-1.8316,-1.9429,-2.0424,-2.2395,-2.3048,-2.3291,-2.3326,-2.3322,-2.3751,-2.3795,-2.3664,-2.3374,-2.2558,-2.1773,-2.1194,-2.0648,-2.001,-1.994,-2.0178,-2.0368,-2.054,-2.0764,-2.0991,-2.0974,-2.0958,-2.0893,-2.0778,-2.0811,-2.0795,-2.0861,-2.1023,-2.1134,-2.1148,-2.1006,-2.0651,-2.0296,-1.9849,-1.9579,-1.9434,-1.9074,-1.8669,-1.8555,-1.8754,-1.8763,-1.8293,-1.7836,-1.7611,-1.7194,-1.6696,-1.5811,-1.5804,-1.5915,-1.5652,-1.5353,-1.5768,-1.6032,-1.5696,-1.5241,-1.4982,-1.4068,-1.1711,-0.9327,-0.6722,-0.5037,-0.3501,-0.2632,-0.1896,-0.206,-0.2044,-0.2356,-0.252,-0.2361,-0.2056,-0.1657,-0.0794,0.0397]},{"header":{"parameterUnit":"m.s-1","parameterCategory":1,"la1":31.0,"la2":29.5877,"lo1":-88.7671,"lo2":-86.6584,"dy":0.0162,"dx":0.0185,"nx":115,"ny":88,"refTime":"2023-05-20T12:00:00:Z","depth":0,"parameterNumber":3,"parameterNumberName":"V-component_of_WINDS"},"data":[0.0,0.0,0.0,0.0,0.0,0.0,0.0,0.0,0.0,0.0,0.0,0.0,0.0,0.0,0.0,0.0,0.0,0.0,0.0,0.0,0.0,0.0,0.0,0.0,0.0,0.0,0.0,0.0,0.0,0.0,0.0,0.0,0.0,0.0,0.0,0.0,0.0,0.0,0.0,0.0,0.0,0.0,0.0,0.0,0.0,0.0,0.0,0.0,0.0,0.0,0.0,0.0,0.0,0.0,0.0,0.0,0.0,0.0,0.0,0.0,0.0,0.0,0.0,0.0,0.0,0.0,0.0,0.0,0.0,0.0,0.0,0.0,0.0,0.0,0.0,0.0,0.0,0.0,0.0,0.0,0.0,0.0,0.0,0.0,0.0,0.0,0.0,0.0,0.0,0.0,0.0,0.0,0.0,0.0,0.0,0.0,0.0,0.0,0.0,0.0,0.0,0.0,0.0,0.0,0.0,0.0,0.0,0.0,0.0,0.0,0.0,0.0,0.0,0.0,0.0,0.0,0.0,0.0,0.0,0.0,0.0,0.0,0.0,0.0,0.0,0.0,0.0,0.0,0.0,0.0,0.0,0.0,0.0,0.0,0.0,0.0,0.0,0.0,0.0,0.0,0.0,0.0,0.0,0.0,0.0,0.0,0.0,0.0,0.0,0.0,0.0,0.0,0.0,0.0,0.0,0.0,0.0,0.0,0.0,0.0,0.0,0.0,0.0,0.0,0.0,0.0,0.0,0.0,0.0,0.0,0.0,0.0,0.0,0.0,0.0,0.0,0.0,0.0,0.0,0.0,0.0,0.0,0.0,0.0,0.0,0.0,0.0,0.0,0.0,0.0,0.0,0.0,0.0,0.0,0.0,0.0,0.0,0.0,0.0,0.0,0.0,0.0,0.0,0.0,0.0,0.0,0.0,0.0,0.0,0.0,0.0,0.0,0.0,0.0,0.0,0.0,0.0,0.0,0.0,0.0,0.0,0.0,0.0,0.0,0.0,0.0,0.0,0.0,0.0,0.0,0.0,0.0,0.0,0.0,0.0,0.0,0.0,0.0,0.0,0.0,0.0,0.0,0.0,0.0,0.0,0.0,0.0,0.0,0.0,0.0,0.0,0.0,0.0,0.0,0.0,0.0,0.0,0.0,0.0,0.0,0.0,0.0,0.0,0.0,0.0,0.0,0.0,0.0,0.0,0.0,0.0,0.0,0.0,0.0,0.0,0.0,0.0,0.0,0.0,0.0,0.0,0.0,0.0,0.0,0.0,0.0,0.0,0.0,0.0,0.0,0.0,0.0,0.0,0.0,0.0,0.0,0.0,0.0,0.0,0.0,0.0,0.0,0.0,0.0,0.0,0.0,0.0,0.0,0.0,0.0,0.0,0.0,0.0,0.0,0.0,0.0,0.0,0.0,0.0,0.0,0.0,0.0,0.0,0.0,0.0,0.0,0.0,0.0,0.0,0.0,0.0,0.0,0.0,0.0,0.0,0.0,0.0,0.0,0.0,0.0,0.0,0.0,0.0,0.0,0.0,0.0,0.0,0.0,0.0,0.0,0.0,0.0,0.0,0.0,0.0,0.0,0.0,0.0,0.0,0.0,0.0,0.0,0.0,0.0,0.0,0.0,0.0,0.0,0.0,0.0,0.0,0.0,0.0,0.0,0.0,0.0,0.0,0.0,0.0,0.0,0.0,0.0,0.0,0.0,0.0,0.0,0.0,0.0,0.0,0.0,0.0,0.0,0.0,0.0,0.0,0.0,0.0,0.0,0.0,0.0,0.0,0.0,0.0,0.0,0.0,0.0,0.0,0.0,0.0,0.0,0.0,0.0,0.0,0.0,0.0,0.0,0.0,0.0,0.0,0.0,0.0,0.0,0.0,0.0,0.0,0.0,0.0,0.0,0.0,0.0,0.0,0.0,0.0,0.0,0.0,0.0,0.0,0.0,0.0,0.0,0.0,0.0,0.0,0.0,0.0,0.0,0.0,0.0,0.0,0.0,0.0,0.0,0.0,0.0,0.0,0.0,0.0,0.0,0.0,0.0,0.0,0.0,0.0,0.0,0.0,0.0,0.0,0.0,0.0,0.0,0.0,0.0,0.0,0.0,0.0,0.0,0.0,0.0,0.0,0.0,0.0,0.0,0.0,0.0,0.0,0.0,0.0,0.0,0.0,0.0,0.0,0.0,0.0,0.0,0.0,0.0,0.0,0.0,0.0,0.0,0.0,0.0,0.0,0.0,0.0,0.0,0.0,0.0,0.0,0.0,0.0,0.0,0.0,0.0,0.0,0.0,0.0,0.0,0.0,0.0,0.0,0.0,0.0,0.0,0.0,0.0,0.0,0.0,0.0,0.0,0.0,0.0,0.0,0.0,0.0,0.0,0.0,0.0,0.0,0.0,0.0,0.0,0.0,0.0,0.0,0.0,0.0,0.0,0.0,0.0,0.0,0.0,0.0,0.0,0.0,0.0,0.0,0.0,0.0,0.0,0.0,0.0,0.0,0.0,0.0,0.0,0.0,0.0,0.0,0.0,0.0,0.0,0.0,0.0,0.0,0.0,0.0,0.0,0.0,0.0,0.0,0.0,0.0,0.0,0.0,0.0,0.0,0.0,0.0,0.0,0.0,0.0,0.0,0.0,0.0,0.0,0.0,0.0,0.0,0.0,0.0,0.0,0.0,0.0,0.0,0.0,0.0,0.0,0.0,0.0,0.0,0.0,0.0,0.0,0.0,0.0,0.0,0.0,0.0,0.0,0.0,0.0,0.0,0.0,0.0,0.0,0.0,0.0,0.0,0.0,0.0,0.0,0.0,0.0,0.0,0.0,0.0,0.0,0.0,0.0,0.0,0.0,0.0,0.0,0.0,0.0,0.0,0.0,0.0,0.0,0.0,0.0,0.0,0.0,0.0,0.0,0.0,0.0,0.0,0.0,0.0,0.0,0.0,0.0,0.0,0.0,0.0,0.0,0.0,0.0,0.0,0.0,0.0,0.0,0.0,0.0,0.0,0.0,0.0,0.0,0.0,0.0,0.0,0.0,0.0,0.0,0.0,0.0,0.0,0.0,0.0,0.0,0.0,0.0,0.0,0.0,0.0,0.0,0.0,0.0,0.0,0.0,0.0,0.0,0.0,0.0,0.0,0.0,0.0,0.0,0.0,0.0,0.0,0.0,0.0,0.0,0.0,0.0,0.0,0.0,0.0,0.0,0.0,0.0,0.0,0.0,0.0,0.0,0.0,0.0,0.0,0.0,0.0,0.0,0.0,0.0,0.0,0.0,0.0,0.0,0.0,0.0,0.0,0.0,0.0,0.0,0.0,0.0,0.0,0.0,0.0,0.0,0.0,0.0,0.0,0.0,0.0,0.0,0.0,0.0,0.0,0.0,0.0,0.0,0.0,0.0,0.0,0.0,0.0,0.0,0.0,0.0,0.0,0.0,0.0,0.0,0.0,0.0,0.0,0.0,0.0,0.0,0.0,0.0,0.0,0.0,0.0,0.0,0.0,0.0,0.0,0.0,0.0,0.0,0.0,0.0,0.0,0.0,0.0,0.0,0.0,0.0,0.0,0.0,0.0,0.0,0.0,0.0,0.0,0.0,0.0,0.0,0.0,0.0,0.0,0.0,0.0,0.0,0.0,0.0,0.0,0.0,0.0,0.0,0.0,0.0,0.0,0.0,0.0,0.0,0.0,0.0,0.0,0.0,0.0,0.0,0.0,0.0,0.0,0.0,0.0,0.0,0.0,0.0,0.0,0.0,0.0,0.0,0.0,0.0,0.0,0.0,0.0,0.0,0.0,0.0,0.0,0.0,0.0,0.0,0.0,0.0,0.0,0.0,0.0,0.0,0.0,0.0,0.0,0.0,0.0,0.0,0.0,0.0,0.0,0.0,0.0,0.0,0.0,0.0,0.0,0.0,0.0,0.0,0.0,0.0,0.0,0.0,0.0,0.0,0.0,0.0,0.0,0.0,0.0,0.0,0.0,0.0,0.0,0.0,0.0,0.0,0.0,0.0,0.0,0.0,0.0,0.0,0.0,0.0,0.0,0.0,0.0,0.0,0.0,0.0,0.0,0.0,0.0,0.0,0.0,0.0,0.0,0.0,0.0,0.0,0.0,0.0,0.0,0.0,0.0,0.0,0.0,0.0,0.0,0.0,0.0,0.0,0.0,0.0,0.0,0.0,0.0,0.0,0.0,0.0,0.0,0.0,0.0,0.0,0.0,0.0,0.0,0.0,0.0,0.0,0.0,0.0,0.0,0.0,0.0,0.0,0.0,0.0,0.0,0.0,-1.7644,0.0,0.0,0.0,0.0,0.0,0.0,0.0,0.0,0.0,0.0,0.0,0.0,0.0,0.0,0.0,0.0,0.0,0.0,0.0,0.0,0.0,0.0,0.0,0.0,0.0,0.0,0.0,0.0,0.0,0.0,0.0,0.0,0.0,0.0,0.0,0.0,0.0,0.0,0.0,0.0,0.0,0.0,0.0,0.0,0.0,0.0,0.0,0.0,0.0,0.0,0.0,0.0,0.0,0.0,0.0,0.0,0.0,0.0,0.0,0.0,0.0,0.0,0.0,0.0,0.0,0.0,0.0,0.0,0.0,0.0,0.0,0.0,0.0,0.0,0.0,0.0,0.0,0.0,0.0,0.0,0.0,0.0,0.0,0.0,0.0,0.0,0.0,0.0,0.0,0.0,0.0,0.0,0.0,0.0,0.0,0.0,0.0,0.0,0.0,0.0,0.0,0.0,0.0,0.0,0.0,0.0,0.0,0.0,0.0,0.0,-2.01,-1.9036,-1.8683,-1.7661,-1.5847,0.0,0.0,0.0,0.0,0.0,0.0,0.0,0.0,0.0,0.0,0.0,0.0,0.0,0.0,0.0,0.0,0.0,0.0,0.0,0.0,0.0,0.0,0.0,0.0,0.0,0.0,0.0,0.0,0.0,0.0,0.0,0.0,0.0,0.0,0.0,0.0,0.0,0.0,0.0,0.0,0.0,0.0,0.0,0.0,0.0,0.0,0.0,0.0,0.0,0.0,0.0,0.0,0.0,0.0,0.0,0.0,0.0,0.0,0.0,0.0,0.0,0.0,0.0,0.0,0.0,0.0,0.0,0.0,0.0,0.0,0.0,0.0,0.0,0.0,0.0,0.0,0.0,0.0,0.0,0.0,0.0,0.0,0.0,0.0,0.0,0.0,0.0,0.0,0.0,0.0,0.0,0.0,0.0,0.0,0.0,0.0,0.0,0.0,0.0,0.0,0.0,0.0,0.0,0.0,0.0,0.0,0.0,0.0,0.0,0.0,0.0,0.0,-1.7618,-1.6565,-1.4412,0.0,0.0,0.0,0.0,0.0,0.0,0.0,0.0,0.0,0.0,0.0,0.0,0.0,0.0,0.0,0.0,0.0,0.0,0.0,0.0,0.0,0.0,0.0,0.0,0.0,0.0,0.0,0.0,0.0,0.0,0.0,0.0,0.0,0.0,0.0,0.0,0.0,0.0,0.0,0.0,0.0,0.0,0.0,0.0,0.0,0.0,0.0,0.0,0.0,0.0,0.0,0.0,0.0,0.0,0.0,0.0,0.0,0.0,0.0,0.0,0.0,0.0,0.0,0.0,0.0,0.0,0.0,0.0,0.0,0.0,0.0,0.0,0.0,0.0,0.0,0.0,0.0,0.0,0.0,0.0,0.0,0.0,0.0,0.0,0.0,0.0,0.0,0.0,0.0,0.0,0.0,0.0,0.0,0.0,0.0,0.0,0.0,0.0,0.0,0.0,0.0,0.0,0.0,0.0,0.0,0.0,0.0,0.0,0.0,0.0,-1.708,-1.6898,-1.6125,0.0,-1.4095,0.0,0.0,0.0,0.0,0.0,0.0,0.0,0.0,0.0,0.0,0.0,0.0,0.0,0.0,0.0,0.0,0.0,0.0,0.0,0.0,0.0,0.0,0.0,0.0,0.0,0.0,0.0,0.0,0.0,0.0,0.0,0.0,0.0,0.0,0.0,0.0,0.0,0.0,0.0,0.0,0.0,0.0,0.0,0.0,0.0,0.0,0.0,0.0,0.0,0.0,0.0,0.0,0.0,0.0,0.0,0.0,0.0,0.0,0.0,0.0,0.0,0.0,0.0,0.0,0.0,0.0,0.0,0.0,0.0,0.0,0.0,0.0,0.0,0.0,0.0,0.0,0.0,0.0,0.0,0.0,0.0,0.0,0.0,0.0,0.0,0.0,0.0,0.0,0.0,0.0,0.0,0.0,0.0,0.0,0.0,0.0,0.0,0.0,0.0,0.0,0.0,0.0,0.0,0.0,0.0,0.0,0.0,0.0,0.0,0.0,-1.4716,-1.4488,-1.358,-1.2909,0.0,0.0,0.0,0.0,0.0,0.0,0.0,0.0,0.0,0.0,0.0,0.0,0.0,0.0,0.0,0.0,0.0,0.0,0.0,0.0,0.0,0.0,0.0,0.0,0.0,0.0,0.0,0.0,0.0,0.0,0.0,0.0,0.0,0.0,0.0,0.0,0.0,0.0,0.0,0.0,0.0,0.0,0.0,0.0,0.0,0.0,0.0,0.0,0.0,0.0,0.0,0.0,0.0,0.0,0.0,0.0,0.0,0.0,0.0,0.0,0.0,0.0,0.0,0.0,0.0,0.0,0.0,0.0,0.0,0.0,0.0,0.0,0.0,0.0,0.0,0.0,0.0,0.0,0.0,0.0,0.0,0.0,0.0,0.0,0.0,0.0,0.0,0.0,0.0,0.0,0.0,0.0,0.0,0.0,0.0,0.0,0.0,0.0,0.0,0.0,0.0,0.0,0.0,0.0,0.0,0.0,0.0,0.0,0.0,0.0,-1.342,-1.2598,-1.2488,-1.1698,-1.1469,-1.185,0.0,0.0,0.0,0.0,0.0,0.0,0.0,0.0,0.0,0.0,0.0,0.0,0.0,0.0,0.0,0.0,0.0,0.0,0.0,0.0,0.0,0.0,0.0,0.0,0.0,0.0,0.0,0.0,0.0,0.0,0.0,0.0,0.0,0.0,0.0,0.0,0.0,0.0,0.0,0.0,0.0,0.0,0.0,0.0,0.0,0.0,0.0,0.0,0.0,0.0,0.0,0.0,0.0,0.0,0.0,0.0,0.0,0.0,0.0,0.0,0.0,0.0,0.0,0.0,0.0,0.0,0.0,0.0,0.0,0.0,0.0,0.0,0.0,0.0,0.0,0.0,0.0,0.0,0.0,0.0,0.0,0.0,0.0,0.0,0.0,0.0,0.0,0.0,0.0,0.0,0.0,0.0,0.0,0.0,0.0,0.0,0.0,0.0,0.0,0.0,0.0,0.0,0.0,0.0,0.0,0.0,0.0,0.0,-1.3932,-1.1956,-1.1098,-1.1503,-1.1183,-1.1538,0.0,0.0,0.0,0.0,0.0,0.0,0.0,0.0,0.0,0.0,0.0,0.0,0.0,0.0,0.0,0.0,0.0,0.0,0.0,0.0,0.0,0.0,0.0,0.0,0.0,0.0,0.0,0.0,0.0,0.0,0.0,0.0,0.0,0.0,0.0,0.0,0.0,0.0,0.0,0.0,0.0,0.0,0.0,0.0,0.0,0.0,0.0,0.0,0.0,0.0,0.0,0.0,0.0,0.0,0.0,0.0,0.0,0.0,0.0,0.0,0.0,0.0,0.0,0.0,0.0,0.0,0.0,0.0,0.0,0.0,0.0,0.0,0.0,0.0,0.0,0.0,0.0,0.0,0.0,0.0,0.0,0.0,0.0,0.0,0.0,0.0,0.0,0.0,0.0,0.0,0.0,0.0,0.0,0.0,0.0,0.0,0.0,0.0,0.0,0.0,0.0,0.0,0.0,0.0,0.0,0.0,0.0,0.0,0.0,-1.094,-0.9467,-0.922,-1.0221,-1.0204,-1.0878,0.0,0.0,0.0,0.0,0.0,0.0,0.0,0.0,0.0,0.0,0.0,0.0,0.0,0.0,0.0,0.0,0.0,0.0,0.0,0.0,0.0,0.0,0.0,0.0,0.0,0.0,0.0,0.0,0.0,0.0,0.0,0.0,0.0,0.0,0.0,0.0,0.0,0.0,0.0,0.0,0.0,0.0,0.0,0.0,0.0,0.0,0.0,0.0,0.0,0.0,0.0,0.0,0.0,0.0,0.0,0.0,0.0,0.0,0.0,0.0,0.0,0.0,0.0,0.0,0.0,0.0,0.0,0.0,0.0,0.0,0.0,0.0,0.0,0.0,0.0,0.0,0.0,0.0,0.0,0.0,0.0,0.0,0.0,0.0,0.0,0.0,0.0,0.0,0.0,0.0,0.0,0.0,0.0,0.0,0.0,0.0,0.0,0.0,0.0,0.0,0.0,0.0,0.0,0.0,0.0,0.0,0.0,0.0,0.0,-0.7682,0.0,-0.755,-0.8581,-0.9378,-1.0362,0.0,0.0,0.0,0.0,0.0,0.0,0.0,0.0,0.0,0.0,0.0,0.0,0.0,0.0,0.0,0.0,0.0,0.0,0.0,0.0,0.0,0.0,0.0,0.0,0.0,0.0,0.0,0.0,0.0,0.0,0.0,0.0,0.0,0.0,0.0,0.0,0.0,0.0,0.0,0.0,0.0,0.0,0.0,0.0,0.0,0.0,0.0,0.0,0.0,0.0,0.0,0.0,0.0,0.0,0.0,0.0,0.0,0.0,0.0,0.0,0.0,0.0,0.0,0.0,0.0,0.0,0.0,0.0,0.0,0.0,0.0,0.0,0.0,0.0,0.0,0.0,0.0,0.0,0.0,0.0,0.0,0.0,0.0,0.0,0.0,0.0,0.0,0.0,0.0,0.0,0.0,0.0,0.0,0.0,0.0,0.0,0.0,0.0,0.0,0.0,0.0,0.0,0.0,0.0,0.0,0.0,0.0,0.0,-0.7882,-0.4414,-0.5353,-0.6234,-0.6595,-0.8744,-1.0174,0.0,0.0,0.0,0.0,0.0,0.0,0.0,0.0,0.0,0.0,0.0,0.0,0.0,0.0,0.0,0.0,0.0,0.0,0.0,0.0,0.0,0.0,0.0,0.0,0.0,0.0,0.0,0.0,0.0,0.0,0.0,0.0,0.0,0.0,0.0,0.0,0.0,0.0,0.0,0.0,0.0,0.0,0.0,0.0,0.0,0.0,0.0,0.0,0.0,0.0,0.0,0.0,0.0,0.0,0.0,0.0,0.0,0.0,0.0,0.0,0.0,0.0,0.0,0.0,0.0,0.0,0.0,0.0,0.0,0.0,0.0,0.0,0.0,0.0,0.0,0.0,0.0,0.0,0.0,0.0,0.0,0.0,0.0,0.0,0.0,0.0,0.0,0.0,0.0,0.0,0.0,0.0,0.0,0.0,0.0,0.0,0.0,0.0,0.0,0.0,0.0,0.0,0.0,0.0,0.0,0.0,0.0,0.0,0.0,-0.3915,-0.4362,-0.5787,-0.8188,-0.8474,-0.982,0.0,0.0,0.0,0.0,0.0,0.0,0.0,0.0,0.0,0.0,0.0,0.0,0.0,0.0,0.0,0.0,0.0,0.0,0.0,0.0,0.0,0.0,0.0,0.0,0.0,0.0,0.0,0.0,0.0,0.0,0.0,0.0,0.0,0.0,0.0,0.0,0.0,0.0,0.0,0.0,0.0,0.0,0.0,0.0,0.0,0.0,0.0,0.0,0.0,0.0,0.0,0.0,0.0,0.0,0.0,0.0,0.0,0.0,0.0,0.0,0.0,0.0,0.0,0.0,0.0,0.0,0.0,0.0,0.0,0.0,0.0,0.0,0.0,0.0,0.0,0.0,0.0,0.0,0.0,0.0,0.0,0.0,0.0,0.0,0.0,0.0,0.0,0.0,0.0,0.0,0.0,0.0,0.0,0.0,0.0,0.0,0.0,0.0,0.0,0.0,0.0,0.0,0.0,0.0,0.0,0.0,0.0,0.0,0.0,-0.343,-0.3882,-0.5495,-0.8413,-0.852,-0.9911,-1.2645,0.0,0.0,0.0,0.0,0.0,0.0,0.0,0.0,0.0,0.0,0.0,0.0,0.0,0.0,0.0,0.0,0.0,0.0,0.0,0.0,0.0,0.0,0.0,0.0,0.0,0.0,0.0,0.0,0.0,0.0,0.0,0.0,0.0,0.0,0.0,0.0,0.0,0.0,0.0,0.0,0.0,0.0,0.0,0.0,0.0,0.0,0.0,0.0,0.0,0.0,0.0,0.0,0.0,0.0,0.0,0.0,0.0,0.0,0.0,0.0,0.0,0.0,0.0,0.0,0.0,0.0,0.0,0.0,0.0,0.0,0.0,0.0,0.0,0.0,0.0,0.0,0.0,0.0,0.0,0.0,0.0,0.0,0.0,0.0,0.0,0.0,0.0,0.0,0.0,0.0,0.0,0.0,0.0,0.0,0.0,0.0,0.0,0.0,0.0,0.0,0.0,0.0,0.0,0.0,0.0,0.0,0.0,0.0,-0.2907,-0.3764,-0.5319,-0.7544,-0.8857,-1.0356,0.0,0.0,0.0,0.0,0.0,0.0,0.0,0.0,0.0,0.0,0.0,0.0,0.0,0.0,0.0,0.0,0.0,0.0,0.0,0.0,0.0,0.0,0.0,0.0,0.0,0.0,0.0,0.0,0.0,0.0,0.0,0.0,0.0,0.0,0.0,0.0,0.0,0.0,0.0,0.0,0.0,0.0,0.0,0.0,0.0,0.0,0.0,0.0,0.0,0.0,0.0,0.0,0.0,0.0,0.0,0.0,0.0,0.0,0.0,0.0,0.0,0.0,0.0,0.0,0.0,0.0,0.0,0.0,0.0,0.0,0.0,0.0,0.0,0.0,0.0,0.0,0.0,0.0,0.0,0.0,0.0,0.0,0.0,0.0,0.0,0.0,0.0,0.0,0.0,0.0,0.0,0.0,0.0,0.0,0.0,0.0,0.0,0.0,0.0,0.0,0.0,0.0,0.0,0.0,0.0,0.0,0.0,0.0,0.0,-0.2219,-0.3524,-0.5952,-0.9409,-0.9482,-1.0832,0.0,0.0,0.0,0.0,0.0,0.0,0.0,0.0,0.0,0.0,0.0,0.0,0.0,0.0,0.0,0.0,0.0,0.0,0.0,0.0,0.0,0.0,0.0,0.0,0.0,0.0,0.0,0.0,0.0,0.0,0.0,0.0,0.0,0.0,0.0,0.0,0.0,0.0,0.0,0.0,0.0,0.0,0.0,0.0,0.0,0.0,0.0,0.0,0.0,0.0,0.0,0.0,0.0,0.0,0.0,0.0,0.0,0.0,0.0,0.0,0.0,0.0,0.0,0.0,0.0,0.0,0.0,0.0,0.0,0.0,0.0,0.0,0.0,0.0,0.0,0.0,0.0,0.0,0.0,0.0,0.0,0.0,0.0,0.0,0.0,0.0,0.0,0.0,0.0,0.0,0.0,0.0,0.0,0.0,0.0,0.0,0.0,0.0,0.0,0.0,0.0,0.0,0.0,0.0,0.0,0.0,0.0,0.0,-0.0584,-0.2608,-0.3605,-0.6213,-1.0464,-1.0554,-1.1587,0.0,0.0,0.0,0.0,0.0,0.0,0.0,0.0,0.0,0.0,0.0,0.0,0.0,0.0,0.0,0.0,0.0,0.0,0.0,0.0,0.0,0.0,0.0,0.0,0.0,0.0,0.0,0.0,0.0,0.0,0.0,0.0,0.0,0.0,0.0,0.0,0.0,0.0,0.0,0.0,0.0,0.0,0.0,0.0,0.0,0.0,0.0,0.0,0.0,0.0,0.0,0.0,0.0,0.0,0.0,0.0,0.0,0.0,0.0,0.0,0.0,0.0,0.0,0.0,0.0,0.0,0.0,0.0,0.0,0.0,0.0,0.0,0.0,0.0,0.0,0.0,0.0,0.0,0.0,0.0,0.0,0.0,0.0,0.0,0.0,0.0,0.0,0.0,0.0,0.0,0.0,0.0,0.0,0.0,0.0,0.0,0.0,0.0,0.0,0.0,0.0,0.0,0.0,0.0,0.0,0.0,0.0,0.0,-0.0734,-0.3374,-0.3873,-0.6254,-1.0578,-1.1501,-1.2476,0.0,0.0,0.0,0.0,0.0,0.0,0.0,0.0,0.0,0.0,0.0,0.0,0.0,0.0,0.0,0.0,0.0,0.0,0.0,0.0,0.0,0.0,0.0,0.0,0.0,0.0,0.0,0.0,0.0,0.0,0.0,0.0,0.0,0.0,0.0,0.0,0.0,0.0,0.0,0.0,0.0,0.0,0.0,0.0,0.0,0.0,0.0,0.0,0.0,0.0,0.0,0.0,0.0,0.0,0.0,0.0,0.0,0.0,0.0,0.0,0.0,0.0,0.0,0.0,0.0,0.0,0.0,0.0,0.0,0.0,0.0,0.0,0.0,0.0,0.0,0.0,0.0,0.0,0.0,0.0,0.0,0.0,0.0,0.0,0.0,0.0,0.0,0.0,0.0,0.0,0.0,0.0,0.0,0.0,0.0,0.0,0.0,0.0,0.0,0.0,0.0,0.0,0.0,0.0,0.0,0.0,0.0,0.0,-0.0873,-0.3142,-0.3872,-0.6165,-1.0324,-1.1226,-1.2646,0.0,0.0,0.0,0.0,0.0,0.0,0.0,0.0,0.0,0.0,0.0,0.0,0.0,0.0,0.0,0.0,0.0,0.0,0.0,0.0,0.0,0.0,0.0,0.0,0.0,0.0,0.0,0.0,0.0,0.0,0.0,0.0,0.0,0.0,0.0,0.0,0.0,0.0,0.0,0.0,0.0,0.0,0.0,0.0,0.0,0.0,0.0,0.0,-0.976,0.0,0.0,0.0,0.0,0.0,0.0,0.0,0.0,0.0,0.0,0.0,0.0,0.0,0.0,0.0,0.0,0.0,0.0,0.0,0.0,0.0,0.0,0.0,0.0,0.0,0.0,0.0,0.0,0.0,0.0,0.0,0.0,0.0,0.0,0.0,0.0,0.0,0.0,0.0,0.0,0.0,0.0,0.0,0.0,0.0,0.0,0.0,0.0,0.0,0.0,0.0,0.0,0.0,0.0,0.0,0.0,0.0,0.0,0.0,-0.1387,-0.3568,-0.4495,-0.6763,-1.0314,-1.1232,-1.2606,0.0,0.0,0.0,0.0,0.0,0.0,0.0,0.0,0.0,0.0,0.0,0.0,0.0,0.0,0.0,0.0,0.0,0.0,0.0,0.0,0.0,0.0,0.0,0.0,0.0,0.0,0.0,0.0,0.0,0.0,0.0,0.0,0.0,0.0,0.0,0.0,0.0,0.0,0.0,0.0,0.0,0.0,0.0,0.0,0.0,0.0,0.0,0.0,0.0,0.0,0.0,0.0,0.0,0.0,0.0,0.0,0.0,0.0,0.0,0.0,0.0,0.0,0.0,0.0,0.0,0.0,0.0,0.0,0.0,0.0,0.0,0.0,0.0,0.0,0.0,0.0,0.0,0.0,0.0,0.0,0.0,0.0,0.0,0.0,0.0,0.0,0.0,0.0,0.0,0.0,0.0,0.0,0.0,0.0,0.0,0.0,0.0,0.0,0.0,0.0,0.0,0.0,0.0,0.0,0.0,0.0,0.0,-0.0683,-0.2053,-0.4097,-0.5189,-0.7268,-1.0354,-1.1196,-1.2322,-1.3908,0.0,0.0,0.0,0.0,0.0,0.0,0.0,0.0,0.0,0.0,0.0,0.0,0.0,0.0,0.0,0.0,0.0,0.0,0.0,0.0,0.0,0.0,0.0,0.0,0.0,0.0,0.0,0.0,0.0,0.0,0.0,0.0,0.0,0.0,0.0,0.0,0.0,0.0,0.3113,0.1089,0.0,0.0,0.0,0.0,0.0,0.0,0.0,0.0,-0.9414,0.0,0.0,0.0,0.0,0.0,0.0,0.0,0.0,0.0,0.0,0.0,0.0,0.0,0.0,0.0,0.0,0.0,0.0,0.0,0.0,0.0,0.0,0.0,0.0,0.0,0.0,0.0,0.0,0.0,0.0,0.0,0.0,0.0,0.0,0.0,0.0,0.0,0.0,0.0,0.0,0.0,0.0,0.0,0.0,0.0,0.0,0.0,0.0,0.0,0.0,0.0,0.0,0.0,0.0,0.0,0.0,-0.0138,-0.1044,-0.2326,-0.3847,-0.4986,-0.6914,-0.9702,-1.0326,-1.1694,-1.3958,0.0,0.0,0.0,0.0,0.0,0.0,0.0,0.0,0.0,0.0,0.0,0.0,0.0,0.0,0.0,0.0,0.0,0.0,0.0,0.0,0.0,0.0,0.0,0.0,0.0,0.0,0.0,0.0,0.0,0.0,0.0,0.0,0.0,0.0,0.0,0.0,0.0,0.0,0.0,0.297,0.1246,0.0,0.0,0.0,0.0,0.0,0.0,0.0,0.0,-1.1196,0.0,0.0,0.0,0.0,0.0,0.0,0.0,0.0,0.0,0.0,0.0,0.0,0.0,0.0,0.0,0.0,0.0,0.0,0.0,0.0,0.0,0.0,0.0,0.0,0.0,0.0,0.0,0.0,0.0,0.0,0.0,0.0,0.0,0.0,0.0,0.0,0.0,0.0,0.0,0.0,0.0,0.0,0.0,0.0,0.0,0.0,0.0,0.0,0.0,0.0,0.0,0.0,0.0,0.0,0.0,-0.1294,-0.1922,-0.3071,-0.453,-0.6102,-0.7848,-0.9771,-1.0561,-1.1814,0.0,0.0,0.0,0.0,0.0,0.0,0.0,0.0,0.0,0.0,0.0,0.0,0.0,0.0,0.0,0.0,0.0,0.0,0.0,0.0,0.0,0.0,0.0,0.0,0.0,0.0,0.0,0.0,0.0,0.0,0.0,0.0,0.0,0.0,0.0,0.0,0.0,0.0,0.0,0.0,0.3871,0.2226,-0.0149,0.0,0.0,0.0,0.0,0.0,0.0,-0.8472,-1.0184,0.0,0.0,0.0,0.0,0.0,0.0,0.0,0.0,0.0,0.0,0.0,0.0,0.0,0.0,0.0,0.0,0.0,0.0,0.0,0.0,0.0,0.0,0.0,0.0,0.0,0.0,0.0,0.0,0.0,0.0,0.0,0.0,0.0,0.0,0.0,0.0,0.0,0.0,0.0,0.0,0.0,0.0,0.0,0.0,0.0,0.0,0.0,0.0,0.0,0.0,0.0,0.0,0.0,0.0,0.0,-0.2323,-0.2963,-0.3997,-0.5368,-0.7284,-0.8857,-0.9951,-1.1039,-1.2165,0.0,0.0,0.0,0.0,0.0,0.0,0.0,0.0,0.0,0.0,0.0,0.0,0.0,0.0,0.0,0.0,0.0,0.0,0.0,0.0,0.0,0.0,0.0,0.0,0.0,0.0,0.0,0.0,0.0,0.0,0.0,0.0,0.0,0.0,0.0,0.0,0.0,0.0,0.0,0.0,0.0,0.3095,0.0953,-0.0367,0.0,0.0,0.0,0.0,-0.5845,-0.739,0.0,0.0,0.0,0.0,0.0,0.0,0.0,0.0,0.0,0.0,0.0,0.0,0.0,0.0,0.0,0.0,0.0,0.0,0.0,0.0,0.0,0.0,0.0,0.0,0.0,0.0,0.0,0.0,0.0,0.0,0.0,0.0,0.0,0.0,0.0,0.0,0.0,0.0,0.0,0.0,0.0,0.0,0.0,0.0,0.0,0.0,0.0,0.0,0.0,0.0,0.0,0.0,0.0,0.0,0.0,0.0,-0.2437,-0.3932,-0.5179,-0.6073,-0.7411,-0.8885,-1.0413,-1.121,-1.2504,0.0,0.0,0.0,0.0,0.0,0.0,0.0,0.0,0.0,0.0,0.0,0.0,0.0,0.0,0.0,0.0,0.0,0.0,0.0,0.0,0.0,0.0,0.0,0.0,0.0,0.0,0.0,0.0,0.0,0.0,0.0,0.0,0.0,0.0,0.0,0.0,0.0,0.0,0.0,0.0,0.0,0.4651,0.1649,0.0523,-0.0505,0.0,0.0,-0.3373,-0.5862,-0.7344,0.0,0.0,0.0,0.0,0.0,0.0,0.0,0.0,0.0,0.0,0.0,0.0,0.0,0.0,0.0,0.0,0.0,0.0,0.0,0.0,0.0,0.0,0.0,0.0,0.0,0.0,0.0,0.0,0.0,0.0,0.0,0.0,0.0,0.0,0.0,0.0,0.0,0.0,0.0,0.0,0.0,0.0,0.0,0.0,0.0,0.0,0.0,0.0,0.0,0.0,0.0,0.0,0.0,0.0,0.0,-0.524,-0.3908,-0.5132,-0.6191,-0.7001,-0.8684,-0.9959,-1.0634,-1.1697,-1.2721,0.0,0.0,0.0,0.0,0.0,0.0,0.0,0.0,0.0,0.0,0.0,0.0,0.0,0.0,0.0,0.0,0.0,0.0,0.0,0.0,0.0,0.0,0.0,0.0,0.0,0.0,0.0,0.0,0.0,0.0,0.0,0.0,0.0,0.0,0.0,0.0,0.0,0.0,0.0,0.0,0.0,0.0,0.2918,0.1799,0.0,0.0,0.0,-0.2537,-0.4042,0.0,0.0,0.0,0.0,0.0,0.0,0.0,0.0,0.0,0.0,0.0,0.0,0.0,0.0,0.0,0.0,0.0,0.0,0.0,0.0,0.0,0.0,0.0,0.0,0.0,0.0,0.0,0.0,0.0,0.0,0.0,0.0,0.0,0.0,0.0,0.0,0.0,0.0,0.0,0.0,0.0,0.0,0.0,0.0,0.0,0.0,0.0,0.0,0.0,0.0,0.0,0.0,0.0,0.0,0.0,0.0,0.0,-0.565,-0.6573,-0.7451,-0.8189,-0.9832,-1.0843,-1.1058,-1.2375,0.0,0.0,0.0,0.0,0.0,0.0,0.0,0.0,0.0,0.0,0.0,0.0,0.0,0.0,0.0,0.0,0.0,0.0,0.0,0.0,0.0,0.0,0.0,0.0,0.0,0.0,0.0,-0.4196,0.0,0.0,0.0,0.0,0.0,0.0,0.0,0.0,0.0,0.0,0.0,0.0,0.0,0.0,0.6051,0.3967,0.3068,0.2156,0.0,0.0,-0.1418,-0.2571,-0.4088,-0.5772,0.0,0.0,0.0,0.0,0.0,0.0,0.0,0.0,0.0,0.0,0.0,0.0,0.0,0.0,0.0,0.0,0.0,0.0,0.0,0.0,0.0,0.0,0.0,0.0,0.0,0.0,0.0,0.0,0.0,0.0,0.0,0.0,0.0,0.0,0.0,0.0,0.0,0.0,0.0,0.0,0.0,0.0,0.0,0.0,0.0,0.0,0.0,0.0,0.0,0.0,0.0,0.0,0.0,0.0,-0.9438,-0.7605,-0.8255,-0.9109,-1.0049,-1.0343,-1.0869,-1.1735,-1.3244,-1.3862,0.0,0.0,0.0,0.0,0.0,0.0,0.0,0.0,0.0,0.0,0.0,0.0,0.0,0.0,0.0,0.0,0.0,0.0,0.0,0.0,0.0,0.0,0.0,0.0,0.0,0.0,0.0,0.0,0.0,0.0,0.0,0.0,0.0,0.0,0.0,0.0,0.0,0.0,0.0,0.0,0.0,0.6842,0.4371,0.4212,0.3533,0.0,0.0916,0.0,-0.2191,-0.3159,-0.4071,-0.5448,0.0,0.0,0.0,0.0,0.0,0.0,0.0,0.0,0.0,0.0,0.0,0.0,0.0,0.0,0.0,0.0,0.0,0.0,0.0,0.0,0.0,0.0,0.0,0.0,0.0,0.0,0.0,0.0,0.0,0.0,0.0,0.0,0.0,0.0,0.0,0.0,0.0,0.0,0.0,0.0,0.0,0.0,0.0,0.0,0.0,0.0,0.0,0.0,0.0,0.0,0.0,0.0,0.0,-1.008,-0.8028,-0.9067,-0.977,-1.0077,-1.1064,-1.1986,-1.2699,-1.3461,-1.3868,0.0,0.0,0.0,0.0,0.0,0.0,0.0,0.0,0.0,0.0,0.0,0.0,0.0,0.0,0.0,0.0,0.0,0.0,0.0,0.0,0.0,0.0,0.0,0.0,0.0,0.0,0.0,0.0,-0.2828,-0.256,-0.1344,0.0,0.0,0.0,0.0,0.0,0.0,0.0,0.0,0.0,0.0,0.6932,0.5633,0.5124,0.0,0.0,0.2591,0.1621,0.0166,-0.0592,-0.1263,-0.2112,-0.2872,0.0,0.0,0.0,0.0,0.0,0.0,0.0,0.0,0.0,0.0,0.0,0.0,0.0,0.0,0.0,0.0,0.0,0.0,0.0,0.0,0.0,0.0,0.0,0.0,0.0,0.0,0.0,0.0,0.0,0.0,0.0,0.0,0.0,0.0,0.0,0.0,0.0,0.0,0.0,0.0,0.0,0.0,0.0,0.0,0.0,0.0,0.0,0.0,0.0,0.0,0.0,0.0,-1.1776,-0.9735,-1.079,-1.1236,-1.1028,-1.2269,-1.3065,-1.3444,-1.3937,-1.4179,0.0,0.0,0.0,0.0,0.0,0.0,0.0,0.0,0.0,0.0,0.0,0.0,0.0,0.0,0.0,0.0,0.0,0.0,0.0,0.0,0.0,0.0,0.0,0.0,0.0,0.0,0.0,0.0,-0.2634,-0.2256,-0.067,0.0,0.0,0.0,0.0,0.0,0.0,0.0,0.0,0.0,0.0,0.7097,0.6489,0.5904,0.5328,0.4676,0.39,0.3097,0.2094,0.1607,0.1168,0.0699,0.0,0.0,0.0,0.0,0.0,0.0,0.0,0.0,0.0,0.0,0.0,0.0,0.0,0.0,0.0,0.0,0.0,0.0,0.0,0.0,0.0,0.0,0.0,0.0,0.0,0.0,0.0,-1.7364,0.0,0.0,-1.6992,0.0,0.0,0.0,0.0,0.0,0.0,0.0,0.0,0.0,0.0,0.0,0.0,0.0,0.0,0.0,0.0,0.0,0.0,0.0,0.0,0.0,0.0,-1.4907,-1.3313,-1.3661,-1.3827,-1.357,-1.3908,-1.3933,-1.3755,-1.4778,-1.4828,-1.3649,0.0,0.0,0.0,0.0,0.0,0.0,0.0,0.0,0.0,0.0,0.0,0.0,0.0,0.0,0.0,0.0,0.0,0.0,0.0,0.0,0.0,0.0,0.0,0.0,0.0,0.0,-0.1791,-0.1356,-0.0487,0.0,0.0,0.0,0.0,0.0,0.0,0.0,0.0,0.0,0.683,0.7273,0.7424,0.6785,0.6542,0.6098,0.5261,0.468,0.4148,0.3431,0.3095,0.2831,0.0,0.0,0.0,0.0,0.0,0.0,0.0,0.0,0.0,0.0,0.0,0.0,0.0,0.0,0.0,0.0,0.0,0.0,0.0,0.0,0.0,0.0,0.0,0.0,0.0,0.0,0.0,-2.0322,-1.9396,0.0,0.0,0.0,0.0,0.0,0.0,0.0,0.0,0.0,0.0,0.0,-2.1184,-2.2179,0.0,0.0,0.0,0.0,0.0,0.0,0.0,0.0,0.0,0.0,0.0,0.0,-1.4697,-1.3494,-1.3596,-1.3616,-1.3392,-1.3807,-1.4132,-1.4461,-1.4753,-1.4471,-1.3548,0.0,0.0,0.0,0.0,0.0,0.0,0.0,0.0,0.0,0.0,0.0,0.0,0.0,0.0,0.0,0.0,0.0,0.0,0.0,0.0,0.0,0.0,0.0,0.0,0.0,-0.1933,0.0,0.0,0.0,0.0,0.0,0.0,0.0,0.0,0.0,0.0,0.8009,0.8115,0.8196,0.772,0.7469,0.782,0.7539,0.718,0.0,0.0,0.0,0.0,0.0,0.0,0.0,0.0,0.0,0.0,0.0,0.0,0.0,0.0,0.3898,0.2598,0.223,0.2131,0.2208,0.0,0.0,0.0,0.0,0.0,0.0,0.0,0.0,0.0,0.0,0.0,0.0,0.0,0.0,-2.2363,-2.1785,-2.1773,0.0,0.0,0.0,0.0,0.0,0.0,0.0,0.0,-2.3158,-2.3702,-2.3461,-2.4758,-2.5256,-2.5131,-2.6047,-2.5039,0.0,0.0,0.0,0.0,0.0,0.0,0.0,0.0,-1.5349,-1.4166,-1.4368,-1.4409,-1.4181,-1.461,-1.4939,-1.5116,-1.4924,-1.4477,-1.3596,-1.3034,-1.2807,0.0,0.0,0.0,0.0,0.0,0.0,0.0,0.0,0.0,0.0,0.0,0.0,0.0,0.0,0.0,0.0,0.0,0.0,0.0,0.0,0.0,0.0,0.0,-0.1446,0.0,0.0,0.0,0.0,0.0,0.0,0.0,0.0,0.0,0.8636,0.8346,0.8396,0.8696,0.8112,0.7854,0.8465,0.0,0.0,0.0,0.0,0.0,0.0,0.0,0.6763,0.6386,0.6303,0.6254,0.6284,0.6636,0.6974,0.7186,0.0,0.0,0.5002,0.4544,0.4405,0.4355,0.4627,0.4789,0.4566,0.4927,0.4934,0.0,0.0,0.0,0.0,-2.6028,0.0,0.0,0.0,-2.3891,-2.3887,0.0,-2.3337,0.0,0.0,0.0,0.0,-2.1716,-2.3928,0.0,0.0,-2.661,-2.7295,-2.6535,-2.7468,-2.788,-2.7689,-2.8594,-2.8397,-2.707,-2.5203,0.0,0.0,0.0,0.0,0.0,0.0,-1.6973,-1.5542,-1.6173,-1.6346,-1.5886,-1.6257,-1.6218,-1.5702,-1.5313,-1.4735,-1.3768,-1.3558,-1.3681,-1.4073,-1.3657,0.0,0.0,0.0,0.0,0.0,0.0,0.0,0.0,0.0,0.0,0.0,0.0,0.0,0.0,0.0,0.0,0.0,0.0,0.0,0.0,0.0276,0.0,0.0,0.0,0.0,0.0,0.0,0.0,0.0,0.0,0.8796,0.8514,0.8743,0.8832,0.8483,0.0,0.0,0.0,0.0,0.8436,0.7641,0.7227,0.7036,0.7122,0.7352,0.7447,0.7439,0.0,0.0,0.8232,0.841,0.851,0.8504,0.8711,0.8644,0.7355,0.6442,0.5814,0.5823,0.6437,0.6605,0.6016,0.6506,0.6682,-2.9175,0.0,0.0,0.0,0.0,-2.6414,-2.69,-2.8177,-2.7207,-2.669,-2.6521,-2.5682,0.0,0.0,0.0,0.0,0.0,0.0,-2.6229,-2.6919,-2.7472,-2.7669,-2.7495,-2.8453,-2.88,-2.8637,-2.929,-2.8827,-2.742,-2.68,-2.5196,-2.2634,0.0,0.0,0.0,0.0,-1.8069,-1.737,-1.7408,-1.6926,-1.5924,-1.5976,-1.5986,-1.574,-1.5079,-1.4619,-1.4378,-1.3827,-1.361,-1.384,-1.4079,0.0,0.0,0.0,0.0,0.0,0.0,0.0,0.0,0.0,0.0,0.0,0.0,0.0,0.0,0.0,0.0,0.0,0.0,0.0,0.0692,0.0488,0.0414,0.0,0.0,0.0,0.0,0.0,0.0,0.0,0.0,0.0,0.9659,0.9791,0.9969,0.0,0.0,0.9954,1.0738,1.0656,1.0233,0.9431,0.9393,0.0,0.8466,0.8321,0.8267,0.8098,0.8505,0.8761,0.8885,0.8949,0.9157,0.9616,0.9383,0.9217,0.9165,0.8678,0.8229,0.8273,0.8422,0.852,0.8139,0.8275,0.8038,-3.0435,-2.9551,-2.788,-2.7654,-2.8395,-2.7866,-2.8398,-2.956,-2.8773,-2.8377,-2.8223,-2.7759,-2.7145,-2.6494,-2.6176,0.0,0.0,0.0,-2.7705,-2.8571,-2.8424,-2.8371,-2.8369,-2.9114,-2.9366,-2.9317,-2.9784,-2.952,-2.8532,-2.7642,-2.6375,-2.4595,0.0,-2.0603,-2.0315,-1.9526,-1.862,-1.7612,-1.7619,-1.712,-1.6155,-1.6019,-1.5961,-1.5826,-1.5123,-1.4785,-1.4729,-1.4048,-1.3841,-1.4112,-1.4155,-1.439,0.0,0.0,0.0,0.0,0.0,0.0,0.0,0.0,0.0,0.0,0.0,-0.4785,-0.2385,0.0,0.0,0.0,0.1396,0.1654,0.117,0.146,0.0,0.0,0.0,0.0,0.0,0.0,0.0,0.805,0.8699,0.9299,1.0007,1.0568,1.1031,1.153,1.1117,1.0985,1.1755,0.0,1.1192,1.0183,0.9963,0.9705,0.8922,0.866,0.8504,0.8496,0.8765,0.8994,0.9139,0.9181,0.9366,0.9703,0.9515,0.9391,0.9677,0.945,0.9285,0.928,0.928,0.9235,0.9113,0.9032,0.8673,-3.1467,-3.1366,-2.9566,-2.9002,-2.9209,-2.9106,-2.9238,-2.9608,-2.9078,-2.9106,-2.9515,-2.9328,-2.8987,-2.849,-2.804,0.0,-2.9239,-2.9032,-2.9161,-2.9507,-2.9415,-2.9198,-2.8935,-2.9385,-2.9599,-2.9599,-3.0036,-3.0155,-2.9892,-2.7839,-2.6672,-2.6399,-2.4259,-2.2213,-2.0425,-1.9986,-1.8863,-1.693,-1.7268,-1.7123,-1.6441,-1.6181,-1.6124,-1.6114,-1.5445,-1.5077,-1.5058,-1.4408,-1.4324,-1.4739,-1.4105,-1.4276,-1.5359,0.0,0.0,0.0,0.0,0.0,0.0,0.0,0.0,0.0,0.0,0.0,0.0,0.0,0.0,0.1159,0.2051,0.0,0.2099,0.2833,0.0,0.0,0.0,0.4927,0.6548,0.6399,0.663,0.7924,0.0,0.0,0.9902,1.1089,1.192,1.2037,1.1983,1.2044,1.2077,1.2175,1.1771,1.0391,0.9852,0.9428,0.8908,0.864,0.8573,0.8647,0.8837,0.9023,0.9028,0.9164,0.9308,0.9374,0.9304,0.9271,0.9271,0.9261,0.9242,0.9209,0.9203,0.9246,0.9185,0.9129,0.8866,-3.147,-3.15,-3.1462,-3.1101,-3.054,-3.0312,-3.0122,-3.0025,-2.9812,-2.9479,-2.913,-2.8586,-2.8411,-2.8549,-2.9467,-3.0101,-3.0479,-3.0508,-3.0208,-2.9597,-2.9429,-2.8879,-2.812,-2.8525,-2.874,-2.874,-2.8824,-2.8675,-2.8344,-2.749,-2.6404,-2.5149,-2.401,-2.2827,-2.1572,-2.0432,-1.9422,-1.8466,-1.8209,-1.7579,-1.6431,-1.6181,-1.6124,-1.6114,-1.5746,-1.5514,-1.5514,-1.5128,-1.4955,-1.4926,-1.428,-1.3883,-1.3723,-1.3323,0.0,0.0,0.0,0.0,0.0,0.0,0.0,0.0,0.0,-0.3895,-0.1551,0.0,0.0467,0.0,0.273,0.3242,0.3518,0.3634,0.0,0.0,0.4613,0.5167,0.5788,0.6357,0.7009,0.761,0.8075,0.8903,1.0462,1.0748,1.1328,1.2524,1.2725,1.2849,1.3084,1.339,1.3086,1.1967,1.1883,1.1425,0.9449,0.9086,0.8999,0.891,0.9078,0.9164,0.9,0.9034,0.9143,0.9261,0.9053,0.8878,0.885,0.8732,0.8571,0.8463,0.8874,0.9223,0.8926,0.8961,0.9049,-3.1935,-3.1915,-3.1936,-3.1566,-3.1028,-3.1102,-3.0734,-3.0089,-3.016,-2.9947,-2.9648,-2.9604,-2.972,-2.9942,-3.072,-3.1003,-3.0898,-3.0669,-2.9974,-2.8936,-2.8467,-2.7906,-2.7204,-2.7409,-2.7673,-2.7965,-2.795,-2.7854,-2.7598,-2.716,-2.6327,-2.5158,-2.4056,-2.2962,-2.1997,-2.0593,-1.9387,-1.8418,-1.7774,-1.7082,-1.6431,-1.6306,-1.6089,-1.5828,-1.5467,-1.5143,-1.5041,-1.4344,-1.3989,-1.4042,-1.3402,-1.2894,-1.2558,-1.2168,-1.1755,0.0,0.0,0.0,0.0,0.0,0.0,0.0,0.0,0.0,0.0,0.0,0.0894,0.2574,0.3111,0.3572,0.4242,0.4291,0.4515,0.4921,0.5206,0.5485,0.5825,0.635,0.6783,0.7265,0.8125,0.9067,1.0128,1.0842,1.1552,1.2565,1.2683,1.2895,1.3367,1.3426,1.3143,1.2652,1.2533,1.1797,0.9607,0.9249,0.9076,0.8693,0.8693,0.8698,0.8616,0.8604,0.8642,0.8727,0.8581,0.8425,0.842,0.834,0.8284,0.8398,0.8665,0.8878,0.8699,0.887,0.8995,-3.2391,-3.2213,-3.172,-3.1289,-3.1014,-3.146,-3.1005,-2.9974,-3.0223,-3.0343,-3.0292,-3.0859,-3.1149,-3.1182,-3.1214,-3.0971,-3.0461,-2.9972,-2.9062,-2.7921,-2.7245,-2.6761,-2.6395,-2.638,-2.6703,-2.7257,-2.7365,-2.7396,-2.7396,-2.6909,-2.6326,-2.5543,-2.3941,-2.2715,-2.1718,-2.0368,-1.8986,-1.7593,-1.6836,-1.6417,-1.6337,-1.6229,-1.5955,-1.5434,-1.4821,-1.4397,-1.4194,-1.3203,-1.2742,-1.2841,-1.2206,-1.1824,-1.1728,-1.1122,-1.0694,0.0,-0.966,0.0,0.0,0.0,0.0,0.0,0.0,0.0,0.0,-0.021,0.1536,0.3126,0.3251,0.358,0.448,0.472,0.4947,0.5322,0.5564,0.582,0.6208,0.6261,0.6554,0.7076,0.8585,0.9548,0.9829,1.1137,1.2137,1.2324,1.2279,1.2491,1.3164,1.2866,1.2611,1.2675,1.2136,1.1203,1.0096,0.9433,0.8897,0.8382,0.8212,0.808,0.8127,0.8118,0.8099,0.8108,0.8127,0.8089,0.8051,0.8047,0.8173,0.8334,0.8504,0.8604,0.8679,0.8779,0.8923,-3.246,-3.1605,-3.2384,-3.2003,-3.0809,-3.1373,-3.0826,-2.9552,-2.9956,-2.9857,-2.9326,-2.9074,-2.9,-2.9022,-2.9215,-2.8957,-2.8311,-2.8635,-2.8211,-2.7194,-2.6895,-2.6616,-2.644,-2.638,-2.6457,-2.6611,-2.7149,-2.7396,-2.7396,-2.6909,-2.6148,-2.5017,-2.3322,-2.1795,-2.0404,0.0,0.0,0.0,-1.6848,-1.6536,-1.586,-1.5344,-1.5055,-1.491,-1.451,0.0,-1.4214,-1.3806,-1.3294,-1.2758,-1.2095,0.0,0.0,0.0,0.0,0.0,0.0,0.0,0.0,0.0,0.0,0.0,-0.4739,-0.3332,-0.2099,-0.0065,0.1681,0.2732,0.3166,0.3768,0.4461,0.4675,0.4994,0.5425,0.5725,0.5969,0.6027,0.6359,0.7065,0.8456,0.8996,0.981,1.0979,1.1655,1.1949,1.2223,1.213,1.2213,1.26,1.2531,1.2465,1.2276,1.156,1.0942,1.1,0.9904,0.9141,0.8845,0.8428,0.8131,0.8047,0.8051,0.807,0.8061,0.808,0.8014,0.7872,0.7834,0.7855,0.775,0.8123,0.8567,0.8748,0.8961,0.9142,-3.3093,-3.2203,-3.2449,-3.1887,0.0,-3.0765,-3.035,-2.9721,-3.0164,-3.0126,-2.9665,-2.9782,-2.9421,-2.8773,-2.9189,-2.8614,-2.7275,-2.7865,-2.74,-2.6172,-2.605,-2.5817,-2.5521,-2.5536,-2.562,-2.5857,-2.5872,-2.6041,-2.6349,-2.5787,-2.5224,-2.4612,-2.3334,-2.216,-2.1012,-1.9368,-1.7773,-1.6198,-1.6514,-1.6378,-1.5725,-1.5505,-1.5338,-1.506,-1.4681,0.0,0.0,0.0,0.0,0.0,0.0,0.0,0.0,-0.9564,0.0,-0.9058,-0.883,-0.8696,-0.8584,-0.7269,-0.6374,-0.6187,-0.4728,-0.3197,-0.1734,-0.0395,0.0888,0.2216,0.2688,0.3187,0.3867,0.4232,0.4656,0.5015,0.5365,0.5625,0.5782,0.5912,0.6552,0.7734,0.8607,0.944,1.0361,1.1051,1.1403,1.1553,1.1457,1.1459,1.1798,1.2033,1.2137,1.2108,1.1549,1.1008,1.0844,1.0388,0.934,0.8652,0.8275,0.8011,0.7688,0.7693,0.765,0.7744,0.7841,0.773,0.7655,0.7621,0.765,0.7756,0.8187,0.8414,0.8464,0.8953,0.9384,-3.3518,-3.2838,-3.2125,-3.1413,-3.07,-3.0117,-2.9865,-2.987,-3.038,0.0,0.0,-3.05,-2.9976,-2.8756,-2.9228,-2.8379,-2.6649,-2.7203,-2.6671,-2.531,-2.524,-2.506,-2.467,-2.463,-2.4803,-2.5145,-2.4579,-2.4594,-2.5102,-2.4579,-2.4241,-2.4066,-2.3477,-2.2776,-2.1816,-1.9921,-1.8042,-1.6314,-1.6267,-1.618,-1.5823,-1.5766,-1.5513,-1.5164,-1.4834,-1.4337,-1.3711,-1.2483,-1.1768,-1.1487,-1.0473,-0.9693,-0.933,-0.9277,-0.9126,-0.8765,-0.8471,-0.8321,-0.8267,-0.6905,-0.6013,-0.5815,-0.4622,-0.3151,-0.1541,-0.0958,-0.007,0.1555,0.1997,0.2467,0.3104,0.3587,0.4084,0.4441,0.4819,0.5191,0.5412,0.5509,0.5964,0.696,0.8082,0.8924,0.948,1.0474,1.106,1.0913,1.1023,1.1001,1.1171,1.1532,1.1754,1.1861,1.1638,1.1317,1.0788,1.0305,0.9672,0.8286,0.8,0.7721,0.7332,0.7216,0.7302,0.7526,0.7526,0.7536,0.7531,0.754,0.7521,0.7722,0.8052,0.8187,0.7922,0.8441,0.9028,-3.2805,-3.2109,-3.138,-3.0668,-3.0004,-2.9951,-2.9632,-2.9279,-2.9956,-2.9884,-2.9239,-2.8698,-2.7987,-2.7134,-2.7232,-2.6698,-2.581,-2.6262,-2.607,-2.5294,-2.5123,-2.5005,-2.4926,-2.4726,-2.4636,-2.4673,-2.4431,-2.4348,-2.4425,-2.4333,-2.3984,-2.3432,-2.3268,-2.2468,-2.1066,-1.9586,-1.8477,-1.785,-1.6622,-1.6086,-1.6374,-1.4976,-1.4355,-1.4689,-1.4312,-1.3994,-1.3692,-1.2822,-1.2095,-1.1487,-1.0808,-1.0182,-0.9859,-0.9637,-0.9562,-0.9599,-0.8717,-0.8153,-0.8045,-0.6584,-0.5355,-0.4631,-0.4364,-0.3761,-0.2551,-0.1682,-0.0749,0.0279,0.1113,0.1814,0.2522,0.2872,0.3338,0.3973,0.4373,0.4775,0.5278,0.5445,0.6076,0.7628,0.824,0.8957,1.0093,1.0823,1.1096,1.116,1.1116,1.1296,1.1358,1.1383,1.1452,1.1626,1.1597,1.1443,1.0998,1.0034,0.933,0.8709,0.7687,0.7269,0.7169,0.7212,0.7229,0.7488,0.7521,0.7526,0.7526,0.7526,0.7326,0.7068,0.7265,0.7269,0.7003,0.7251,0.7572,-3.2659,-3.1947,-3.1218,-3.0522,-2.9918,-2.9946,-2.9652,-2.914,-2.9526,-2.9329,-2.8735,-2.8372,-2.7767,-2.6995,-2.6918,-2.6455,-2.5675,-2.5847,-2.5754,-2.5464,-2.5371,-2.5256,-2.5123,-2.4926,-2.4751,-2.4558,-2.4048,-2.3742,-2.3742,-2.3406,-2.3009,-2.2646,-2.2109,-2.1532,-2.1026,-1.9763,-1.9047,-1.8904,-1.7436,-1.6621,-1.6503,-1.5331,-1.4739,-1.4739,-1.4204,-1.369,-1.3327,-1.2513,-1.1933,-1.1517,-1.0866,-1.0397,-1.0099,-0.9593,-0.9265,-0.9192,-0.8231,-0.7652,-0.7582,-0.6338,-0.5223,-0.4367,-0.4303,-0.4097,-0.3627,-0.2347,-0.1214,-0.0273,0.0685,0.1448,0.1887,0.238,0.2938,0.3506,0.3973,0.4472,0.4981,0.5151,0.586,0.7432,0.7907,0.8612,0.9983,1.0495,1.0782,1.0738,1.089,1.1156,1.1297,1.134,1.1373,1.156,1.1615,1.1394,1.0909,1.055,0.9708,0.8546,0.808,0.7623,0.7228,0.7069,0.7297,0.7478,0.7526,0.7526,0.7526,0.7265,0.7003,0.6806,0.6671,0.6605,0.621,0.6075,0.6334,-3.2757,-3.219,-3.1299,-3.0522,-2.9918,-2.9989,-2.9571,-2.8854,-2.896,-2.8603,-2.7921,-2.802,-2.7597,-2.6841,-2.6896,-2.6493,-2.5777,-2.5816,-2.5778,-2.5616,-2.5616,-2.5486,-2.5333,-2.5123,-2.4886,-2.4592,-2.3716,-2.3312,-2.3242,-2.2771,-2.2488,-2.24,-2.121,-2.0863,-2.1398,-2.0255,-1.9586,-1.9458,-1.8179,-1.7266,-1.6828,-1.5726,-1.5023,-1.4904,-1.4222,-1.3571,-1.3009,-1.222,-1.1732,-1.1483,-1.0926,-1.0434,-1.011,-0.9384,-0.886,-0.8479,-0.7582,-0.6868,-0.6605,-0.5815,-0.5024,-0.4367,-0.4303,-0.4303,-0.4097,-0.2817,-0.161,-0.0739,0.0404,0.1222,0.1519,0.201,0.2588,0.3065,0.3572,0.4101,0.466,0.4852,0.5559,0.7038,0.7603,0.8235,0.9432,1.0101,1.0347,1.0507,1.0681,1.0996,1.1122,1.1247,1.1435,1.156,1.1622,1.1417,1.0857,1.0669,0.9986,0.8388,0.8403,0.8085,0.7395,0.7267,0.7346,0.7469,0.7461,0.7461,0.7396,0.7064,0.6741,0.6539,0.6276,0.5877,0.5355,0.5223,0.5484,-3.3032,-3.2773,-3.1477,-3.0506,-2.9935,-2.9973,-2.9267,-2.8152,-2.8214,-2.7487,-2.6348,-2.6895,-2.6688,-2.5999,-2.6515,-2.6363,-2.5681,-2.6296,-2.6215,-2.5664,-2.5616,-2.5578,-2.5524,-2.5178,-2.4982,-2.4831,-2.3881,-2.3319,-2.3271,-2.3047,-2.3227,-2.3368,-2.1486,-2.1005,-2.1894,-2.0884,-2.0016,-1.9591,-1.8482,-1.7943,-1.7801,-1.5538,-1.4443,-1.4895,-1.4282,-1.37,-1.2931,-1.2328,-1.1834,-1.1483,-1.0933,-1.0301,-0.9652,-0.9186,-0.8731,-0.8091,-0.7051,-0.6075,-0.516,-0.4628,-0.4434,-0.43,-0.4303,-0.4167,-0.3961,-0.2683,-0.1811,-0.1207,0.0134,0.1212,0.1553,0.1825,0.2237,0.2724,0.3131,0.3518,0.4056,0.4515,0.5435,0.6994,0.7367,0.8027,0.9496,0.9976,1.0283,1.0631,1.0989,1.124,1.1365,1.1435,1.1622,1.1622,1.1622,1.1414,1.1041,1.0336,0.9827,0.9225,0.8726,0.8299,0.7876,0.7777,0.797,0.7404,0.7391,0.7461,0.7265,0.6933,0.6539,0.6113,0.5657,0.5147,0.4824,0.4891,0.5289,-3.2838,-3.2368,-3.1364,-3.0522,-3.0022,-3.0076,-2.9344,-2.8148,-2.8083,-2.7262,-2.6012,-2.6192,-2.6052,-2.5733,-2.6026,-2.5935,-2.5648,-2.5924,-2.5907,-2.5632,-2.5616,-2.5616,-2.5578,-2.5178,-2.5005,-2.495,-2.4222,-2.3696,-2.3255,-2.2732,-2.269,-2.2915,-2.1628,-2.1256,-2.1603,-2.144,-2.057,-1.9117,-1.8753,-1.8161,-1.7134,-1.529,-1.4096,-1.3652,-1.3107,-1.2405,-1.1707,-1.149,-1.1296,-1.0926,-1.0295,-0.9773,-0.9396,-0.835,-0.7632,-0.7172,-0.6264,-0.5415,-0.4827,-0.4564,-0.4431,-0.43,-0.4233,-0.3961,-0.342,-0.2278,-0.1341,-0.0738,0.0336,0.121,0.1412,0.1681,0.2085,0.2485,0.2889,0.3426,0.3961,0.4498,0.5418,0.692,0.7344,0.8012,0.942,1.0123,1.0434,1.0807,1.1115,1.1421,1.1787,1.174,1.174,1.1981,1.1856,1.1483,1.1136,1.0821,1.0271,0.9731,0.9517,0.9169,0.8281,0.8194,0.8137,0.7512,0.7456,0.7461,0.7396,0.699,0.6523,0.5868,0.5039,0.4531,0.4607,0.4691,0.4894,-3.2951,-3.2222,-3.1316,-3.0482,-2.9766,-2.9852,-2.9075,-2.7886,-2.7715,-2.6973,-2.5889,-2.5754,-2.5701,-2.568,-2.568,-2.5642,-2.5616,-2.5616,-2.5616,-2.5616,-2.5616,-2.5616,-2.5578,-2.5178,-2.5005,-2.4926,-2.4508,-2.3999,-2.3452,-2.2665,-2.2481,-2.2712,-2.2058,-2.1624,-2.153,-2.1772,-2.0911,-1.9119,-1.8831,-1.7945,-1.6483,-1.511,-1.3932,-1.2841,-1.2183,-1.144,-1.0657,-1.0875,-1.0857,-1.0624,-0.9907,-0.9326,-0.8947,-0.7642,-0.6728,-0.6334,-0.5547,-0.4957,-0.4827,-0.4628,-0.4428,-0.43,-0.4097,-0.3692,-0.2882,-0.1876,-0.0939,-0.0201,0.0739,0.1344,0.1412,0.1748,0.2084,0.235,0.2889,0.336,0.3825,0.4425,0.5418,0.692,0.7335,0.8062,0.9588,1.0358,1.0807,1.0926,1.1358,1.1787,1.2205,1.2097,1.2104,1.2389,1.2035,1.1589,1.1306,1.109,1.0744,1.0432,1.0258,0.9987,0.8965,0.8845,0.8484,0.7967,0.7717,0.7391,0.7186,0.6846,0.6274,0.5516,0.4788,0.4266,0.4409,0.4521,0.4622,-3.3663,-3.2838,-3.1648,-3.0321,-2.9173,-2.9173,-2.8274,-2.6977,-2.6989,-2.6455,-2.5724,-2.568,-2.5663,-2.5616,-2.5637,-2.5616,-2.5616,-2.5616,-2.5616,-2.5616,-2.5616,-2.5616,-2.5578,-2.5162,-2.5005,-2.4926,-2.4523,-2.4204,-2.3888,-2.3284,-2.3145,-2.346,-2.278,-2.2357,-2.21,-2.17,-2.0817,-1.9473,-1.8627,-1.742,-1.6033,-1.5012,-1.3957,-1.2806,-1.1991,-1.1253,-1.0647,-1.0597,-1.0561,-1.0598,-0.9806,-0.9046,-0.8285,-0.7377,-0.6404,-0.5557,-0.5093,-0.4827,-0.4761,-0.4498,-0.43,-0.4233,-0.4097,-0.3625,-0.2684,-0.1676,-0.0738,0.0202,0.121,0.1748,0.1609,0.1949,0.2153,0.222,0.2824,0.3293,0.3489,0.4295,0.5481,0.6789,0.7386,0.8285,1.0034,1.0773,1.1052,1.1296,1.1903,1.2451,1.2512,1.2642,1.2642,1.2451,1.2158,1.174,1.1593,1.1428,1.1175,1.0931,1.0859,1.0746,1.0275,0.9693,0.8989,0.8345,0.7807,0.7349,0.6963,0.6471,0.5849,0.5271,0.4872,0.4547,0.4246,0.4421,0.453,-3.2821,-3.1753,-3.0997,-3.0077,-2.9288,-2.9231,-2.8369,-2.7011,-2.6962,-2.6515,-2.5905,-2.5824,-2.5807,-2.5787,-2.5696,-2.5659,-2.5616,-2.5616,-2.5616,-2.5616,-2.5616,-2.5524,-2.5371,-2.5123,-2.4886,-2.4726,-2.4426,-2.425,-2.4139,-2.388,-2.3739,-2.3679,-2.34,-2.275,-2.1978,-2.1916,-2.0873,-1.885,-1.8565,-1.7604,-1.5568,-1.4787,-1.3714,-1.2126,-1.1679,-1.1052,-1.0059,-0.9843,-0.9636,-0.9433,-0.8459,-0.7675,-0.7243,-0.6408,-0.5752,-0.5289,-0.496,-0.4761,-0.4625,-0.4298,-0.4097,-0.4097,-0.383,-0.309,-0.1945,-0.1208,-0.0336,0.0873,0.1546,0.1805,0.1847,0.1997,0.222,0.2288,0.2824,0.3288,0.3623,0.4292,0.5223,0.64,0.7507,0.8913,0.9939,1.0787,1.1122,1.1247,1.1903,1.2573,1.2948,1.2887,1.2696,1.2887,1.2405,1.174,1.1622,1.1608,1.1549,1.1497,1.1392,1.1015,1.0628,0.9901,0.9221,0.8531,0.7935,0.737,0.6949,0.6261,0.5619,0.5275,0.4832,0.4488,0.4001,0.426,0.4324,-3.2099,-3.1352,-3.0662,-2.9947,-2.9187,-2.9013,-2.8147,-2.6965,-2.673,-2.643,-2.6076,-2.5954,-2.5934,-2.5897,-2.5791,-2.5733,-2.5675,-2.5637,-2.5616,-2.5616,-2.5616,-2.5502,-2.5294,-2.51,-2.4831,-2.4589,-2.4385,-2.4265,-2.4212,-2.4181,-2.4082,-2.3882,-2.3739,-2.3106,-2.2129,-2.1971,-2.0771,-1.9,-1.8435,-1.7293,-1.5522,-1.4741,-1.3501,-1.1891,-1.1533,-1.079,-0.9494,-0.9249,-0.8945,-0.8469,-0.7423,-0.6684,-0.6253,-0.573,-0.5292,-0.5087,-0.4894,-0.4761,-0.4558,-0.4228,-0.3894,-0.3689,-0.3288,-0.235,-0.0939,-0.047,0.0336,0.1343,0.1859,0.1965,0.2079,0.2225,0.2315,0.2389,0.292,0.3394,0.3751,0.4422,0.5418,0.6601,0.8096,0.9314,1.0212,1.073,1.0996,1.1122,1.1911,1.2642,1.2948,1.2887,1.2696,1.3009,1.2343,1.1802,1.1685,1.167,1.1593,1.1549,1.1549,1.1281,1.0871,1.0147,0.9454,0.8771,0.809,0.7439,0.6833,0.6108,0.5647,0.5306,0.4991,0.461,0.4259,0.4056,0.4165,-3.1543,-3.165,-3.0833,-2.9765,-2.887,-2.8465,-2.7574,-2.662,-2.622,-2.6256,-2.6383,-2.6118,-2.6063,-2.5954,-2.601,-2.5954,-2.5954,-2.5824,-2.5675,-2.5616,-2.5616,-2.5486,-2.5256,-2.5123,-2.4886,-2.4589,-2.4385,-2.4265,-2.4212,-2.4239,-2.4124,-2.3982,-2.3839,-2.3316,-2.2803,-2.1648,-2.0694,-1.9475,-1.7874,-1.6548,-1.5834,-1.4746,-1.3369,-1.1814,-1.1451,-1.053,-0.8854,-0.8769,-0.8482,-0.7938,-0.7082,-0.6311,-0.5612,-0.5336,-0.5223,-0.4957,-0.4827,-0.4694,-0.4425,-0.4023,-0.3422,-0.3013,-0.241,-0.1535,-0.0334,0.0334,0.1003,0.1733,0.2029,0.218,0.2449,0.2567,0.2567,0.2643,0.3117,0.3677,0.4196,0.4749,0.5741,0.7302,0.85,0.9558,1.0319,1.0628,1.0788,1.1167,1.1759,1.2287,1.2567,1.2615,1.2704,1.2517,1.2219,1.1834,1.1725,1.1663,1.1648,1.1571,1.1586,1.1476,1.1098,1.0526,0.9691,0.893,0.7814,0.7181,0.6653,0.6019,0.5575,0.5247,0.4955,0.4607,0.4261,0.3981,0.4063,-3.0593,-3.0499,-3.0247,-2.9474,-2.8518,-2.8237,-2.7623,-2.6856,-2.6707,-2.6707,-2.6824,-2.6808,-2.6791,-2.6774,-2.6691,-2.664,-2.664,-2.6436,-2.6118,-2.5791,-2.5844,-2.5584,-2.5201,-2.5224,-2.4974,-2.4467,-2.4343,-2.4302,-2.4291,-2.4276,-2.4234,-2.4109,-2.3824,-2.2959,-2.1856,-2.106,-2.0026,-1.8319,-1.7222,-1.6277,-1.5348,-1.4403,-1.3178,-1.1756,-1.1275,-1.011,-0.8093,-0.7883,-0.7597,-0.7088,-0.6122,-0.5471,-0.5211,-0.4829,-0.4483,-0.4223,-0.3689,-0.3153,-0.2748,-0.2544,-0.2274,-0.1868,-0.145,-0.0783,0.013,0.0587,0.1176,0.1902,0.2102,0.2303,0.2525,0.2699,0.2819,0.2898,0.3407,0.3967,0.4389,0.4938,0.5973,0.7215,0.7855,0.8624,0.9654,1.01,1.0299,1.0545,1.1309,1.1921,1.2065,1.2346,1.2736,1.2646,1.2281,1.1768,1.1608,1.1436,1.1361,1.1322,1.1396,1.1372,1.1095,1.0696,0.9887,0.8865,0.7719,0.6984,0.6468,0.605,0.5627,0.5143,0.483,0.44,0.3995,0.3949,0.4048,-3.0263,-3.0274,-3.0214,-2.9558,-2.8535,-2.8246,-2.7786,-2.7293,-2.708,-2.708,-2.7241,-2.7213,-2.7213,-2.7181,-2.7115,-2.7083,-2.7034,-2.6906,-2.6556,-2.6156,-2.6101,-2.5775,-2.5185,-2.5013,-2.4815,-2.4385,-2.4302,-2.4328,-2.4395,-2.441,-2.4441,-2.4426,-2.3751,-2.2897,-2.1695,-2.0581,-1.9168,-1.7735,-1.6618,-1.5695,-1.4829,-1.3889,-1.2861,-1.1715,-1.1032,-0.9688,-0.7812,-0.7439,-0.6902,-0.6119,-0.5349,-0.4934,-0.465,-0.4296,-0.3963,-0.351,-0.299,-0.2468,-0.2014,-0.1879,-0.143,-0.1036,-0.0639,-0.0063,0.0698,0.1149,0.174,0.2135,0.2419,0.2628,0.297,0.3118,0.3231,0.3421,0.3783,0.4367,0.4906,0.557,0.6569,0.7767,0.8209,0.8735,0.9479,0.9778,0.9918,1.0105,1.069,1.1193,1.1344,1.1678,1.1947,1.2044,1.1763,1.1465,1.1386,1.123,1.109,1.1041,1.1049,1.1005,1.0843,1.0458,0.9815,0.8607,0.7449,0.6982,0.6499,0.6146,0.5795,0.5294,0.4777,0.4409,0.4146,0.4038,0.4054,-3.0381,-3.0884,-3.0543,-2.9742,-2.8772,-2.8291,-2.7941,-2.7665,-2.7317,-2.7348,-2.7612,-2.7461,-2.7307,-2.7276,-2.7321,-2.7338,-2.7227,-2.7178,-2.7051,-2.6808,-2.6624,-2.6139,-2.5368,-2.4735,-2.4385,-2.4302,-2.4302,-2.4436,-2.4552,-2.4599,-2.4735,-2.4658,-2.3677,-2.2847,-2.2048,-2.0217,-1.8735,-1.7676,-1.6173,-1.5062,-1.4344,-1.3298,-1.2335,-1.1458,-1.0559,-0.9332,-0.7812,-0.7009,-0.6204,-0.525,-0.4993,-0.4622,-0.4013,-0.3931,-0.3589,-0.2853,-0.259,-0.2165,-0.1911,-0.143,-0.1055,-0.0311,0.0185,0.0737,0.1358,0.1952,0.2367,0.2564,0.2845,0.3178,0.3476,0.3663,0.3853,0.4189,0.4238,0.4853,0.6132,0.6526,0.7254,0.857,0.9134,0.9242,0.9801,0.9719,0.9707,0.9795,1.0044,1.0236,1.0485,1.0748,1.0842,1.0971,1.1205,1.1191,1.1194,1.0986,1.0823,1.0639,1.0681,1.0676,1.0521,1.0115,0.9653,0.8415,0.7475,0.7003,0.6652,0.6376,0.5996,0.5529,0.5075,0.4671,0.4342,0.4172,0.4175,-2.9779,-2.9411,-2.9281,-2.8895,-2.8426,-2.824,-2.8134,-2.8053,-2.7922,-2.7893,-2.8025,-2.7996,-2.7893,-2.7922,-2.794,-2.794,-2.7864,-2.776,-2.7642,-2.7444,-2.7307,-2.6505,-2.5465,-2.4655,-2.4302,-2.4343,-2.4467,-2.4558,-2.4617,-2.4799,-2.4674,-2.4185,-2.3641,-2.2691,-2.1396,-2.0017,-1.8652,-1.7293,-1.5969,-1.4832,-1.3907,-1.2822,-1.1616,-1.0442,-0.974,-0.8482,-0.6897,-0.5928,-0.5336,-0.5022,-0.5004,-0.4687,-0.3812,-0.3435,-0.2875,-0.2081,-0.129,-0.0738,-0.0308,-0.0123,0.0246,0.0554,0.0843,0.1193,0.1373,0.2086,0.249,0.2579,0.2906,0.3381,0.376,0.3934,0.4222,0.4645,0.4686,0.5164,0.6297,0.6713,0.7279,0.8601,0.8783,0.9028,0.9328,0.9319,0.9166,0.9282,0.948,0.9736,0.9907,1.0272,1.055,1.0849,1.1064,1.104,1.0971,1.0779,1.0562,1.0272,1.0242,1.0355,1.01,0.967,0.9193,0.8387,0.7699,0.7192,0.7025,0.6804,0.6322,0.5782,0.5195,0.4734,0.4392,0.4166,0.4337,-2.9211,-2.9047,-2.9029,-2.8705,-2.8235,-2.8182,-2.8182,-2.8182,-2.8182,-2.8182,-2.8182,-2.8182,-2.8182,-2.8182,-2.8182,-2.8182,-2.8182,-2.8126,-2.794,-2.7624,-2.721,-2.6488,-2.5598,-2.4942,-2.4599,-2.4477,-2.4655,-2.4823,-2.4934,-2.5036,-2.4764,-2.4094,-2.3293,-2.2267,-2.107,-1.9391,-1.8026,-1.6723,-1.5629,-1.4543,-1.3332,-1.2429,-1.1233,-0.999,-0.9065,-0.7853,-0.6249,-0.5321,-0.4934,-0.4842,-0.4654,-0.4134,-0.3392,-0.2749,-0.2072,-0.1244,-0.0534,0.0,0.0297,0.0594,0.0772,0.0947,0.1223,0.1331,0.1509,0.2019,0.2479,0.2671,0.3038,0.3572,0.4064,0.424,0.4484,0.4836,0.4912,0.5546,0.6962,0.7448,0.8188,0.9009,0.9358,0.9189,0.9446,0.9165,0.9012,0.9037,0.9172,0.9319,0.9489,0.9901,1.0312,1.0554,1.0753,1.0717,1.0777,1.0614,1.0554,1.0306,1.0216,1.0277,0.9971,0.9549,0.9176,0.8679,0.7984,0.7498,0.7498,0.723,0.6588,0.605,0.5395,0.4849,0.4519,0.4301,0.4467,-2.878,-2.928,-2.928,-2.8869,-2.8235,-2.8182,-2.8182,-2.8182,-2.8182,-2.8182,-2.8182,-2.8182,-2.8182,-2.8182,-2.8182,-2.8182,-2.8182,-2.8182,-2.7996,-2.7565,-2.7002,-2.6333,-2.5855,-2.5351,-2.4981,-2.4768,-2.4934,-2.5137,-2.5249,-2.5281,-2.4885,-2.401,-2.2723,-2.1732,-2.0702,-1.8865,-1.7269,-1.6336,-1.5462,-1.4172,-1.2831,-1.2013,-1.0973,-0.9363,-0.8159,-0.7074,-0.5802,-0.5079,-0.4885,-0.4863,-0.4048,-0.3395,-0.2734,-0.2015,-0.1347,-0.0733,-0.0227,0.0113,0.0281,0.0623,0.0789,0.0961,0.1185,0.1346,0.1474,0.2032,0.2543,0.2836,0.3267,0.3742,0.4224,0.4476,0.4735,0.503,0.5051,0.594,0.735,0.8353,0.9202,1.0362,1.0287,1.0067,0.9829,0.9532,0.918,0.9088,0.9123,0.9207,0.9337,0.9616,0.9894,1.0068,1.0267,1.0347,1.0451,1.0502,1.0482,1.0427,1.0435,1.0355,1.0148,0.9829,0.9494,0.904,0.8508,0.829,0.8237,0.7812,0.702,0.6372,0.5769,0.5226,0.4739,0.4577,0.4577,-2.8599,-2.8449,-2.8477,-2.8342,-2.82,-2.8182,-2.8182,-2.8209,-2.8182,-2.8182,-2.8182,-2.8182,-2.8182,-2.8182,-2.8182,-2.8182,-2.8182,-2.8154,-2.8025,-2.7624,-2.7085,-2.659,-2.6156,-2.5668,-2.5253,-2.5137,-2.5486,-2.5577,-2.5438,-2.5167,-2.4617,-2.3455,-2.2481,-2.133,-2.0092,-1.8907,-1.7565,-1.6288,-1.5395,-1.3962,-1.2339,-1.1586,-1.0434,-0.8456,-0.6876,-0.5788,-0.5206,-0.4838,-0.4681,-0.4435,-0.3918,-0.3209,-0.2554,-0.19,-0.1119,-0.0392,0.0,0.028,0.0561,0.0841,0.101,0.1066,0.1346,0.1515,0.1575,0.2019,0.2521,0.2893,0.3262,0.3653,0.4177,0.4518,0.4806,0.5156,0.5658,0.6438,0.7746,0.8132,0.9,1.0021,1.0301,1.0067,0.9887,0.9644,0.9357,0.9189,0.9159,0.9211,0.9256,0.9361,0.9524,0.9688,1.0007,1.0213,1.0419,1.0462,1.047,1.0522,1.0565,1.0565,1.036,1.03,1.0079,0.9658,0.9138,0.9026,0.8922,0.8031,0.7133,0.6691,0.6199,0.5714,0.5281,0.5011,0.4794,-2.8159,-2.8309,-2.8291,-2.8291,-2.8291,-2.8264,-2.8264,-2.8237,-2.8209,-2.8182,-2.8182,-2.8182,-2.8182,-2.8182,-2.8182,-2.8182,-2.8154,-2.8025,-2.7864,-2.7642,-2.7324,-2.694,-2.664,-2.628,-2.5944,-2.5497,-2.5684,-2.5738,-2.5505,-2.5092,-2.4368,-2.3202,-2.2154,-2.0835,-1.9493,-1.8467,-1.7127,-1.5715,-1.4671,-1.3362,-1.189,-1.1074,-0.9766,-0.768,-0.5995,-0.4979,-0.4711,-0.4547,-0.4227,-0.385,-0.329,-0.2855,-0.2327,-0.1453,-0.0616,-0.0112,0.028,0.0449,0.0729,0.1121,0.1345,0.1122,0.1569,0.1682,0.1686,0.1942,0.2298,0.2709,0.3029,0.3348,0.4115,0.4587,0.4901,0.5064,0.5604,0.6362,0.7345,0.8153,0.9069,1.0179,1.0356,1.018,0.9938,0.9694,0.9554,0.9425,0.8896,0.8942,0.8942,0.9047,0.9152,0.942,0.9792,1.0102,1.0368,1.047,1.047,1.0565,1.0667,1.0718,1.0659,1.0702,1.0787,1.0328,0.9814,0.9503,0.9242,0.8302,0.7563,0.7176,0.6789,0.6308,0.5932,0.5664,0.5504,-2.7829,-2.8424,-2.8424,-2.8424,-2.8398,-2.8327,-2.8327,-2.83,-2.8237,-2.8209,-2.8209,-2.8209,-2.8209,-2.8209,-2.8182,-2.8182,-2.8073,-2.771,-2.7525,-2.773,-2.7295,-2.7075,-2.6821,-2.667,-2.6286,-2.5701,-2.5961,-2.5957,-2.5635,-2.4958,-2.4053,-2.3035,-2.1748,-2.0391,-1.8979,-1.7773,-1.6544,-1.5264,-1.4018,-1.2754,-1.1418,-1.0527,-0.8917,-0.694,-0.5584,-0.4743,-0.4412,-0.4193,-0.3846,-0.3042,-0.2424,-0.2209,-0.1825,-0.0951,0.0056,0.0056,0.0449,0.0673,0.0841,0.1289,0.1513,0.129,0.1737,0.2017,0.1908,0.1912,0.2198,0.2589,0.2943,0.3359,0.4131,0.4536,0.479,0.5022,0.5257,0.579,0.6786,0.8191,0.9295,1.0066,1.0232,1.012,1.0054,0.9862,0.9717,0.9499,0.9029,0.8652,0.8639,0.877,0.8892,0.9116,0.9504,1.0049,1.0336,1.0624,1.0624,1.0573,1.0718,1.082,1.0922,1.1116,1.1158,1.0905,1.049,1.0123,0.9658,0.8935,0.8296,0.7865,0.7379,0.6897,0.6578,0.6258,0.6209,-2.83,-2.8424,-2.8424,-2.8424,-2.838,-2.8398,-2.8398,-2.8371,-2.83,-2.8273,-2.8273,-2.8219,-2.8165,-2.8228,-2.8191,-2.8164,-2.7798,-2.7305,-2.7204,-2.7476,-2.6982,-2.6628,-2.6816,-2.6454,-2.6016,-2.5914,-2.6034,-2.6148,-2.5622,-2.471,-2.3614,-2.2706,-2.1268,-1.9822,-1.8817,-1.7666,-1.6431,-1.4967,-1.3668,-1.2347,-1.1178,-0.9742,-0.8237,-0.6204,-0.5147,-0.4515,-0.4113,-0.3887,-0.3508,-0.2773,-0.1977,-0.1423,-0.099,-0.0336,0.0112,0.0336,0.0561,0.0785,0.1009,0.1234,0.1625,0.1849,0.2074,0.224,0.235,0.2294,0.241,0.2745,0.3244,0.3758,0.4169,0.4487,0.4779,0.5063,0.5374,0.5763,0.6737,0.784,0.8748,0.9542,0.9803,1.012,1.0041,0.9834,0.9599,0.9446,0.9127,0.8651,0.837,0.8541,0.871,0.8934,0.9162,0.9756,1.0348,1.0643,1.0769,1.0624,1.0726,1.0922,1.1074,1.1427,1.1418,1.1368,1.0998,1.0474,0.9961,0.9406,0.889,0.8355,0.7919,0.7492,0.7385,0.7171,0.6907,-2.8309,-2.8484,-2.8484,-2.8528,-2.8502,-2.844,-2.8458,-2.8432,-2.838,-2.8371,-2.8201,-2.7879,-2.787,-2.7951,-2.7254,-2.6978,-2.6819,-2.6482,-2.6428,-2.6551,-2.6229,-2.6026,-2.633,-2.5889,-2.5715,-2.5515,-2.5544,-2.5379,-2.4962,-2.3753,-2.2995,-2.2282,-2.1049,-1.9909,-1.8797,-1.7585,-1.6267,-1.4739,-1.3083,-1.1694,-1.059,-0.8912,-0.7134,-0.6097,-0.4944,-0.4255,-0.3837,-0.3474,-0.2901,-0.2118,-0.1459,-0.081,-0.0277,0.0168,0.0449,0.0561,0.0729,0.1009,0.14,0.1736,0.2238,0.2629,0.2796,0.3072,0.3128,0.3016,0.2852,0.3021,0.3466,0.3965,0.4089,0.4428,0.4728,0.5075,0.5355,0.5771,0.6505,0.7598,0.8337,0.8976,0.9525,0.991,1.0128,0.9848,0.9489,0.9281,0.9173,0.8765,0.8276,0.8353,0.8587,0.9047,0.943,1.0132,1.0568,1.0744,1.0922,1.0777,1.0871,1.1074,1.1368,1.1769,1.2026,1.2126,1.1601,1.0813,1.0167,0.9614,0.9204,0.8844,0.8573,0.8302,0.8243,0.8084,0.7771,-2.8317,-2.8587,-2.8587,-2.8587,-2.8587,-2.8518,-2.8536,-2.851,-2.8458,-2.8406,-2.8298,-2.7618,-2.752,-2.7574,-2.6716,-2.5897,-2.5783,-2.562,-2.5595,-2.5728,-2.5533,-2.5394,-2.55,-2.535,-2.5271,-2.4882,-2.4264,-2.4079,-2.4081,-2.3096,-2.2392,-2.1915,-2.1156,-2.0104,-1.8933,-1.7461,-1.5964,-1.4284,-1.2218,-1.0738,-0.9258,-0.7722,-0.6269,-0.5682,-0.4625,-0.3894,-0.3409,-0.3013,-0.2242,-0.1436,-0.0799,-0.0277,0.0448,0.0729,0.0841,0.0841,0.101,0.14,0.179,0.2458,0.2901,0.3403,0.3793,0.3959,0.3959,0.3683,0.3405,0.3463,0.3688,0.4076,0.42,0.4459,0.4758,0.5071,0.5423,0.5802,0.627,0.7121,0.8113,0.8769,0.9388,0.9751,1.0017,0.9885,0.9461,0.9365,0.9302,0.8985,0.8548,0.8413,0.8686,0.9249,0.9836,1.0563,1.0956,1.0956,1.1023,1.0972,1.1167,1.141,1.181,1.2206,1.2461,1.2715,1.1841,1.1065,1.0423,0.9969,0.9666,0.9413,0.9211,0.8949,0.8784,0.8672,0.8514,-2.8562,-2.8587,-2.8569,-2.8587,-2.8551,-2.8569,-2.8569,-2.8551,-2.8438,-2.851,-2.8214,-2.7551,-2.7155,-2.6982,-2.6368,-2.5924,-2.5625,-2.514,-2.5038,-2.5323,-2.502,-2.4981,-2.5331,-2.4988,-2.4607,-2.4209,-2.3261,-2.3408,-2.3583,-2.2704,-2.2146,-2.1853,-2.1041,-2.0035,-1.8979,-1.7333,-1.5741,-1.424,-1.1861,-0.9457,-0.7497,-0.6629,-0.5636,-0.4629,-0.3984,-0.353,-0.2946,-0.2509,-0.1788,-0.0576,-0.0106,0.0436,0.1058,0.1234,0.1234,0.1346,0.1569,0.1903,0.2181,0.2736,0.3564,0.4009,0.4181,0.4236,0.4457,0.4346,0.4125,0.4519,0.4298,0.4187,0.4353,0.4598,0.4844,0.5106,0.5346,0.5592,0.6026,0.7167,0.8083,0.8605,0.922,0.9652,0.9962,0.9749,0.9562,0.9458,0.9363,0.9103,0.8984,0.8938,0.9063,0.9723,1.0327,1.1032,1.1318,1.1318,1.1318,1.1217,1.156,1.185,1.2246,1.2638,1.3122,1.3074,1.2209,1.1864,1.1706,1.1208,1.0474,0.9969,0.9718,0.9413,0.9159,0.9159,0.9256,-2.7899,-2.7942,-2.7918,-2.7924,-2.7972,-2.8413,-2.8316,-2.7954,-2.7875,-2.7622,-2.7121,-2.6408,-2.5851,-2.5556,-2.527,-2.5028,-2.4622,-2.4236,-2.4177,-2.4498,-2.4266,-2.4183,-2.4266,-2.4165,-2.3874,-2.3608,-2.2972,-2.274,-2.2861,-2.2384,-2.1649,-2.1552,-2.1017,-2.0174,-1.9002,-1.7232,-1.5473,-1.3474,-1.1006,-0.8586,-0.7091,-0.6226,-0.5487,-0.4456,-0.4055,-0.3398,-0.2716,-0.2194,-0.1483,-0.0373,0.0216,0.0826,0.1283,0.1401,0.1457,0.2125,0.2514,0.2681,0.2683,0.3016,0.3846,0.4677,0.4901,0.512,0.5391,0.5328,0.4956,0.4764,0.4688,0.4622,0.4567,0.4629,0.4949,0.5209,0.5443,0.5768,0.6219,0.7328,0.8251,0.8667,0.9131,0.9665,1.0089,0.9971,0.9814,0.9621,0.9681,0.9642,0.9627,0.9737,0.9987,1.0407,1.0931,1.1451,1.1619,1.1719,1.171,1.176,1.2138,1.2482,1.2677,1.3064,1.36,1.3789,1.3283,1.3082,1.3034,1.2003,1.0779,1.0423,1.0218,1.002,0.9821,1.0079,1.0257,-2.6819,-2.6819,-2.7019,-2.7109,-2.7164,-2.7792,-2.7701,-2.7145,-2.718,-2.6812,-2.6159,-2.5543,-2.4842,-2.4233,-2.4426,-2.4334,-2.3741,-2.3562,-2.3539,-2.3539,-2.3539,-2.3593,-2.3723,-2.3616,-2.3593,-2.3494,-2.2985,-2.2694,-2.2354,-2.1899,-2.1513,-2.134,-2.1119,-2.0156,-1.8853,-1.713,-1.5146,-1.2203,-1.0118,-0.8227,-0.6884,-0.6073,-0.5353,-0.4621,-0.3996,-0.3289,-0.2432,-0.1786,-0.1005,-0.0054,0.0771,0.134,0.1679,0.1849,0.2071,0.2681,0.3067,0.3345,0.3514,0.3849,0.4298,0.5073,0.5732,0.5887,0.605,0.6312,0.614,0.5297,0.5014,0.4889,0.4725,0.4736,0.505,0.5368,0.5616,0.5994,0.6465,0.7565,0.8468,0.8951,0.9477,1.0128,1.0381,1.028,1.0123,0.9836,0.9872,1.0078,1.0285,1.0464,1.0807,1.1161,1.1643,1.208,1.2246,1.2295,1.2246,1.2393,1.2764,1.3112,1.3351,1.3779,1.4305,1.4305,1.4061,1.3815,1.3521,1.2258,1.1082,1.1032,1.0939,1.0685,1.0584,1.0897,1.1319,-2.5153,-2.5226,-2.5968,-2.6276,-2.6312,-2.6538,-2.653,-2.6299,-2.648,-2.6366,-2.5972,-2.5515,-2.4777,-2.4299,-2.413,-2.4005,-2.3728,-2.3634,-2.358,-2.358,-2.3611,-2.3558,-2.358,-2.358,-2.3558,-2.3476,-2.3105,-2.2764,-2.2449,-2.2136,-2.1718,-2.1417,-2.123,-2.0059,-1.8466,-1.6642,-1.3913,-1.1314,-0.9508,-0.8223,-0.6868,-0.5864,-0.5124,-0.4157,-0.3366,-0.2603,-0.1902,-0.1252,-0.0432,0.061,0.1283,0.1847,0.2127,0.2408,0.2852,0.3292,0.3508,0.3953,0.4508,0.4736,0.5238,0.5736,0.6223,0.6593,0.6647,0.6529,0.6244,0.5964,0.5642,0.5214,0.5058,0.503,0.521,0.5655,0.6045,0.652,0.7023,0.7757,0.8612,0.921,0.9866,1.051,1.0877,1.0804,1.0736,1.0498,1.0685,1.0889,1.1053,1.1257,1.152,1.1873,1.2359,1.2773,1.3006,1.3102,1.3188,1.3283,1.3616,1.3873,1.4071,1.4501,1.4777,1.4582,1.4294,1.4154,1.3873,1.2754,1.1981,1.1801,1.1651,1.1392,1.1425,1.1724,1.2317,-2.4719,-2.4284,-2.461,-2.5027,-2.552,-2.6194,-2.6096,-2.552,-2.5532,-2.5393,-2.5111,-2.4838,-2.4652,-2.4446,-2.421,-2.3786,-2.3338,-2.371,-2.3425,-2.3106,-2.2955,-2.3225,-2.3318,-2.334,-2.3149,-2.3482,-2.333,-2.3146,-2.295,-2.2449,-2.2136,-2.1836,-2.1399,-2.0175,-1.847,-1.5768,-1.2758,-1.0765,-0.935,-0.8287,-0.6742,-0.5934,-0.5027,-0.3547,-0.3268,-0.2365,-0.1426,-0.1014,-0.011,0.0837,0.151,0.2125,0.2738,0.3128,0.3624,0.4122,0.434,0.4886,0.5328,0.5391,0.5399,0.6164,0.6761,0.7192,0.7187,0.7348,0.716,0.6827,0.6293,0.5873,0.5756,0.5504,0.544,0.6036,0.6613,0.7109,0.7724,0.845,0.9018,0.9762,1.0387,1.1006,1.1259,1.141,1.1309,1.1217,1.1451,1.1715,1.1822,1.205,1.2359,1.2711,1.3182,1.3564,1.3841,1.3993,1.4133,1.4272,1.4411,1.4652,1.4846,1.4686,1.4869,1.4674,1.4525,1.4247,1.3873,1.3266,1.2783,1.2579,1.2335,1.2138,1.2276,1.2541,1.3476,-2.432,-2.3834,-2.3939,-2.4229,-2.4744,-2.5525,-2.5452,-2.485,-2.488,-2.4745,-2.4493,-2.4491,-2.4556,-2.457,-2.4139,-2.3637,-2.3052,-2.2974,-2.2711,-2.2542,-2.2558,-2.2903,-2.3159,-2.3343,-2.3472,-2.3717,-2.3562,-2.3369,-2.2817,-2.2574,-2.2261,-2.1832,-2.1266,-2.0004,-1.7856,-1.4841,-1.1982,-1.0526,-0.9346,-0.8355,-0.6819,-0.5699,-0.4751,-0.3183,-0.2762,-0.1995,-0.1134,-0.0642,0.0165,0.1107,0.194,0.2621,0.3289,0.4009,0.456,0.5058,0.55,0.5878,0.6095,0.6095,0.5882,0.6593,0.7139,0.7515,0.7729,0.8002,0.7812,0.7452,0.6993,0.6691,0.6504,0.6249,0.6317,0.6965,0.743,0.7919,0.8559,0.9214,0.9725,1.0336,1.0939,1.1592,1.1891,1.2098,1.2039,1.1959,1.2017,1.2246,1.255,1.285,1.328,1.3601,1.3996,1.4354,1.4675,1.4971,1.5229,1.5163,1.5309,1.5531,1.5644,1.5466,1.5209,1.5107,1.4869,1.4376,1.405,1.3711,1.3484,1.3256,1.3054,1.2948,1.3253,1.3643,1.4933,-2.385,-2.3858,-2.4211,-2.4192,-2.3987,-2.4284,-2.4394,-2.4301,-2.459,-2.4701,-2.4673,-2.4666,-2.4606,-2.4456,-2.3836,-2.321,-2.2624,-2.2045,-2.1679,-2.1753,-2.21,-2.2648,-2.3107,-2.3382,-2.3565,-2.4005,-2.3883,-2.3307,-2.2486,-2.2498,-2.226,-2.1626,-2.086,-1.937,-1.7368,-1.4281,-1.2151,-1.1016,-0.9755,-0.8484,-0.7069,-0.5485,-0.4182,-0.3026,-0.2078,-0.1348,-0.0831,-0.0217,0.0608,0.1745,0.2544,0.3392,0.4443,0.4995,0.5546,0.6086,0.6308,0.6637,0.7025,0.7025,0.7079,0.7187,0.7622,0.783,0.7984,0.815,0.8362,0.7994,0.7486,0.7374,0.7309,0.725,0.7427,0.7859,0.8376,0.8901,0.9496,0.9917,1.0438,1.0897,1.1601,1.2255,1.254,1.2735,1.2774,1.2735,1.2666,1.2813,1.3122,1.3542,1.3967,1.4503,1.4915,1.5463,1.5816,1.6151,1.6336,1.6176,1.6219,1.6476,1.6562,1.6532,1.6219,1.574,1.5431,1.5139,1.4744,1.4297,1.4413,1.4471,1.3971,1.3831,1.4182,1.4812,1.6029,-2.3795,-2.3816,-2.4098,-2.4135,-2.4059,-2.4442,-2.4476,-2.4372,-2.4556,-2.4682,-2.4731,-2.4865,-2.452,-2.4044,-2.3634,-2.2896,-2.1794,-2.223,-2.186,-2.1113,-2.1509,-2.221,-2.278,-2.313,-2.3447,-2.4008,-2.4079,-2.385,-2.341,-2.2802,-2.2575,-2.2038,-2.0091,-1.8129,-1.6123,-1.3717,-1.1903,-1.0849,-0.9668,-0.8488,-0.703,-0.5464,-0.3926,-0.2548,-0.1604,-0.0904,-0.0366,0.022,0.116,0.2344,0.3159,0.4165,0.521,0.5823,0.6362,0.6632,0.6799,0.745,0.7783,0.7996,0.8055,0.8055,0.8103,0.8362,0.8533,0.8692,0.8679,0.8554,0.8143,0.8131,0.8231,0.8059,0.8224,0.8915,0.9488,0.9961,1.049,1.0753,1.1158,1.156,1.2107,1.2871,1.3341,1.3494,1.3532,1.3627,1.3552,1.3457,1.3637,1.4097,1.4606,1.5287,1.5864,1.6489,1.6983,1.7247,1.7464,1.7477,1.7356,1.7396,1.7491,1.7504,1.7081,1.6553,1.6255,1.5954,1.5842,1.5731,1.5849,1.575,1.5818,1.5568,1.562,1.6194,1.6935,-2.3837,-2.3921,-2.4117,-2.4247,-2.4337,-2.4591,-2.4654,-2.4654,-2.4794,-2.4837,-2.4884,-2.4985,-2.4562,-2.3853,-2.3246,-2.2596,-2.1084,-2.1135,-2.1202,-2.0523,-2.1171,-2.1971,-2.2547,-2.303,-2.3861,-2.431,-2.4264,-2.4008,-2.3014,-2.2512,-2.2069,-2.1171,-1.9332,-1.7499,-1.5548,-1.37,-1.1808,-1.062,-0.9396,-0.7931,-0.6582,-0.5095,-0.3356,-0.2264,-0.1303,-0.0489,0.0108,0.0765,0.1557,0.2762,0.3862,0.4878,0.5923,0.6686,0.7171,0.7337,0.761,0.8156,0.848,0.8646,0.8745,0.8988,0.8935,0.8949,0.9061,0.9263,0.9263,0.9152,0.8896,0.9001,0.9145,0.8915,0.9176,0.9865,1.0438,1.0905,1.1108,1.1368,1.171,1.2157,1.2363,1.3208,1.3982,1.419,1.4236,1.4387,1.4479,1.434,1.4236,1.4652,1.5231,1.594,1.6552,1.7102,1.772,1.8212,1.8446,1.8684,1.8608,1.8503,1.8363,1.8377,1.7865,1.7478,1.733,1.7235,1.7276,1.7303,1.7796,1.8349,1.8769,1.8274,1.7437,1.7773,1.8418,-2.3885,-2.4117,-2.4301,-2.4449,-2.4606,-2.458,-2.4771,-2.507,-2.5089,-2.5089,-2.507,-2.4896,-2.4334,-2.3631,-2.2703,-2.1758,-2.0996,-2.027,-2.0026,-2.0214,-2.1035,-2.1859,-2.2741,-2.3585,-2.4124,-2.4534,-2.4523,-2.381,-2.227,-2.2002,-2.1525,-2.0298,-1.8643,-1.7224,-1.5762,-1.3747,-1.1901,-1.0438,-0.8731,-0.7468,-0.6329,-0.4165,-0.2865,-0.1891,-0.098,-0.0162,0.0433,0.0937,0.208,0.3322,0.4473,0.5882,0.7009,0.7771,0.809,0.8362,0.8527,0.8837,0.9047,0.9211,0.9614,0.9961,0.9961,0.9614,0.9569,0.9925,0.9925,0.9769,0.9517,0.9836,1.0051,1.0087,1.0123,1.0694,1.1259,1.1569,1.1669,1.1968,1.2304,1.2559,1.2529,1.3132,1.3914,1.4332,1.4755,1.5028,1.5119,1.5119,1.5062,1.5197,1.5808,1.6617,1.7186,1.7596,1.8212,1.8838,1.917,1.9346,1.9636,1.9585,1.9456,1.9324,1.909,1.8825,1.8659,1.8792,1.9639,1.997,2.0146,2.0696,2.1388,2.0983,2.0172,1.9801,2.0365,-2.3196,-2.4244,-2.3923,-2.3787,-2.3865,-2.4068,-2.4487,-2.5044,-2.5076,-2.5088,-2.5069,-2.4441,-2.3769,-2.2771,-2.1977,-2.1126,-2.0508,-2.0101,-2.0055,-2.0361,-2.088,-2.1602,-2.2413,-2.3282,-2.3998,-2.458,-2.462,-2.4054,-2.2787,-2.215,-2.0894,-1.951,-1.8643,-1.7666,-1.6033,-1.3813,-1.1958,-1.0103,-0.8232,-0.705,-0.5861,-0.3859,-0.2766,-0.1733,-0.0488,0.027,0.0712,0.1605,0.2699,0.3364,0.4634,0.5928,0.7074,0.7563,0.799,0.8791,0.9256,0.971,0.9909,1.0312,1.0661,1.1015,1.1157,1.1166,1.0973,1.0728,1.0736,1.0482,1.0182,1.0403,1.0616,1.071,1.0854,1.1209,1.1728,1.1977,1.2126,1.2452,1.2793,1.2871,1.289,1.3337,1.4107,1.4664,1.5085,1.549,1.5712,1.58,1.5876,1.6008,1.6188,1.6995,1.7787,1.8175,1.876,1.9368,1.9671,2.0,2.0261,2.0501,2.0505,2.0409,2.0344,2.0538,2.081,2.1713,2.2778,2.2805,2.2455,2.3277,2.3908,2.3444,2.2967,2.244,2.2378,-2.2731,-2.3905,-2.3671,-2.3733,-2.4079,-2.3953,-2.4369,-2.5037,-2.5144,-2.5137,-2.503,-2.4231,-2.3343,-2.2475,-2.1676,-2.0866,-2.0086,-2.0117,-2.0125,-2.0248,-2.0858,-2.1842,-2.2611,-2.3419,-2.434,-2.4843,-2.4841,-2.4365,-2.3114,-2.1862,-2.0634,-1.9995,-1.9217,-1.8099,-1.6491,-1.41,-1.1664,-0.9821,-0.8027,-0.6601,-0.5189,-0.3793,-0.2574,-0.1449,0.0,0.0872,0.1535,0.2703,0.3445,0.4213,0.5483,0.647,0.7551,0.819,0.8922,0.971,1.0218,1.0559,1.0813,1.1065,1.1458,1.1805,1.2159,1.2218,1.212,1.1922,1.1625,1.1275,1.099,1.0854,1.1065,1.1276,1.1477,1.1628,1.1977,1.2332,1.2618,1.2939,1.3095,1.3184,1.3438,1.3851,1.4367,1.4903,1.5478,1.592,1.6312,1.6484,1.6612,1.6782,1.6815,1.7192,1.8051,1.8803,1.9303,1.9645,1.9879,2.023,2.0716,2.0974,2.1254,2.1768,2.2052,2.2671,2.3361,2.4068,2.4585,2.4751,2.468,2.5517,2.6075,2.5831,2.5287,2.4642,2.4838,-2.2402,-2.3404,-2.3361,-2.3784,-2.4681,-2.3934,-2.4091,-2.4943,-2.4817,-2.5,-2.4805,-2.4036,-2.3134,-2.2225,-2.1375,-2.0699,-2.0336,-2.0356,-2.0558,-2.0423,-2.1842,-2.2777,-2.3419,-2.442,-2.478,-2.5101,-2.5032,-2.445,-2.3267,-2.1854,-2.0697,-2.0596,-1.9171,-1.7946,-1.6732,-1.4086,-1.1929,-1.0592,-0.8485,-0.6705,-0.5029,-0.3398,-0.1807,-0.0721,0.0741,0.2126,0.313,0.4079,0.4929,0.5855,0.673,0.7492,0.8325,0.9318,1.01,1.0679,1.1123,1.1408,1.1657,1.1864,1.2159,1.2414,1.2657,1.2919,1.2967,1.2677,1.2267,1.1972,1.1733,1.1551,1.1719,1.1678,1.1778,1.2116,1.2501,1.2803,1.3084,1.3467,1.3747,1.3857,1.4047,1.4356,1.4345,1.4823,1.5332,1.6071,1.6685,1.6951,1.7242,1.7407,1.749,1.7464,1.7997,1.8774,1.9325,1.9666,1.9919,2.0335,2.0847,2.1434,2.1723,2.2702,2.3885,2.4286,2.4692,2.5371,2.5851,2.6279,2.6833,2.7261,2.7748,2.8033,2.7588,2.676,2.6759,-2.1346,-2.2671,-2.2068,-2.2353,-2.3048,-2.2333,-2.2496,-2.3203,-2.3223,-2.3624,-2.3968,-2.3311,-2.2508,-2.1751,-2.0952,-2.0389,-2.0438,-2.0862,-2.1191,-2.1558,-2.258,-2.3362,-2.3741,-2.4471,-2.4926,-2.5176,-2.5024,-2.4394,-2.2924,-2.1393,-2.0141,-1.963,-1.8493,-1.7609,-1.6844,-1.4125,-1.2412,-1.1511,-0.9262,-0.6837,-0.4702,-0.3026,-0.1465,0.0256,0.2036,0.3258,0.4224,0.5035,0.5625,0.6284,0.7052,0.7909,0.879,1.0105,1.0739,1.1054,1.1868,1.2213,1.2415,1.2677,1.3064,1.3266,1.3467,1.3668,1.3621,1.3218,1.2871,1.2677,1.253,1.2393,1.2255,1.2166,1.2166,1.2589,1.3074,1.3351,1.3637,1.4035,1.443,1.4616,1.4754,1.4662,1.4593,1.4846,1.5231,1.5928,1.6646,1.7162,1.7585,1.7867,1.7961,1.7959,1.7853,1.8468,1.914,1.9681,1.9969,2.0212,2.0601,2.1313,2.2153,2.3454,2.4671,2.5276,2.5801,2.6413,2.7301,2.8582,2.9047,2.887,2.8965,2.9024,2.9147,2.8551,2.8615,-2.0792,-2.1869,-2.156,-2.1905,-2.245,-2.1833,-2.1968,-2.2649,-2.2737,-2.2765,-2.2814,-2.237,-2.1889,-2.135,-2.0663,-2.0649,-2.0843,-2.1362,-2.1842,-2.2368,-2.31,-2.3754,-2.4253,-2.4661,-2.5059,-2.5356,-2.5187,-2.4396,-2.2855,-2.1887,-2.0936,-1.9946,-1.8729,-1.7502,-1.671,-1.4758,-1.3281,-1.2708,-1.0056,-0.6944,-0.4356,-0.3099,-0.0669,0.1413,0.3632,0.4696,0.5731,0.6516,0.6919,0.7362,0.7913,0.8738,0.9639,1.0613,1.1137,1.1584,1.2236,1.2973,1.3091,1.3439,1.3894,1.3905,1.3915,1.3973,1.3962,1.361,1.3563,1.3409,1.3399,1.3304,1.3122,1.3025,1.315,1.3474,1.3982,1.4411,1.456,1.4777,1.5332,1.5792,1.5684,1.5309,1.5386,1.5903,1.6293,1.6519,1.7149,1.772,1.8092,1.8391,1.8458,1.8574,1.8584,1.8636,1.9221,1.9711,2.005,2.0243,2.0481,2.1816,2.306,2.4339,2.545,2.5929,2.655,2.7312,2.8365,2.9255,2.9519,2.9074,2.9407,2.9849,2.9953,2.9952,2.9752,-2.0518,-2.1149,-2.1295,-2.1745,-2.2318,-2.1733,-2.1797,-2.2404,-2.252,-2.2127,-2.1597,-2.1442,-2.1436,-2.1294,-2.1108,-2.1366,-2.175,-2.2315,-2.2728,-2.3259,-2.4131,-2.4551,-2.4879,-2.5244,-2.5425,-2.5421,-2.5272,-2.4598,-2.3583,-2.2592,-2.1675,-2.0952,-1.9613,-1.8084,-1.6835,-1.5468,-1.4037,-1.2476,-0.9774,-0.5848,-0.4319,-0.3213,0.0572,0.3556,0.5607,0.643,0.7626,0.8216,0.8534,0.881,0.9103,0.9834,1.0685,1.1506,1.1926,1.2483,1.3318,1.3736,1.379,1.4141,1.4215,1.4186,1.4161,1.4208,1.4244,1.428,1.4233,1.4222,1.4258,1.4118,1.3931,1.3815,1.3982,1.4343,1.4858,1.5398,1.5511,1.5623,1.6207,1.6822,1.6583,1.6139,1.6384,1.6902,1.7233,1.7464,1.784,1.838,1.8855,1.9074,1.9222,1.9419,1.9564,1.9645,1.9581,1.9823,2.0227,2.0465,2.091,2.246,2.3813,2.464,2.552,2.6425,2.7094,2.7516,2.8074,2.8786,2.8936,2.9245,2.9728,3.0171,3.0164,3.0173,3.0234,-2.0308,-2.0476,-2.0534,-2.0669,-2.0789,-2.0634,-2.0634,-2.077,-2.0859,-2.0706,-2.0791,-2.0791,-2.0988,-2.1657,-2.2395,-2.2702,-2.2737,-2.3269,-2.3737,-2.4261,-2.4902,-2.527,-2.5403,-2.5425,-2.5593,-2.5522,-2.527,-2.4649,-2.3965,-2.3042,-2.1576,-1.9876,-1.8823,-1.7405,-1.5904,-1.4874,-1.4253,-1.2409,-0.9023,-0.4993,-0.1572,0.049,0.3798,0.6122,0.7512,0.8606,0.9482,0.9356,0.9614,0.9984,1.0407,1.1002,1.176,1.2546,1.3028,1.3434,1.4289,1.466,1.4798,1.4992,1.5017,1.4766,1.4823,1.488,1.4971,1.5096,1.5051,1.504,1.4949,1.472,1.4525,1.4332,1.4437,1.5073,1.5644,1.6145,1.6502,1.6672,1.7024,1.741,1.7531,1.7261,1.7193,1.7665,1.8071,1.8317,1.8682,1.9207,1.9967,2.0047,2.0008,2.0215,2.0467,2.0273,2.0065,2.0181,2.0503,2.0716,2.1254,2.2617,2.3678,2.4444,2.5324,2.6153,2.6726,2.7121,2.7716,2.8344,2.9124,2.9541,3.0005,3.036,3.0345,3.0322,3.029]}]]